[[{"header":{"parameterUnit":"m.s-1","parameterCategory":1,"la1":30.6,"la2":28.766,"lo1":-90.7593,"lo2":-88.6598,"dy":0.0162,"dx":0.0183,"nx":116,"ny":114,"refTime":"2023-09-30T06:00:00:Z","depth":0,"parameterNumber":2,"parameterNumberName":"U-component_of_WINDS"},"data":[0.0,0.0,0.0,0.0,0.0,0.0,0.0,0.0,0.0,0.0,0.0,0.0,0.0,0.0,0.0,0.0,0.0,0.0,0.0,0.0,0.0,0.0,0.0,0.0,0.0,0.0,0.0,0.0,0.0,0.0,0.0,0.0,0.0,0.0,0.0,0.0,0.0,0.0,0.0,0.0,0.0,0.0,0.0,0.0,0.0,0.0,0.0,0.0,0.0,0.0,0.0,0.0,0.0,0.0,0.0,0.0,0.0,0.0,0.0,0.0,0.0,0.0,0.0,0.0,0.0,0.0,0.0,0.0,0.0,0.0,0.0,0.0,0.0,0.0,0.0,0.0,0.0,0.0,0.0,0.0,0.0,0.0,0.0,0.0,0.0,0.0,0.0,0.0,0.0,0.0,0.0,0.0,0.0,0.0,0.0,0.0,0.0,0.0,0.0,0.0,0.0,0.0,0.0,0.0,0.0,0.0,0.0,0.0,0.0,0.0,0.0,0.0,0.0,0.0,0.0,0.0,0.0,0.0,0.0,0.0,0.0,0.0,0.0,0.0,0.0,0.0,0.0,0.0,0.0,0.0,0.0,0.0,0.0,0.0,0.0,0.0,0.0,0.0,0.0,0.0,0.0,0.0,0.0,0.0,0.0,0.0,0.0,0.0,0.0,0.0,0.0,0.0,0.0,0.0,0.0,0.0,0.0,0.0,0.0,0.0,0.0,0.0,0.0,0.0,0.0,0.0,0.0,0.0,0.0,0.0,0.0,0.0,0.0,0.0,0.0,0.0,0.0,0.0,0.0,0.0,0.0,0.0,0.0,0.0,0.0,0.0,0.0,0.0,0.0,0.0,0.0,0.0,0.0,0.0,0.0,0.0,0.0,0.0,0.0,0.0,0.0,0.0,0.0,0.0,0.0,0.0,0.0,0.0,0.0,0.0,0.0,0.0,0.0,0.0,0.0,0.0,0.0,0.0,0.0,0.0,0.0,0.0,0.0,0.0,0.0,0.0,0.0,0.0,0.0,0.0,0.0,0.0,0.0,0.0,0.0,0.0,0.0,0.0,0.0,0.0,0.0,0.0,0.0,0.0,0.0,0.0,0.0,0.0,0.0,0.0,0.0,0.0,0.0,0.0,0.0,0.0,0.0,0.0,0.0,0.0,0.0,0.0,0.0,0.0,0.0,0.0,0.0,0.0,0.0,0.0,0.0,0.0,0.0,0.0,0.0,0.0,0.0,0.0,0.0,0.0,0.0,0.0,0.0,0.0,0.0,0.0,0.0,0.0,0.0,0.0,0.0,0.0,0.0,0.0,0.0,0.0,0.0,0.0,0.0,0.0,0.0,0.0,0.0,0.0,0.0,0.0,0.0,0.0,0.0,0.0,0.0,0.0,0.0,0.0,0.0,0.0,0.0,0.0,0.0,0.0,0.0,0.0,0.0,0.0,0.0,0.0,0.0,0.0,0.0,0.0,0.0,0.0,0.0,0.0,0.0,0.0,0.0,0.0,0.0,0.0,0.0,0.0,0.0,0.0,0.0,0.0,0.0,0.0,0.0,0.0,0.0,0.0,0.0,0.0,0.0,0.0,0.0,0.0,0.0,0.0,0.0,0.0,0.0,0.0,0.0,0.0,0.0,0.0,0.0,0.0,0.0,0.0,0.0,0.0,0.0,0.0,0.0,0.0,0.0,0.0,0.0,0.0,0.0,0.0,0.0,0.0,0.0,0.0,0.0,0.0,0.0,0.0,0.0,0.0,0.0,0.0,0.0,0.0,0.0,0.0,0.0,0.0,0.0,0.0,0.0,0.0,0.0,0.0,0.0,0.0,0.0,0.0,0.0,0.0,0.0,0.0,0.0,0.0,0.0,0.0,0.0,0.0,0.0,0.0,0.0,0.0,0.0,0.0,0.0,0.0,0.0,0.0,0.0,0.0,0.0,0.0,0.0,0.0,0.0,0.0,0.0,0.0,0.0,0.0,0.0,0.0,0.0,0.0,0.0,0.0,0.0,0.0,0.0,0.0,0.0,0.0,0.0,0.0,0.0,0.0,0.0,0.0,0.0,0.0,0.0,0.0,0.0,0.0,0.0,0.0,0.0,0.0,0.0,0.0,0.0,0.0,0.0,0.0,0.0,0.0,0.0,0.0,0.0,0.0,0.0,0.0,0.0,0.0,0.0,0.0,0.0,0.0,0.0,0.0,0.0,0.0,0.0,0.0,0.0,0.0,0.0,0.0,0.0,0.0,0.0,0.0,0.0,0.0,0.0,0.0,0.0,0.0,0.0,0.0,0.0,0.0,0.0,0.0,0.0,0.0,0.0,0.0,0.0,0.0,0.0,0.0,0.0,0.0,0.0,0.0,0.0,0.0,0.0,0.0,0.0,0.0,0.0,0.0,0.0,0.0,0.0,0.0,0.0,0.0,0.0,0.0,0.0,0.0,0.0,0.0,0.0,0.0,0.0,0.0,0.0,0.0,0.0,0.0,0.0,0.0,0.0,0.0,0.0,0.0,0.0,0.0,0.0,0.0,0.0,0.0,0.0,0.0,0.0,0.0,0.0,0.0,0.0,0.0,0.0,0.0,0.0,0.0,0.0,0.0,0.0,0.0,0.0,0.0,0.0,0.0,0.0,0.0,0.0,0.0,0.0,0.0,0.0,0.0,0.0,0.0,0.0,0.0,0.0,0.0,0.0,0.0,0.0,0.0,0.0,0.0,0.0,0.0,0.0,0.0,0.0,0.0,0.0,0.0,0.0,0.0,0.0,0.0,0.0,0.0,0.0,0.0,0.0,0.0,0.0,0.0,0.0,0.0,0.0,0.0,0.0,0.0,0.0,0.0,0.0,0.0,0.0,0.0,0.0,0.0,0.0,0.0,0.0,0.0,0.0,0.0,0.0,0.0,0.0,0.0,0.0,0.0,0.0,0.0,0.0,0.0,0.0,0.0,0.0,0.0,0.0,0.0,0.0,0.0,0.0,0.0,0.0,0.0,0.0,0.0,0.0,0.0,0.0,0.0,0.0,0.0,0.0,0.0,0.0,0.0,0.0,0.0,0.0,0.0,0.0,0.0,0.0,0.0,0.0,0.0,0.0,0.0,0.0,0.0,0.0,0.0,0.0,0.0,0.0,0.0,0.0,0.0,0.0,0.0,0.0,0.0,0.0,0.0,0.0,0.0,0.0,0.0,0.0,0.0,0.0,0.0,0.0,0.0,0.0,0.0,0.0,0.0,0.0,0.0,0.0,0.0,0.0,0.0,0.0,0.0,0.0,0.0,0.0,0.0,0.0,0.0,0.0,0.0,0.0,0.0,0.0,0.0,0.0,0.0,0.0,0.0,0.0,0.0,0.0,0.0,0.0,0.0,0.0,0.0,0.0,0.0,0.0,0.0,0.0,0.0,0.0,0.0,0.0,0.0,0.0,0.0,0.0,0.0,0.0,0.0,0.0,0.0,0.0,0.0,0.0,0.0,0.0,0.0,0.0,0.0,0.0,0.0,0.0,0.0,0.0,0.0,0.0,0.0,0.0,0.0,0.0,0.0,0.0,0.0,0.0,0.0,0.0,0.0,0.0,0.0,0.0,0.0,0.0,0.0,0.0,0.0,0.0,0.0,0.0,0.0,0.0,0.0,0.0,0.0,0.0,0.0,0.0,0.0,0.0,0.0,0.0,0.0,0.0,0.0,0.0,0.0,0.0,0.0,0.0,0.0,0.0,0.0,0.0,0.0,0.0,0.0,0.0,0.0,0.0,0.0,0.0,0.0,0.0,0.0,0.0,0.0,0.0,0.0,0.0,0.0,0.0,0.0,0.0,0.0,0.0,0.0,0.0,0.0,0.0,0.0,0.0,0.0,0.0,0.0,0.0,0.0,0.0,0.0,0.0,0.0,0.0,0.0,0.0,0.0,0.0,0.0,0.0,0.0,0.0,0.0,0.0,0.0,0.0,0.0,0.0,0.0,0.0,0.0,0.0,0.0,0.0,0.0,0.0,0.0,0.0,0.0,0.0,0.0,0.0,0.0,0.0,0.0,0.0,0.0,0.0,0.0,0.0,0.0,0.0,0.0,0.0,0.0,0.0,0.0,0.0,0.0,0.0,0.0,0.0,0.0,0.0,0.0,0.0,0.0,0.0,0.0,0.0,0.0,0.0,0.0,0.0,0.0,0.0,0.0,0.0,0.0,0.0,0.0,0.0,0.0,0.0,0.0,0.0,0.0,0.0,0.0,0.0,0.0,0.0,0.0,0.0,0.0,0.0,0.0,0.0,0.0,0.0,0.0,0.0,0.0,0.0,0.0,0.0,0.0,0.0,0.0,0.0,0.0,0.0,0.0,0.0,0.0,0.0,0.0,0.0,0.0,0.0,0.0,0.0,0.0,0.0,0.0,0.0,0.0,0.0,0.0,0.0,0.0,0.0,0.0,0.0,0.0,0.0,0.0,0.0,0.0,0.0,0.0,0.0,0.0,0.0,0.0,0.0,0.0,0.0,0.0,0.0,0.0,0.0,0.0,0.0,0.0,0.0,0.0,0.0,0.0,0.0,0.0,0.0,0.0,0.0,0.0,0.0,0.0,0.0,0.0,0.0,0.0,0.0,0.0,0.0,0.0,0.0,0.0,0.0,0.0,0.0,0.0,0.0,0.0,0.0,0.0,0.0,0.0,0.0,0.0,0.0,0.0,0.0,0.0,0.0,0.0,0.0,0.0,0.0,0.0,0.0,0.0,0.0,0.0,0.0,0.0,0.0,0.0,0.0,0.0,0.0,0.0,0.0,0.0,0.0,0.0,0.0,0.0,0.0,0.0,0.0,0.0,0.0,0.0,0.0,0.0,0.0,0.0,0.0,0.0,0.0,0.0,0.0,0.0,0.0,0.0,0.0,0.0,0.0,0.0,0.0,0.0,0.0,0.0,0.0,0.0,0.0,0.0,0.0,0.0,0.0,0.0,0.0,0.0,0.0,0.0,0.0,0.0,0.0,0.0,0.0,0.0,0.0,0.0,0.0,0.0,0.0,0.0,0.0,0.0,0.0,0.0,0.0,0.0,0.0,0.0,0.0,0.0,0.0,0.0,0.0,0.0,0.0,0.0,0.0,0.0,0.0,0.0,0.0,0.0,0.0,0.0,0.0,0.0,0.0,0.0,0.0,0.0,0.0,0.0,0.0,0.0,0.0,0.0,0.0,0.0,0.0,0.0,0.0,0.0,0.0,0.0,0.0,0.0,0.0,0.0,0.0,0.0,0.0,0.0,0.0,0.0,0.0,0.0,0.0,0.0,0.0,0.0,0.0,0.0,0.0,0.0,0.0,0.0,0.0,0.0,0.0,0.0,0.0,0.0,0.0,0.0,0.0,0.0,0.0,0.0,0.0,0.0,0.0,0.0,0.0,0.0,0.0,0.0,0.0,0.0,0.0,0.0,0.0,0.0,0.0,0.0,0.0,0.0,0.0,0.0,0.0,0.0,0.0,0.0,0.0,0.0,0.0,0.0,0.0,0.0,0.0,0.0,0.0,0.0,0.0,0.0,0.0,0.0,0.0,0.0,0.0,0.0,0.0,0.0,0.0,0.0,0.0,0.0,0.0,0.0,0.0,0.0,0.0,0.0,0.0,0.0,0.0,0.0,0.0,0.0,0.0,0.0,0.0,0.0,0.0,0.0,0.0,0.0,0.0,0.0,0.0,0.0,0.0,0.0,0.0,0.0,0.0,0.0,0.0,0.0,0.0,0.0,0.0,0.0,0.0,0.0,0.0,0.0,0.0,0.0,0.0,0.0,0.0,0.0,0.0,0.0,0.0,0.0,0.0,0.0,0.0,0.0,0.0,0.0,0.0,0.0,0.0,0.0,0.0,0.0,0.0,0.0,0.0,0.0,0.0,0.0,0.0,0.0,0.0,0.0,0.0,0.0,0.0,0.0,0.0,0.0,0.0,0.0,0.0,0.0,0.0,0.0,0.0,0.0,0.0,0.0,0.0,0.0,0.0,0.0,0.0,0.0,0.0,0.0,0.0,0.0,0.0,0.0,0.0,0.0,0.0,0.0,0.0,0.0,0.0,0.0,0.0,0.0,0.0,0.0,0.0,0.0,0.0,0.0,0.0,0.0,0.0,0.0,0.0,0.0,0.0,0.0,0.0,0.0,0.7732,0.8647,0.0,0.0,0.0,0.0,0.0,0.0,0.0,0.0,0.0,0.0,0.0,0.0,0.0,0.0,0.0,0.0,0.0,0.0,0.0,0.0,0.0,0.0,0.0,-0.34,-0.3267,-0.3248,-0.3304,0.0,0.0,0.0,0.0,0.0,0.0,0.0,0.0,0.0,0.0,-0.1784,-0.2093,-0.2457,-0.2835,-0.1554,-0.0644,-0.0052,0.0,0.0,0.0,0.0,0.0,0.0,0.0,0.0,0.0,0.0,0.0,0.0,0.0,0.0,0.0,0.0,0.0,0.0,0.0,0.0,0.0,0.0,0.0,0.0,0.0,0.0,0.0,0.0,0.0,0.0,0.0,0.0,0.0,0.0,0.0,0.0,0.0,0.0,0.0,0.0,0.0,0.0,0.0,0.0,0.0,0.0,0.0,0.0,0.0,0.0,0.0,0.0,0.0,0.0,0.0,0.0,0.0,0.0,0.0,0.0,0.0,0.0,0.0,0.0,0.0,0.0,0.0,0.0,0.0,0.0,0.6771,0.7308,0.0,0.0,0.0,0.0,0.0,0.0,0.0,0.0,0.0,0.0,0.0,0.0,0.0,0.0,0.0,0.0,0.0,0.0,0.0,0.0,0.0,-0.4482,-0.4534,-0.4248,-0.3998,-0.3848,-0.3885,-0.3861,-0.3725,-0.3612,0.0,0.0,0.0,0.0,-0.3848,-0.3848,-0.3515,-0.2837,-0.3655,-0.4068,-0.4068,-0.4031,-0.3488,-0.2459,-0.0789,0.0,0.0,0.0,0.0,0.0,0.0,0.0,0.0,0.0,0.0,0.0,0.0,0.0,0.0,0.0,0.0,0.0,0.0,0.0,0.0,0.0,0.0,0.0,0.0,0.0,0.0,0.0,0.0,0.0,0.0,0.0,0.0,0.0,0.0,0.0,0.0,0.0,0.0,0.0,0.0,0.0,0.0,0.0,0.0,0.0,0.0,0.0,0.0,0.0,0.0,0.0,0.0,0.0,0.0,0.0,0.0,0.0,0.0,0.0,0.0,0.0,0.0,0.0,0.5357,0.5326,0.5326,0.5326,0.5336,0.5332,0.5325,0.5432,0.5672,0.6616,0.0,0.0,0.0,0.0,0.0,0.0,0.0,0.0,0.0,0.0,0.0,0.0,0.0,0.0,0.0,0.0,0.0,0.0,0.0,-0.5188,-0.5476,-0.5471,-0.5471,-0.5565,-0.5576,-0.5647,-0.5789,-0.5205,-0.4932,0.0,0.0,-0.4279,-0.4486,-0.4486,-0.4521,-0.4578,-0.5201,-0.5513,-0.5513,-0.5344,-0.5181,-0.4935,-0.274,-0.1382,-0.0674,0.0,0.0,0.0,0.0,0.0,0.0,0.0,0.0,0.0,0.0,0.0,0.0,0.0,0.0,0.0,0.0,0.0,0.0,0.0,0.0,0.0,0.0,0.0,0.0,0.0,0.0,0.0,0.0,0.0,0.0,0.0,0.0,0.0,0.0,0.0,0.0,0.0,0.0,0.0,0.0,0.0,0.1342,0.0952,0.0,0.0,0.0,0.0,0.0,0.0,0.0,0.0,0.0,0.0,0.0,0.0,0.0,0.3447,0.3779,0.3447,0.3521,0.3972,0.3559,0.3408,0.3468,0.3468,0.3448,0.3457,0.3448,0.0,0.6038,0.6192,0.0,0.0,0.0,0.0,0.0,0.0,0.0,0.0,0.0,0.0,0.0,0.0,0.0,0.0,0.0,0.0,0.0,0.0,0.0,0.0,0.0,-0.6421,-0.6538,-0.6112,-0.6138,-0.6179,-0.6193,-0.6083,-0.6077,-0.6242,-0.6049,-0.5996,-0.617,-0.6176,-0.6214,-0.6315,-0.6108,-0.6253,-0.6702,-0.6612,-0.6239,-0.5619,-0.4619,-0.3356,-0.1937,-0.1443,0.0,0.0,0.0,0.0,0.0,0.0,0.0,0.0,0.0,0.0,0.0,0.0,0.0,0.0,0.0,0.0,0.0,0.0,0.0,0.0,0.0,0.0,0.0,0.0,0.0,0.0,0.0,0.0,0.0,0.0,0.0,0.0,0.0,0.0,0.0,0.0,0.0,0.0,0.0,0.0981,0.0735,0.0525,0.0722,0.0791,0.0,0.0,0.0,0.0,0.0,0.0,0.0,0.0,0.0,0.1621,0.2043,0.2388,0.2597,0.2877,0.312,0.3373,0.3155,0.3093,0.315,0.315,0.315,0.315,0.315,0.3655,0.4518,0.4995,0.5565,0.6173,0.0,0.0,0.0,0.0,0.6802,0.6606,0.0,0.0,0.0,0.0,0.0,0.0,0.0,0.0,0.0,0.0,0.0,0.0,-0.684,-0.7362,-0.7442,-0.6655,-0.6671,-0.6775,-0.6879,-0.6952,-0.713,-0.7459,-0.7536,-0.7629,-0.7736,-0.7822,-0.7827,-0.7701,-0.7035,-0.7014,-0.7596,-0.7554,-0.7105,-0.6346,-0.6346,-0.5162,-0.3148,-0.2998,-0.2372,-0.1449,0.0,0.0,0.0,0.0,0.0,0.0,0.0,0.0,0.0,0.0,0.0,0.0,0.0,0.0,0.0,0.0,0.0,0.0,0.0,0.0,0.0,0.0,0.0,0.0,0.0,0.0,0.0,0.0,0.0,0.0,0.0,0.0,0.0,0.0,0.0,0.0,0.0,0.0128,0.0021,0.0021,0.0065,0.0088,0.0,0.0,0.0,0.0,0.0,0.0,0.041,0.0395,0.047,0.0657,0.1196,0.1473,0.1473,0.2103,0.244,0.2462,0.2713,0.2864,0.2918,0.315,0.3252,0.3252,0.3252,0.3252,0.3293,0.3905,0.4379,0.4819,0.5497,0.5914,0.6103,0.5844,0.5637,0.5439,0.0,0.0,0.0,0.0,0.0,0.0,0.0,0.0,0.0,0.0,0.0,-0.8204,-0.8361,-0.842,-0.8222,-0.7672,-0.7632,-0.7953,-0.8722,-0.8133,-0.812,-0.8948,-0.8759,-0.8619,-0.8632,-0.8999,-0.8995,-0.8544,-0.8243,-0.8126,-0.8155,-0.7958,-0.7856,-0.7782,-0.7782,-0.6421,-0.413,-0.411,-0.3566,-0.2708,-0.2702,0.0,0.0,0.0,0.0,0.0,0.0,0.0,0.0,0.0,0.0,0.0,0.0,0.0,0.0,0.0,0.0,0.0,0.0,0.0,0.0,0.0,0.0,0.0,0.0,0.0,0.0,0.0,0.0,0.0,0.0,0.0,0.0,0.0,0.0,0.0,0.0,0.0,0.0,-0.1296,-0.1297,0.0,0.0,0.0,0.0,-0.14,-0.1379,-0.1094,-0.038,-0.0412,-0.0122,0.0586,0.0572,0.0578,0.0578,0.0603,0.066,0.0749,0.1628,0.2089,0.2178,0.3003,0.3377,0.3377,0.3377,0.3377,0.339,0.3235,0.3744,0.4606,0.4589,0.5119,0.5803,0.4907,0.4576,0.4439,0.0,0.0,0.0,0.0,0.0,0.0,-0.7652,-0.8074,-0.8373,-0.827,-0.8904,-0.9229,-0.886,-0.9397,-0.9538,-0.8913,-0.9337,-0.9743,-1.0031,-1.0003,-1.0033,-1.0121,-0.9948,-0.9761,-0.9533,-0.9681,-0.9668,-0.9493,-0.9406,-0.9209,-0.8903,-0.8845,-0.8552,-0.8091,-0.8091,-0.7519,-0.6526,-0.5762,-0.4846,-0.3885,-0.3105,-0.2551,0.0,0.0,0.0,0.0,0.0,0.0,0.0,0.0,0.0,0.0,0.0,0.0,0.0,0.0,0.0,0.0,0.0,0.0,0.0,0.0,0.0,0.0,0.0,0.0,0.0,0.0,0.0,0.0,0.0,0.0,0.0,0.0,0.0,0.0,0.0,0.0,0.0,-0.2424,-0.2477,0.0,-0.252,-0.2599,-0.2651,-0.267,-0.2701,-0.2446,-0.178,-0.2188,-0.2147,-0.1552,-0.1421,-0.1415,-0.1484,-0.0944,-0.0435,0.0028,-0.0083,0.0363,0.125,0.1137,0.1563,0.236,0.236,0.2616,0.3009,0.2895,0.3233,0.3824,0.3751,0.3924,0.4175,0.3848,0.3723,0.3682,0.0,0.0,0.0,0.0,0.0,0.0,-0.843,-0.8963,-0.9339,-0.9166,-0.9859,-1.0196,-0.9767,-1.039,-1.0634,-1.0147,-1.0677,-1.1116,-1.1328,-1.1449,-1.1439,-1.1346,-1.1208,-1.091,-1.046,-1.0746,-1.0722,-1.0342,-1.0342,-1.006,-0.9537,-0.9537,-0.9275,-0.8793,-0.8675,-0.8543,-0.8296,-0.7324,-0.6242,-0.5127,-0.4331,-0.3831,-0.3431,0.0,0.0,0.0,0.0,0.0,0.0,0.0,0.0,0.0,0.0,0.0,0.0,0.0,0.0,0.0,0.0,0.0,0.0,0.0,0.0,0.0,0.0,0.0,0.0,0.0,0.0,0.0,0.0,0.0,0.0,0.0,0.0,0.0,0.0,-0.2774,-0.3019,-0.3084,-0.315,-0.3192,-0.3234,-0.3323,-0.3369,-0.3411,-0.3449,-0.3324,-0.2957,-0.3353,-0.3431,-0.3089,-0.2971,-0.2956,-0.3046,-0.2474,-0.1944,-0.1503,-0.1646,-0.122,-0.0323,-0.047,0.0206,0.147,0.147,0.1971,0.2794,0.2766,0.2928,0.3193,0.3095,0.3066,0.3066,0.3066,0.3066,0.307,0.0,0.0,0.0,0.0,0.0,0.0,-0.8453,-0.9564,-1.0415,-1.043,-1.0831,-1.1122,-1.1136,-1.1385,-1.1502,-1.138,-1.1621,-1.2036,-1.2633,-1.2361,-1.2308,-1.2632,-1.2514,-1.2094,-1.1377,-1.2247,-1.2174,-1.1068,-1.1068,-1.0722,-1.006,-1.006,-1.0038,-0.9982,-0.9669,-0.9451,-0.9292,-0.8747,-0.7743,-0.6489,-0.6416,-0.5863,-0.491,0.0,0.0,0.0,0.0,0.0,0.0,0.0,0.0,0.0,0.0,0.0,0.0,0.0,0.0,0.0,0.0,0.0,0.0,0.0,0.0,0.0,0.0,0.0,0.0,0.0,0.0,0.0,0.0,0.0,0.0,0.0,0.0,0.0,-0.3103,-0.3034,-0.3128,-0.3329,-0.3346,-0.3421,-0.3546,-0.3558,-0.3587,-0.3657,-0.3668,-0.3724,-0.3815,-0.3848,-0.3854,-0.3828,-0.3911,-0.3971,-0.3974,-0.3974,-0.3945,-0.3915,-0.3031,-0.2588,-0.2529,-0.1705,-0.0588,0.0677,0.0677,0.1443,0.2653,0.2682,0.2712,0.2702,0.2646,0.2614,0.2614,0.2614,0.2614,0.2614,0.0,0.0,0.0,0.0,0.0,-0.9089,-0.9427,-1.0095,-1.0666,-1.1013,-1.1284,-1.1538,-1.1738,-1.2258,-1.2662,-1.2884,-1.3407,-1.3889,-1.4225,-1.4002,-1.3756,-1.3541,-1.3257,-1.3033,-1.2822,-1.3087,-1.3039,-1.2753,-1.2753,-1.2207,-1.1219,-1.1219,-1.0787,-0.9994,-0.9898,-0.9854,-0.9786,-0.9292,-0.891,-0.8513,-0.7008,-0.6239,-0.5908,0.0,0.0,0.0,0.0,0.0,0.0,0.0,0.0,0.0,0.0,0.0,0.0,0.0,0.0,0.0,0.0,0.0,0.0,0.0,0.0,0.0,0.0,0.0,0.0,0.0,0.0,0.0,0.0,0.0,0.0,0.0,-0.4346,-0.427,-0.3785,-0.4051,-0.4367,-0.459,-0.4635,-0.474,-0.4873,-0.4937,-0.4959,-0.4979,-0.5011,-0.4883,-0.4557,-0.4897,-0.4936,-0.4608,-0.5044,-0.5294,-0.5354,-0.5354,-0.5111,-0.4622,-0.4865,-0.4471,-0.3527,-0.3767,-0.3191,-0.1945,-0.1945,-0.1459,-0.0608,0.0365,0.0761,0.091,0.2235,0.2759,0.2759,0.2759,0.2759,0.2701,0.0,0.0,0.0,0.0,0.0,-0.9844,-1.0261,-1.0762,-1.1202,-1.1466,-1.1569,-1.1693,-1.1967,-1.2597,-1.3199,-1.3671,-1.4184,-1.4702,-1.5167,-1.5043,-1.4636,-1.394,-1.4116,-1.411,-1.3836,-1.4089,-1.4089,-1.3815,-1.3815,-1.3229,-1.2131,-1.2131,-1.1685,-1.0862,-1.0728,-1.0638,-1.055,-1.0143,-0.9972,-0.9899,-0.8683,-0.7878,-0.7284,-0.6174,-0.5487,-0.5003,-0.4184,-0.3649,-0.3269,-0.3001,0.0,0.0,0.0,0.0,0.0,0.0,0.0,0.0,0.0,0.0,0.0,0.0,0.0,0.0,0.0,0.0,0.0,0.0,0.0,0.0,0.0,0.0,0.0,0.0,-0.5947,-0.5961,-0.5794,-0.563,-0.563,-0.5873,-0.5927,-0.5837,-0.5512,-0.5508,-0.5553,-0.5618,-0.5671,-0.5568,-0.5279,-0.5548,-0.5602,-0.5324,-0.5657,-0.5863,-0.5886,-0.5886,-0.5702,-0.5329,-0.5702,-0.5486,-0.4745,-0.5145,-0.4619,-0.3384,-0.3384,-0.2862,-0.1939,-0.117,-0.0832,-0.0615,0.0,0.0,0.0,0.0,0.2462,0.2432,0.0,0.0,0.0,0.0,0.0,-1.0355,-1.075,-1.1325,-1.1733,-1.1815,-1.1686,-1.1722,-1.2085,-1.2684,-1.3331,-1.3993,-1.4354,-1.485,-1.5486,-1.5617,-1.5207,-1.4204,-1.5091,-1.5306,-1.4664,-1.5285,-1.5306,-1.4664,-1.4706,-1.4156,-1.3067,-1.3113,-1.2833,-1.2296,-1.1997,-1.1741,-1.1543,-1.1142,-1.0924,-1.0827,-1.0732,-1.0026,-0.8873,-0.7618,-0.7094,-0.6799,-0.4992,-0.4324,-0.4167,-0.356,0.0,0.0,0.0,0.0,0.0,0.0,0.0,0.0,0.0,0.0,0.0,0.0,0.0,0.0,0.0,0.0,0.0,0.0,0.0,0.0,0.0,0.0,0.0,0.0,-0.7748,-0.8072,-0.8372,-0.7656,-0.7122,-0.7191,-0.7086,-0.67,-0.5869,-0.5705,-0.5679,-0.579,-0.5798,-0.5831,-0.5882,-0.5886,0.0,0.0,0.0,-0.5886,-0.5886,-0.5886,-0.5886,-0.5886,-0.5886,-0.5886,-0.5886,-0.5886,-0.5268,-0.4122,-0.4122,-0.3477,-0.2431,-0.2278,-0.2124,-0.1755,0.0771,0.1759,0.179,0.1946,0.2008,0.2008,0.0,0.0,0.0,0.0,0.0,-0.9432,-1.0148,-1.0714,-1.1294,-1.1866,-1.1749,-1.1914,-1.2714,-1.317,-1.3667,-1.433,-1.4705,-1.4988,-1.5172,-1.5748,-1.5987,-1.5753,-1.6521,-1.6724,-1.6257,-1.6708,-1.6708,-1.6257,-1.6583,-1.6258,-1.5376,-1.5692,-1.5051,-1.3624,-1.3551,-1.3167,-1.2499,-1.184,-1.1622,-1.1698,-1.0974,-1.0556,-1.0255,-0.9575,-0.8928,-0.8321,-0.7489,-0.6862,-0.638,-0.6264,-0.5774,-0.5237,-0.5237,-0.4535,0.0,0.0,0.0,0.0,0.0,0.0,0.0,0.0,0.0,0.0,0.0,0.0,0.0,0.0,0.0,0.0,0.0,0.0,0.0,-0.8021,-0.8183,-0.8671,-0.9684,-1.0048,-0.9779,-0.8519,-0.7646,-0.713,-0.7054,-0.6315,-0.5841,-0.5888,-0.5892,-0.59,-0.5886,-0.5886,-0.5886,-0.5886,-0.5886,-0.5886,-0.5886,-0.5886,-0.5886,-0.5886,-0.5886,0.0,-0.5886,-0.5886,-0.5763,-0.5513,-0.5513,-0.536,-0.5053,-0.3968,-0.2923,-0.1847,-0.0246,0.0401,0.0524,0.1605,0.2008,0.2008,0.0,0.0,0.0,0.0,0.0,-0.9634,-1.0656,-1.1202,-1.1676,-1.2176,-1.2476,-1.2837,-1.3299,-1.4128,-1.477,-1.5069,-1.5447,-1.5421,-1.488,-1.5886,-1.6343,-1.5971,-1.6819,-1.7101,-1.6705,-1.7085,-1.7101,-1.6689,-1.7297,-1.7271,-1.6594,-1.6629,-1.6061,-1.4974,-1.4394,-1.3849,-1.3328,-1.295,-1.2699,-1.2516,-1.2069,-1.1844,-1.165,-1.0683,-1.0065,-0.9676,-0.9017,-0.8575,-0.8248,-0.7874,-0.7476,-0.7148,-0.7148,-0.672,-0.6273,0.0,0.0,0.0,0.0,0.0,0.0,0.0,0.0,0.0,0.0,0.0,0.0,0.0,0.0,-0.9257,-0.9287,0.0,-1.0484,-1.0544,-1.0754,-1.1099,-1.1724,-1.2158,-1.1793,-1.0202,-0.9813,-0.9533,-0.9145,-0.8641,-0.8221,-0.7861,-0.7373,-0.698,-0.6679,-0.6162,-0.5906,-0.5955,-0.5955,-0.5975,-0.6047,-0.5975,-0.5955,-0.5955,-0.591,-0.5886,-0.5886,-0.5886,-0.5886,-0.5886,-0.5886,-0.5886,-0.5855,-0.5172,-0.4524,-0.3817,-0.2462,-0.1139,0.0154,0.1513,0.2008,0.2008,0.0,0.0,0.0,0.0,0.0,-0.9888,-1.1015,-1.151,-1.1876,-1.2198,-1.2945,-1.3486,-1.3684,-1.4893,-1.5733,-1.5816,-1.5989,-1.5737,-1.4896,-1.6086,-1.6552,-1.5966,-1.7053,-1.7453,-1.6971,-1.7437,-1.7437,-1.6955,-1.7684,-1.79,-1.7652,-1.7445,-1.7001,-1.6354,-1.5438,-1.467,-1.4115,-1.4059,-1.3751,-1.3268,-1.325,-1.3062,-1.2668,-1.1586,-1.1071,-1.0861,-1.0164,-0.9921,-0.9827,-0.9232,-0.8926,-0.8785,-0.8785,-0.869,-0.8596,-0.8738,-0.8785,0.0,0.0,0.0,0.0,0.0,0.0,0.0,0.0,-0.9608,-0.9812,-0.9812,-1.0678,-1.1451,-1.1451,-1.2303,-1.3012,-1.3012,-1.3269,-1.3458,-1.3458,-1.3699,-1.3375,-1.2097,-1.2097,-1.1908,-1.1147,-1.0899,-1.0574,-1.0044,-0.9275,-0.85,-0.7741,-0.7002,-0.6465,-0.6265,-0.6174,-0.6176,-0.631,-0.6112,-0.6044,-0.6044,-0.5971,-0.597,-0.597,-0.597,-0.597,-0.597,-0.5918,-0.5914,-0.591,-0.5894,-0.5886,-0.5763,-0.4432,-0.2616,-0.0585,0.074,0.1389,0.1605,0.0,0.0,0.0,0.0,0.0,0.0,-0.9943,-1.0317,-1.0695,-1.1278,-1.194,-1.2717,-1.3592,-1.4642,-1.5536,-1.6182,-1.5679,-1.5429,-1.5646,-1.6431,-1.6856,-1.6767,-1.8199,-1.8621,-1.7867,-1.8587,-1.8625,-1.785,-1.8298,-1.8765,-1.9262,-1.952,-1.8975,-1.7775,-1.7645,-1.6582,-1.4858,-1.4695,-1.4301,-1.3801,-1.3816,-1.3393,-1.2807,-1.2826,-1.2418,-1.1778,-1.122,-1.1025,-1.1001,-1.0928,-1.0431,-0.9836,-0.9836,-0.9339,-0.8898,-0.9616,-0.9836,-0.9894,-1.0129,-0.967,-0.9332,-1.0262,-1.0348,-1.0441,0.0,-1.1751,-1.1953,-1.1953,-1.2362,-1.27,-1.27,-1.3041,-1.3325,-1.3325,-1.3524,-1.3685,-1.3685,-1.4143,-1.4421,-1.4232,-1.3027,-1.2157,-1.2058,-1.1298,-1.0786,-1.0695,-1.0737,-1.0208,-0.8883,-0.8935,-0.8441,-0.7193,-0.681,-0.6626,-0.6635,-0.6334,-0.6166,-0.6166,-0.6157,-0.6149,-0.6149,-0.6149,-0.6149,-0.6145,-0.604,-0.5976,-0.5968,-0.5918,-0.5886,-0.5763,-0.4432,-0.3722,-0.3323,-0.2031,-0.0801,0.0216,0.0,0.0,0.0,0.0,0.0,0.0,0.0,-1.045,-1.0742,-1.1145,-1.2505,-1.3601,-1.4055,-1.5564,-1.657,-1.6634,-1.6164,-1.5832,-1.5788,-1.6489,-1.6899,-1.6899,-1.8151,-1.8682,-1.8357,-1.8909,-1.8926,-1.8357,-1.8935,-1.8993,-1.852,-1.8449,-1.7943,-1.7034,-1.6378,-1.5615,-1.483,-1.4751,-1.4401,-1.3897,-1.3906,-1.3615,-1.3219,-1.3292,-1.3147,-1.2807,-1.2443,-1.2322,0.0,-1.2322,-1.2068,-1.1765,-1.1678,-1.1399,-1.1223,-1.1668,-1.1806,-1.1855,-1.2131,-1.1951,-1.1792,-1.2222,-1.2348,-1.2501,-1.2924,-1.33,-1.3583,-1.3583,-1.3915,-1.4233,-1.4233,-1.4489,-1.4675,-1.4675,-1.4757,-1.4828,-1.4828,-1.5026,-1.5257,-1.5383,-1.4821,-1.434,-1.4192,-1.3949,-1.3653,-1.3259,-1.2908,-1.2306,-1.1307,-1.0871,-1.0379,-0.9826,-0.8834,-0.8356,-0.8394,-0.7392,-0.6909,-0.6909,-0.685,-0.6855,-0.6823,-0.6599,-0.6374,-0.621,-0.6141,-0.6129,-0.6125,-0.6309,-0.6355,-0.6324,-0.6001,-0.5875,-0.5576,-0.2973,-0.1631,-0.117,0.0,0.0,0.0,0.0,0.0,0.0,0.0,0.0,0.0,0.0,-1.2442,-1.3876,-1.4671,-1.5883,-1.6763,-1.7051,-1.6368,-1.5944,-1.5959,-1.6456,-1.6667,-1.6541,-1.7774,-1.8322,-1.8095,-1.8816,-1.9012,-1.86,-1.9264,-1.9188,-1.849,-1.8246,-1.7846,-1.7295,-1.6183,-1.5507,-1.5215,-1.4923,-1.4456,-1.3906,-1.398,-1.3711,-1.328,-1.3352,-1.3398,-1.337,-1.3245,-1.3219,-1.3219,-1.3219,-1.3219,-1.3171,-1.3026,-1.2977,-1.3056,-1.3262,-1.3376,-1.3442,-1.3549,-1.3646,-1.3722,-1.376,-1.39,-1.4003,-1.4094,-1.4411,-1.4673,-1.4673,-1.5034,-1.5314,-1.5314,-1.5454,-1.5601,-1.5601,-1.5601,-1.5601,-1.5601,-1.5655,-1.5793,-1.5985,-1.6041,-1.6009,-1.5817,-1.5976,-1.587,-1.5411,-1.4945,-1.4301,-1.3428,-1.2766,-1.2267,-1.1949,-1.0846,-1.0117,-0.9763,-0.8591,-0.7802,-0.7445,-0.7364,-0.7363,-0.733,-0.7038,-0.6779,-0.6547,-0.6554,-0.6541,-0.6537,-0.6772,-0.686,-0.6892,-0.7175,-0.7303,-0.6997,-0.4395,-0.324,-0.2896,0.0,0.0,0.0,0.0,0.0,0.0,0.0,0.0,0.0,0.0,-1.1024,-1.2767,-1.5383,-1.4957,-1.5304,-1.7318,-1.5991,-1.5417,-1.6318,-1.6336,-1.6119,-1.5669,-1.7183,-1.7624,-1.6776,-1.8347,-1.9012,-1.86,-1.9012,-1.9555,-2.0212,-2.0207,-2.0019,-1.9658,-1.8641,-1.757,-1.6475,-1.5506,-1.4637,-1.3919,-1.4172,-1.3661,-1.2746,-1.3008,-1.3113,-1.3144,-1.3394,-1.3485,-1.3485,-1.3485,-1.3485,-1.3485,-1.3472,-1.3472,-1.3542,-1.3817,-1.4061,-1.4182,-1.3893,-1.3986,-1.4223,-1.4422,-1.4486,-1.4551,-1.4805,-1.5024,-1.5167,-1.5167,-1.5389,-1.5591,-1.5591,-1.5591,-1.5601,-1.5601,-1.5601,-1.5601,-1.5601,-1.5825,-1.5996,-1.6007,-1.6161,-1.6301,-1.6291,-1.6301,-1.627,-1.627,-1.6485,-1.6012,-1.4632,-1.4715,-1.4166,-1.2824,-1.2397,-1.1541,-1.0207,-0.9763,-0.8834,-0.7488,-0.7483,-0.7483,-0.7483,-0.7483,-0.7483,-0.7445,-0.7407,-0.7365,-0.7355,-0.7315,-0.7271,-0.7271,-0.7303,-0.7303,-0.7271,-0.7171,-0.633,-0.5191,0.0,0.0,0.0,0.0,0.0,0.0,0.0,0.0,0.0,0.0,0.0,0.0,0.0,0.0,0.0,0.0,-1.5085,-1.5038,-1.5449,-1.5213,-1.5462,-1.6427,-1.617,-1.6632,-1.7941,-1.7957,-1.8287,-1.8994,-1.9132,-1.9001,-1.8627,-1.7948,-1.7364,-1.6842,-1.5829,-1.5279,-1.5045,-1.4716,-1.4316,-1.3909,-1.3991,-1.3705,-1.3259,-1.3516,-1.3635,-1.3684,0.0,-1.3919,-1.3762,-1.3762,-1.3762,-1.3738,-1.3569,-1.3635,-1.384,-1.4299,-1.4601,-1.479,-1.484,-1.4925,-1.5048,-1.5294,-1.5502,-1.5659,-1.5737,-1.5776,-1.5818,-1.5818,-1.5695,-1.5601,-1.5601,-1.5601,-1.5601,-1.5601,-1.5601,-1.5601,-1.5601,-1.5825,-1.6041,-1.6172,-1.6429,-1.6603,-1.6754,-1.6635,-1.658,-1.658,-1.6754,-1.669,-1.6207,-1.628,-1.6084,-1.5586,-1.4577,-1.3792,-1.3333,-1.2274,-1.1021,-0.9609,-0.8684,-0.8123,-0.7889,-0.7889,-0.776,-0.7488,-0.7488,-0.7474,-0.7469,-0.7728,-0.7845,-0.7845,-0.8075,-0.8174,-0.8174,-0.8174,-0.7873,-0.7416,0.0,0.0,0.0,0.0,0.0,0.0,0.0,0.0,0.0,0.0,0.0,0.0,0.0,0.0,0.0,0.0,0.0,-1.4502,-1.4889,-1.4479,-1.4665,-1.5646,-1.5411,-1.578,-1.6933,-1.7641,-1.8225,-1.8694,-1.9305,-1.9271,-1.8682,-1.8024,-1.7529,-1.7081,-1.572,-1.5209,-1.533,-1.4604,-1.4087,-1.3773,-1.387,-1.3665,-1.3376,-1.3641,-1.3821,0.0,-1.4099,-1.41,-1.4052,-1.4052,-1.4052,-1.4027,-1.3847,-1.4043,-1.4404,-1.4732,-1.5075,-1.5321,-1.5388,-1.5544,-1.5726,-1.5915,-1.6143,-1.6309,-1.6309,-1.6258,-1.6224,-1.6224,-1.6076,-1.5917,-1.5917,-1.5917,-1.5898,-1.5779,-1.5779,-1.575,-1.5631,-1.5871,-1.6171,-1.6291,-1.6592,-1.6872,-1.699,-1.6872,-1.6818,-1.6818,-1.6926,-1.7001,-1.7001,-1.7001,-1.7001,-1.7001,-1.6116,-1.5401,-1.4912,-1.3488,-1.1846,-0.9941,-0.9017,-0.849,-0.8289,-0.8289,-0.8123,-0.7889,-0.7889,-0.7889,-0.7927,-0.8156,-0.8289,-0.8289,-0.8523,-0.859,-0.859,-0.859,-0.859,-0.8524,0.0,0.0,0.0,0.0,0.0,0.0,0.0,0.0,0.0,0.0,0.0,0.0,0.0,0.0,0.0,0.0,0.0,0.0,-1.4675,-1.4171,-1.3751,-1.3547,-1.4795,-1.5048,-1.4064,-1.7313,-1.8562,-1.7699,-1.9357,-2.015,-2.0121,-2.0093,-2.007,-1.9979,-1.8018,-1.7156,-1.7016,-1.5116,-1.4002,-1.3533,-1.3809,-1.3569,-1.3135,-1.3412,-1.3676,-1.3894,-1.3918,-1.4087,-1.4292,-1.4292,-1.4292,-1.4304,-1.4328,-1.469,-1.511,-1.5165,-1.5523,-1.5869,-1.5579,-1.5863,-1.6258,-1.6252,-1.6395,-1.6537,-1.6537,-1.6537,-1.6537,-1.6537,-1.6508,-1.6508,-1.6508,-1.6508,-1.6419,-1.6176,-1.6116,-1.6016,-1.569,-1.6041,-1.6343,-1.6343,-1.6753,-1.7034,-1.7034,-1.7001,-1.7001,-1.7001,-1.7001,-1.7001,-1.7001,-1.7001,-1.7012,-1.7023,-1.7023,-1.6374,-1.5071,-1.3645,-1.1571,-0.8834,-0.8773,-0.8706,-0.8606,-0.8606,-0.8606,-0.8606,-0.8606,-0.8606,-0.8606,-0.8606,-0.86,-0.8595,-0.8595,-0.8595,-0.859,-0.859,-0.859,-0.8573,0.0,0.0,0.0,0.0,0.0,0.0,0.0,0.0,0.0,0.0,0.0,0.0,0.0,0.0,0.0,0.0,0.0,0.0,-1.3784,-1.3123,-1.3147,-1.4132,-1.3332,-1.3453,-1.4715,-1.5746,-1.6309,-1.6373,-1.7844,-1.8322,-1.7743,-1.7202,-1.6945,-1.6899,-1.5639,-1.5069,-1.5021,-1.4532,-1.4111,-1.3809,-1.3882,-1.3569,-1.3147,-1.3605,-1.3725,-1.3641,-1.4051,-1.4244,-1.4292,-1.4292,-1.4292,-1.4364,-1.4775,-1.4992,-1.5208,-1.5805,-1.6094,-1.627,-1.6581,-1.6756,-1.691,-1.713,-1.7196,-1.7244,-1.7244,-1.7038,-1.6873,-1.6873,-1.6655,-1.6508,-1.6508,-1.6508,-1.6478,-1.639,-1.639,-1.636,-1.6272,-1.671,-1.7055,-1.7055,-1.7241,-1.7368,-1.7368,-1.7141,-1.7001,-1.7001,-1.7001,-1.7001,-1.7001,-1.7001,-1.7087,-1.7281,-1.7314,-1.7202,-1.6995,-1.5577,-1.3942,-1.2078,-1.1029,-0.9948,-0.8827,-0.8827,-0.8827,-0.8827,-0.8827,-0.8827,-0.8827,-0.8827,-0.8807,-0.8759,-0.8759,-0.8699,-0.859,-0.859,-0.859,-0.8584,0.0,0.0,0.0,0.0,0.0,0.0,0.0,0.0,0.0,0.0,0.0,0.0,0.0,0.0,0.0,0.0,0.0,0.0,0.0,-1.256,-1.27,-1.3608,-1.3037,-1.3037,-1.3804,-1.4845,-1.53,-1.5125,-1.649,-1.7014,-1.6662,-1.6415,-1.6281,-1.6234,-1.5337,-1.4949,-1.4926,-1.4484,-1.4147,0.0,0.0,-1.3833,-1.3485,-1.3918,-1.3918,-1.3737,-1.4147,-1.4292,-1.4292,-1.4292,-1.4292,-1.4389,-1.4932,-1.5185,-1.5415,-1.6091,-1.648,-1.6734,-1.7008,-1.7177,-1.7298,-1.7443,-1.7508,-1.7508,-1.7508,-1.7344,-1.7226,-1.7226,-1.7067,-1.695,-1.695,-1.695,-1.6891,-1.6755,-1.6726,-1.6655,-1.6508,-1.6952,-1.7302,-1.7302,-1.7546,-1.7723,-1.7723,-1.755,-1.7433,-1.7413,-1.7163,-1.7055,-1.7163,-1.7173,-1.7281,-1.7518,-1.7529,-1.7281,-1.68,-1.5977,-1.4505,-1.2376,-1.1593,-1.0392,-0.8919,-0.8919,-0.8919,-0.8919,-0.8919,-0.8919,-0.8919,-0.8919,-0.8876,-0.8851,-0.8851,-0.8807,-0.8747,-0.8747,-0.8747,-0.8747,0.0,0.0,0.0,0.0,0.0,0.0,0.0,0.0,0.0,0.0,-1.0274,0.0,0.0,0.0,0.0,0.0,0.0,0.0,0.0,0.0,-1.2388,-1.2638,-1.3203,-1.3136,-1.2312,-1.4248,-1.4783,-1.3845,-1.5174,-1.583,-1.5866,-1.6205,-1.636,-1.6372,-1.5761,-1.5523,-1.5479,-1.4663,-1.4171,-1.3978,-1.4208,-1.4135,-1.393,0.0,-1.4135,-1.3942,-1.4208,-1.4292,-1.4292,-1.4292,-1.4328,-1.4437,-1.4944,-1.5318,-1.5656,-1.6199,-1.6706,-1.7092,-1.7129,-1.731,-1.7508,-1.7508,-1.7508,-1.7508,-1.7508,-1.7508,-1.7508,-1.7508,-1.7508,-1.7508,-1.7508,-1.7508,-1.7391,-1.7109,-1.7079,-1.6961,-1.6685,-1.7104,-1.7426,-1.7426,-1.7831,-1.8066,-1.8066,-1.8068,-1.802,-1.7972,-1.7522,-1.7293,-1.7443,-1.7421,-1.7529,-1.7766,-1.7764,-1.7198,-1.5997,-1.5962,-1.4585,-1.1856,-1.1856,-1.0963,-0.9277,-0.9277,-0.9137,-0.8962,-0.8962,-0.8962,-0.8962,-0.8962,-0.8957,-0.8941,-0.8941,-0.893,-0.8919,-0.8919,-0.8919,-0.8919,0.0,0.0,0.0,0.0,0.0,0.0,0.0,0.0,0.0,0.0,-0.9709,-1.0331,0.0,0.0,0.0,0.0,0.0,0.0,0.0,0.0,0.0,-1.2373,-1.2481,-1.2478,-1.2292,-1.3373,-1.3494,-1.2622,-1.379,-1.3905,-1.3008,-1.3293,-1.3548,-1.3755,-1.3872,-1.4015,-1.4236,-1.4279,-1.4268,-1.4232,-1.428,-1.4135,-1.393,-1.4195,0.0,0.0,-1.4208,-1.4292,-1.4292,-1.4292,-1.4449,-1.4702,-1.5004,-1.5439,-1.5934,-1.6477,-1.6851,-1.7141,-1.7358,-1.7443,-1.7508,-1.7508,-1.7508,-1.7508,-1.7508,-1.7508,-1.7508,-1.7508,-1.7508,-1.7508,-1.7508,-1.7508,-1.7479,-1.742,-1.742,-1.7391,-1.7332,-1.7799,-1.8134,-1.8134,-1.8348,-1.8507,-1.8507,-1.839,-1.8332,-1.83,-1.8438,-1.8251,-1.7692,-1.7658,-1.7776,-1.8024,-1.8172,-1.8165,-1.7921,-1.7921,-1.7037,-1.5343,-1.5343,-1.3853,-1.1119,-1.1119,-1.0447,-0.9242,-0.9242,-0.9242,-0.9242,-0.9242,-0.9152,-0.9065,-0.9065,-0.9006,-0.8919,-0.8919,-0.8919,-0.8919,0.0,0.0,0.0,0.0,0.0,0.0,0.0,-0.9633,-0.9614,-0.8799,-0.9122,-0.949,-0.9698,-1.0263,-1.0771,0.0,0.0,0.0,0.0,0.0,0.0,-1.2292,-1.2424,-1.2436,-1.2292,-1.271,-1.2695,-1.2249,0.0,-1.2682,-1.2262,-1.2414,-1.2557,-1.2689,-1.2954,-1.3157,-1.3302,-1.3713,-1.3894,-1.3918,-1.4183,-1.422,-1.4123,-1.4244,0.0,0.0,-1.4099,-1.4183,-1.4292,-1.4292,-1.4485,-1.4738,-1.5028,-1.5463,-1.5994,-1.6537,-1.6984,-1.7351,-1.7484,-1.7508,-1.7508,-1.7508,-1.7508,-1.7508,-1.7508,-1.7508,-1.7508,-1.7508,-1.7508,-1.7508,-1.7508,-1.7508,-1.7508,-1.7508,-1.7508,-1.7508,-1.7508,-1.795,-1.83,-1.83,-1.8632,-1.886,-1.886,-1.8924,-1.8928,-1.8858,-1.9125,-1.897,-1.8212,-1.8093,-1.8108,-1.8272,-1.8344,-1.8398,-1.8398,-1.8398,-1.765,-1.6195,-1.6195,-1.4583,-1.1586,-1.1586,-1.0767,-0.9302,-0.9302,-0.9302,-0.9302,-0.9302,-0.9269,-0.9184,-0.9184,-0.9152,-0.9098,-0.9098,-0.9098,-0.9098,0.0,0.0,0.0,0.0,0.0,0.0,0.0,-0.8979,-0.9093,-0.8275,-0.8332,-0.8428,-0.8408,-0.931,-1.0075,0.0,0.0,0.0,0.0,0.0,0.0,0.0,0.0,0.0,-1.2376,0.0,0.0,-1.2232,-1.201,0.0,0.0,0.0,0.0,0.0,-1.2485,-1.2614,-1.265,-1.3133,-1.3338,0.0,0.0,-1.4075,-1.4135,0.0,0.0,0.0,0.0,-1.4123,-1.4292,-1.4292,-1.4449,-1.4666,-1.4944,-1.5427,-1.5994,-1.6537,-1.7032,-1.7436,-1.7467,-1.7508,-1.7508,-1.7508,-1.7508,-1.7508,-1.7508,-1.7472,-1.7448,-1.7496,-1.7443,-1.7418,-1.7508,-1.7508,-1.7508,-1.7508,-1.7508,-1.7508,-1.7508,-1.795,-1.83,-1.83,-1.8758,-1.9128,-1.9189,-1.9431,-1.9565,-1.9527,-1.9663,-1.9507,-1.8843,-1.8709,-1.8608,-1.8538,-1.8538,-1.8503,-1.8398,-1.8398,-1.7826,-1.6654,-1.6336,-1.4769,-1.2087,-1.1765,-1.0767,-0.9302,-0.9302,-0.9302,-0.9302,-0.9302,-0.9302,-0.9302,-0.9302,-0.9302,-0.9302,-0.9302,-0.9302,-0.9302,0.0,0.0,0.0,0.0,0.0,0.0,0.0,-0.7674,-0.7406,-0.6549,-0.7119,-0.731,-0.6549,-0.7406,-0.8428,0.0,0.0,0.0,0.0,0.0,0.0,0.0,0.0,0.0,0.0,0.0,0.0,-1.2297,-1.2035,0.0,0.0,0.0,0.0,0.0,0.0,-1.2349,-1.2373,-1.265,0.0,0.0,0.0,0.0,0.0,0.0,0.0,0.0,0.0,-1.428,-1.4292,-1.4292,-1.4316,-1.4389,-1.4642,-1.5282,-1.5994,-1.6537,-1.6899,-1.7177,-1.7418,-1.7508,-1.7508,-1.7508,-1.7508,-1.7508,-1.7508,-1.7298,-1.7201,-1.746,-1.7327,-1.7201,-1.7472,-1.7508,-1.7508,-1.7508,-1.7508,-1.7508,-1.7508,-1.795,-1.83,-1.83,-1.8758,-1.9201,-1.9443,-1.9721,-1.9953,-2.0185,-2.0106,-1.9901,-1.9541,-1.9495,-1.9332,-1.8947,-1.8959,-1.8784,-1.8398,-1.8398,-1.8328,-1.8188,-1.683,-1.5301,-1.363,-1.223,-1.0767,-0.9302,-0.9302,-0.9302,-0.9302,-0.9302,-0.9302,-0.9302,-0.9302,-0.9302,-0.9302,-0.9302,-0.9302,-0.9302,0.0,0.0,0.0,0.0,0.0,0.0,-0.6677,-0.7157,-0.7195,-0.6318,-0.6511,-0.6395,-0.557,-0.586,-0.6734,-0.8257,0.0,0.0,0.0,0.0,0.0,0.0,0.0,0.0,0.0,0.0,-1.2427,-1.2542,-1.2268,0.0,0.0,0.0,0.0,0.0,0.0,-1.2063,-1.2075,-1.2361,0.0,0.0,0.0,0.0,0.0,0.0,0.0,0.0,0.0,0.0,-1.4292,-1.4292,-1.4292,-1.434,-1.463,-1.504,-1.5523,-1.6054,-1.6634,-1.7117,-1.7213,-1.7387,-1.7508,-1.7508,-1.7508,-1.7472,-1.7315,-1.7165,-1.7117,-1.7254,-1.7165,-1.7177,-1.746,-1.7508,-1.7508,-1.7508,-1.7508,-1.7569,-1.7726,-1.8046,-1.8348,-1.8505,-1.8886,-1.9213,-1.9467,-1.9757,-2.0096,-2.0519,-2.0501,-2.0388,-2.0284,-1.9854,-1.9401,-1.9028,-1.8993,-1.8819,-1.8398,-1.8398,-1.8398,-1.8398,-1.7791,-1.6266,-1.388,-1.3274,-1.1628,-0.9302,-0.9302,-0.9302,-0.9302,-0.9302,-0.9302,-0.9302,-0.9302,-0.9302,-0.9302,-0.9302,-0.9302,-0.9302,0.0,0.0,0.0,0.0,0.0,-0.5519,-0.5719,-0.6337,-0.6549,-0.5918,-0.5841,-0.5628,-0.5057,-0.4998,-0.5537,-0.685,-0.777,0.0,0.0,0.0,0.0,0.0,0.0,0.0,0.0,0.0,-1.2476,-1.2613,-1.2476,-1.2433,0.0,0.0,-1.2087,-1.2015,0.0,0.0,0.0,0.0,0.0,0.0,0.0,0.0,0.0,0.0,0.0,0.0,0.0,0.0,0.0,0.0,0.0,-1.4328,-1.4533,-1.4823,-1.5209,-1.5741,-1.6344,-1.6887,-1.7044,-1.7254,-1.7411,-1.7496,-1.7448,-1.7322,-1.7129,-1.6972,-1.6899,-1.7056,-1.7032,-1.708,-1.7448,-1.7508,-1.7508,-1.7508,-1.7581,-1.7689,-1.7883,-1.8209,-1.8481,-1.8693,-1.8947,-1.9249,-1.9588,-1.9938,-2.0301,-2.0676,-2.07,-2.07,-2.07,-2.0214,-1.975,-1.9343,-1.9192,-1.8947,-1.8573,-1.8468,-1.8398,-1.8398,-1.7977,-1.6654,-1.4556,-1.4093,-1.2488,-0.9981,-0.9981,-0.9735,-0.9302,-0.9302,-0.9302,-0.9302,-0.9302,-0.9302,-0.9302,-0.9302,-0.9302,-0.9302,0.0,0.0,0.0,0.0,0.0,0.0,-0.4681,-0.4896,-0.5018,-0.5018,-0.5018,-0.5018,-0.4998,-0.4998,-0.5018,-0.5037,-0.5951,0.0,0.0,0.0,0.0,0.0,0.0,0.0,0.0,0.0,-1.2412,-1.2412,-1.2592,-1.2699,-1.2699,-1.2699,-1.2554,-1.2312,0.0,0.0,0.0,0.0,0.0,0.0,0.0,0.0,-1.2771,0.0,0.0,0.0,0.0,0.0,0.0,0.0,0.0,0.0,0.0,-1.4678,-1.5209,-1.5741,-1.6079,-1.6404,-1.6948,-1.7092,-1.7153,-1.7418,-1.7286,-1.7092,-1.7092,-1.6682,-1.6468,-1.6984,-1.6887,-1.6863,-1.7411,-1.7508,-1.7508,-1.7508,-1.7726,-1.7895,-1.7907,-1.8367,-1.8717,-1.8686,-1.8947,-1.9322,-1.9833,-2.0386,-2.07,-2.07,-2.07,-2.07,-2.07,-2.07,-2.0492,-2.011,-1.9715,-1.9332,-1.8993,-1.8608,-1.8398,-1.8363,-1.6911,-1.6195,-1.6124,-1.4591,-1.3059,-1.1586,-1.1586,-1.0695,-0.9302,-0.9302,-0.9302,-0.9302,-0.9302,-0.9302,-0.9302,-0.9302,-0.9302,-0.9302,0.0,0.0,0.0,0.0,0.0,0.0,0.0,-0.4662,-0.4798,-0.4798,-0.492,-0.4998,-0.4998,-0.4998,-0.4998,-0.4998,-0.5802,0.0,0.0,0.0,0.0,0.0,0.0,0.0,0.0,-1.1352,-1.1995,-1.2123,-1.2188,-1.2326,-1.2485,-1.2485,-1.2514,-1.2578,-1.2578,-1.253,0.0,0.0,0.0,0.0,0.0,-1.2135,-1.2723,0.0,0.0,0.0,0.0,0.0,0.0,0.0,0.0,0.0,0.0,0.0,0.0,-1.5306,-1.5801,-1.6347,-1.6517,-1.6682,-1.6839,-1.6923,-1.6887,-1.6779,-1.6613,-1.6549,-1.6622,-1.6791,-1.6899,-1.7068,-1.7418,-1.7508,-1.7569,-1.775,-1.7847,-1.8028,-1.8403,-1.8577,-1.8778,-1.8959,-1.935,-1.9805,-2.0156,-2.0495,-2.07,-2.07,-2.07,-2.07,-2.07,-2.07,-2.0527,-2.011,-1.997,-1.975,-1.9401,-1.9262,-1.9227,-1.9192,-1.8457,-1.757,-1.6538,-1.5797,-1.4049,-1.1586,-1.1586,-1.0731,-0.9302,-0.9302,-0.9302,-0.9302,-0.9302,-0.9302,-0.9302,-0.9302,-0.9302,-0.9302,0.0,0.0,0.0,0.0,0.0,0.0,0.0,-0.4526,-0.4701,-0.4701,-0.4876,-0.4998,-0.4998,-0.4998,-0.4998,-0.4998,-0.5459,0.0,0.0,0.0,0.0,0.0,0.0,0.0,-0.8927,-1.0407,-1.123,-1.1359,-1.178,-1.208,-1.224,-1.224,-1.2326,-1.2433,-1.2433,-1.2433,0.0,0.0,0.0,0.0,-1.187,-1.2099,-1.2578,0.0,0.0,0.0,0.0,0.0,0.0,0.0,0.0,0.0,0.0,0.0,0.0,0.0,-1.5668,-1.6178,-1.6287,-1.6404,-1.6573,-1.667,-1.6622,-1.6501,-1.6347,-1.6416,-1.6573,-1.6682,-1.6911,-1.7177,-1.746,-1.7508,-1.7593,-1.7859,-1.7992,-1.8209,-1.8657,-1.8802,-1.8959,-1.9225,-1.9648,-2.0023,-2.0289,-2.0555,-2.07,-2.07,-2.07,-2.07,-2.07,-2.07,-2.0596,-2.0318,-2.0179,-2.0005,-1.9796,-1.9645,-1.9576,-1.9611,-1.9332,-1.8727,-1.7805,-1.7559,-1.5681,-1.2652,-1.2652,-1.137,0.0,-0.9302,-0.9302,-0.9302,-0.9302,-0.9302,-0.9302,-0.9302,-0.9302,-0.9302,0.0,0.0,0.0,0.0,0.0,0.0,0.0,-0.4385,-0.4637,-0.4656,-0.4836,-0.4971,-0.4971,-0.4971,-0.4971,-0.4971,0.0,0.0,0.0,0.0,0.0,0.0,0.0,0.0,-0.772,-0.9388,-1.0277,-1.0277,-1.1402,-1.1952,-1.1973,-1.1973,-1.1995,-1.1995,-1.1995,-1.1995,-1.2016,0.0,0.0,0.0,-1.2304,-1.2304,0.0,0.0,0.0,0.0,0.0,0.0,0.0,0.0,0.0,0.0,0.0,0.0,0.0,0.0,0.0,0.0,0.0,-1.6275,-1.6347,-1.6573,-1.6468,-1.6275,-1.6275,-1.6311,0.0,-1.6646,-1.6923,-1.7189,-1.7443,-1.7532,-1.7629,-1.7895,-1.8143,-1.8408,-1.8674,-1.8971,-1.9237,-1.9503,-1.9781,-2.0014,-2.0313,-2.0555,-2.07,-2.07,-2.07,-2.07,-2.07,-2.07,-2.07,-2.07,-2.0353,-2.0144,-2.0144,-1.9785,-1.9611,-1.968,-1.9645,-1.9645,-1.9645,-1.9541,-1.7725,-1.461,-1.4503,-1.258,-0.9518,-0.941,-0.9338,-0.9338,-0.9302,-0.9302,-0.9302,-0.9302,-0.9302,-0.9302,0.0,0.0,0.0,0.0,0.0,0.0,0.0,0.0,0.0,0.0,-0.4423,-0.4606,-0.4759,-0.4777,-0.4777,0.0,0.0,0.0,0.0,0.0,0.0,0.0,0.0,0.0,-0.6877,-0.8924,-0.9985,-0.9985,-1.0971,-1.1564,-1.1769,-1.1769,-1.1844,-1.1995,-1.1995,-1.1995,-1.2016,-1.2283,0.0,0.0,-1.2314,-1.2412,0.0,0.0,0.0,0.0,-1.4111,-1.4292,0.0,0.0,0.0,0.0,0.0,0.0,0.0,0.0,-1.568,-1.5897,-1.5997,0.0,-1.5994,-1.6066,-1.603,-1.5982,0.0,-1.6308,-1.6622,-1.6682,-1.7068,-1.7436,-1.7508,-1.7677,-1.7907,-1.8155,-1.842,-1.8686,-1.8983,-1.9237,-1.9515,-1.9748,-2.0026,-2.0325,-2.0591,-2.0664,-2.07,-2.07,-2.07,-2.07,-2.07,-2.07,-2.07,-2.07,-2.0596,-2.0561,-2.0561,-2.0457,-2.0422,-2.0457,-2.0144,-1.997,-1.997,-1.968,-1.8506,-1.6554,-1.5354,-1.3721,-1.1807,-1.0341,-0.9771,-0.9735,-0.941,-0.9302,-0.9302,-0.9302,-0.9302,-0.9302,0.0,0.0,0.0,0.0,0.0,0.0,0.0,0.0,0.0,0.0,0.0,-0.4576,-0.469,-0.4708,0.0,0.0,0.0,0.0,0.0,0.0,0.0,0.0,0.0,-0.5989,-0.6037,-0.8159,-0.9047,-0.861,-0.9985,-1.0516,-1.0234,-1.0668,-1.0927,-1.1057,-1.1499,-1.1736,-1.1866,-1.2123,-1.2283,-1.24,-1.2469,0.0,0.0,0.0,0.0,0.0,-1.4111,-1.4292,0.0,-1.4292,-1.4389,-1.4533,0.0,0.0,0.0,0.0,-1.5777,-1.5885,-1.5885,-1.5885,-1.5885,-1.5885,-1.5885,-1.5922,-1.6069,-1.6392,-1.673,-1.6851,-1.7201,-1.7544,-1.7665,-1.781,-1.804,-1.8408,-1.862,-1.885,-1.9237,-1.9406,-1.9648,-2.0047,-2.0229,-2.0422,-2.0676,-2.07,-2.07,-2.07,-2.07,-2.07,-2.07,-2.07,-2.07,-2.07,-2.07,-2.07,-2.07,-2.07,-2.07,-2.07,-2.0492,-2.0388,-2.0353,-1.9436,-1.8121,-1.6449,-1.4893,-1.3266,-1.1592,-1.0593,-1.0167,-1.0131,-0.9735,-0.959,-0.9554,-0.9374,-0.9302,-0.9302,0.0,0.0,0.0,0.0,0.0,0.0,0.0,0.0,0.0,0.0,0.0,0.0,0.0,0.0,0.0,0.0,0.0,0.0,0.0,0.0,0.0,0.0,-0.5078,-0.5272,-0.5414,-0.7296,-0.7907,-0.7098,-0.8829,-0.9353,-0.8741,-0.9528,-0.992,-0.9994,-1.0776,-1.1284,-1.1543,-1.1758,-1.2047,-1.2421,-1.2625,0.0,0.0,0.0,0.0,0.0,0.0,0.0,0.0,-1.4292,-1.4485,-1.4738,-1.5028,0.0,0.0,0.0,0.0,0.0,-1.5885,-1.5885,-1.5885,-1.5885,-1.5922,-1.6006,-1.6251,-1.6525,-1.6827,-1.7044,-1.7363,-1.7641,-1.7859,-1.7968,-1.8185,-1.8645,-1.8722,-1.8947,-1.9431,-1.9539,-1.9745,-2.0253,-2.035,-2.0458,-2.0676,-2.07,-2.07,-2.07,-2.07,-2.07,-2.07,-2.07,-2.07,-2.07,-2.07,-2.07,-2.07,-2.07,-2.07,-2.07,-2.07,-2.0596,-2.0318,-1.9006,-1.7409,-1.5592,-1.4049,-1.2488,-1.0989,-1.0707,-1.0563,-1.0527,-1.0131,-0.9951,-0.9843,-0.9518,-0.9338,-0.9302,0.0,0.0,0.0,0.0,0.0,0.0,0.0,0.0,0.0,0.0,0.0,0.0,0.0,0.0,0.0,0.0,0.0,0.0,0.0,0.0,0.0,-0.5127,-0.5185,-0.529,-0.5475,-0.6683,-0.7246,-0.7098,-0.8193,-0.9047,-0.968,-0.9833,-1.0007,-1.0246,-1.0386,-1.0571,-1.0787,-1.1025,-1.1628,-1.2421,-1.2625,0.0,0.0,0.0,0.0,0.0,0.0,0.0,0.0,-1.4292,-1.4485,-1.4738,-1.5028,0.0,0.0,0.0,0.0,0.0,-1.5885,-1.5885,-1.5885,-1.5885,-1.6081,-1.6263,-1.6299,-1.667,-1.7044,-1.708,-1.7479,-1.7859,-1.7895,-1.8282,-1.8589,-1.8705,-1.8899,-1.9152,-1.9455,-1.9709,-1.9941,-2.0277,-2.0507,-2.0652,-2.07,-2.07,-2.07,-2.07,-2.07,-2.07,-2.07,-2.07,-2.07,-2.07,-2.07,-2.07,-2.07,-2.07,-2.07,-2.07,-2.07,-2.0028,-1.8762,-1.8517,-1.7514,-1.5955,-1.4441,-1.363,-1.3238,-1.1606,-1.0936,-1.0894,-1.0527,-1.0203,-0.9879,-0.9843,-0.959,-0.9302,0.0,0.0,0.0,0.0,0.0,0.0,0.0,0.0,0.0,0.0,0.0,0.0,0.0,0.0,0.0,0.0,0.0,0.0,0.0,0.0,-0.5107,-0.535,-0.5361,-0.5448,-0.5599,-0.658,-0.6855,-0.6346,-0.729,-0.7709,-0.7643,-0.8303,-0.9266,-1.0463,-1.0463,-1.0798,-1.1359,-1.1628,-1.2095,-1.2624,0.0,0.0,0.0,0.0,0.0,0.0,0.0,0.0,0.0,0.0,-1.4678,-1.4955,-1.5234,0.0,0.0,0.0,0.0,0.0,-1.5885,-1.6021,-1.613,-1.6115,-1.6211,-1.6368,-1.6686,-1.6911,-1.7177,-1.7455,-1.7738,-1.7992,-1.8282,-1.8517,-1.8766,-1.8911,-1.9152,-1.9418,-1.9684,-1.9963,-2.0229,-2.0495,-2.0628,-2.07,-2.07,-2.07,-2.0761,-2.0906,-2.0918,-2.0978,-2.1135,-2.1135,-2.1135,-2.1135,-2.1135,-2.1135,-2.1135,-2.099,-2.0845,-2.07,-1.9854,-1.9076,-1.8342,-1.6705,-1.5575,-1.4831,-1.3317,-1.2646,-1.2574,-1.1685,-1.1332,-1.1296,-1.093,-1.0678,-1.0462,-1.0059,-0.9771,-0.959,0.0,0.0,0.0,0.0,0.0,0.0,0.0,0.0,0.0,0.0,0.0,0.0,0.0,0.0,0.0,0.0,0.0,0.0,0.0,-0.5074,-0.5222,-0.5497,-0.5534,-0.5594,-0.5686,-0.639,-0.6419,-0.5691,-0.6419,-0.6545,-0.6152,-0.7635,-0.9086,-1.0477,-1.0745,-1.1193,-1.1707,-1.2154,-1.2421,-1.2606,0.0,0.0,0.0,0.0,0.0,0.0,0.0,0.0,0.0,0.0,0.0,0.0,0.0,0.0,0.0,-1.5885,-1.5885,-1.5885,-1.5885,-1.6105,-1.6323,-1.638,-1.6453,-1.6598,-1.6996,-1.7189,-1.7382,-1.7822,-1.8004,-1.8221,-1.8601,-1.8766,-1.8886,-1.9152,-1.937,-1.9624,-1.9963,-2.018,-2.041,-2.0676,-2.07,-2.07,-2.07,-2.0761,-2.0882,-2.1075,-2.116,-2.1293,-2.1498,-2.151,-2.151,-2.151,-2.151,-2.151,-2.151,-2.1305,-2.1063,-2.0797,-1.9529,-1.8552,-1.777,-1.5469,-1.4022,-1.3317,-1.2115,-1.1584,-1.1584,-1.1584,-1.1584,-1.1584,-1.126,-1.108,-1.0936,-1.0275,-0.9987,-0.9843,0.0,0.0,0.0,0.0,0.0,0.0,0.0,0.0,0.0,0.0,0.0,0.0,0.0,0.0,0.0,0.0,0.0,0.0,0.0,-0.5286,-0.5481,-0.5508,-0.5615,-0.568,-0.5691,-0.5758,-0.578,-0.5691,-0.578,-0.6346,-0.743,-0.9687,-1.0493,-1.0087,-1.1197,-1.1334,-1.0761,-1.1722,-1.2052,-1.2051,-1.3053,0.0,0.0,0.0,0.0,0.0,0.0,0.0,0.0,0.0,0.0,0.0,0.0,0.0,-1.5885,-1.5885,-1.5885,-1.5885,-1.5885,-1.6105,-1.6371,-1.661,-1.6851,-1.7044,-1.708,-1.7496,-1.7859,-1.7895,-1.8306,-1.8638,-1.8674,-1.8911,-1.9165,-1.9431,-1.9491,-1.9684,-2.0217,-2.0301,-2.041,-2.0676,-2.07,-2.07,-2.07,-2.093,-2.1075,-2.1099,-2.1341,-2.1498,-2.151,-2.151,-2.151,-2.151,-2.151,-2.151,-2.151,-2.1498,-2.1341,-2.1063,-2.0716,-1.903,-1.6272,-1.6025,-1.4405,-1.1763,-1.1655,-1.1584,-1.1584,-1.1584,-1.1584,-1.1584,-1.1584,-1.1332,-1.0972,-1.0599,-1.0203,-0.9879,0.0,0.0,0.0,0.0,0.0,0.0,0.0,0.0,0.0,0.0,0.0,0.0,0.0,0.0,0.0,0.0,0.0,0.0,0.0,-0.5432,-0.554,-0.5615,-0.5664,-0.5691,-0.5691,-0.5691,-0.5691,-0.5691,-0.5941,-0.645,-0.7217,-0.8862,-0.954,-0.9457,-1.1207,-1.1775,-1.1477,-1.254,-1.3043,-1.3124,-1.2858,-1.3321,0.0,0.0,0.0,0.0,0.0,0.0,0.0,0.0,-1.533,-1.5523,-1.5692,-1.5813,-1.5885,-1.5885,-1.5885,-1.5948,-1.6091,-1.6332,-1.661,-1.6875,-1.729,-1.7569,-1.7399,-1.7641,-1.7955,-1.8094,-1.8432,-1.8766,-1.8923,-1.9177,-1.9382,-1.9479,-1.9781,-2.0071,-2.0277,-2.0446,-2.0591,-2.0688,-2.07,-2.0773,-2.093,-2.1039,-2.1232,-2.1571,-2.1704,-2.1825,-2.1994,-2.2006,-2.2006,-2.2006,-2.2006,-2.2006,-2.2006,-2.1837,-2.1704,-2.1559,-1.9357,-1.7612,-1.6294,-1.4322,-1.277,-1.1584,-1.1584,-1.1584,-1.1584,-1.1584,-1.1584,-1.1584,-1.1584,-1.1512,-1.1332,-1.0966,-1.0714,-1.0534,0.0,0.0,0.0,0.0,0.0,0.0,0.0,0.0,0.0,0.0,0.0,0.0,0.0,0.0,0.0,0.0,0.0,0.0,-0.5491,-0.5545,-0.5605,-0.5708,-0.5691,-0.5691,-0.5691,-0.5691,-0.5735,-0.5819,-0.6281,-0.6713,-0.7102,-0.8372,-0.9036,-0.9232,-1.1348,-1.2056,-1.1739,-1.2799,-1.3345,-1.3449,-1.2727,-1.3171,0.0,0.0,0.0,0.0,0.0,0.0,0.0,0.0,-1.5559,-1.5656,-1.5837,-1.5885,-1.5885,-1.5885,-1.5946,-1.6081,-1.6263,-1.6549,-1.6863,-1.7044,-1.7491,-1.7859,-1.7677,-1.7907,-1.8209,-1.8384,-1.8625,-1.8923,-1.9189,-1.9382,-1.9551,-1.9733,-2.0071,-2.0337,-2.0422,-2.0591,-2.07,-2.07,-2.07,-2.0809,-2.1063,-2.1172,-2.1414,-2.1873,-2.1982,-2.2115,-2.2284,-2.2296,-2.2296,-2.2296,-2.2296,-2.2296,-2.2296,-2.2115,-2.203,-2.1993,-1.8589,-1.6848,-1.652,-1.3827,-1.2283,-1.1762,-1.1762,-1.1762,-1.1762,-1.1762,-1.1728,-1.1651,-1.1651,-1.1624,-1.1584,-1.1296,-1.1116,-1.0936,0.0,0.0,0.0,0.0,0.0,0.0,0.0,0.0,0.0,0.0,0.0,0.0,0.0,0.0,0.0,0.0,0.0,0.0,-0.5508,-0.5621,-0.5691,-0.5686,-0.5691,-0.5691,-0.5686,-0.5713,-0.5847,-0.6108,-0.6717,-0.7085,-0.7238,-0.8711,-0.9412,-0.9492,-1.1704,-1.212,-1.1243,-1.2266,-1.2702,-1.2702,-1.2702,-1.3342,-1.4304,0.0,0.0,0.0,0.0,0.0,0.0,0.0,-1.568,-1.5885,-1.5885,-1.5885,-1.5885,-1.5885,-1.6105,-1.6311,-1.6311,-1.6682,-1.7092,-1.7092,-1.752,-1.7907,-1.7907,-1.833,-1.8686,-1.8717,-1.8935,-1.9189,-1.9455,-1.9503,-1.9684,-2.0229,-2.0313,-2.041,-2.0664,-2.07,-2.07,-2.07,-2.07,-2.0809,-2.1075,-2.1353,-2.1631,-2.1885,-2.2151,-2.2296,-2.2296,-2.2296,-2.2296,-2.2296,-2.2296,-2.2296,-2.2296,-2.2296,-2.2296,-2.2259,-1.8981,-1.7199,-1.6764,-1.5035,-1.349,-1.2098,-1.2098,-1.2098,-1.2098,-1.2098,-1.1972,-1.1793,-1.1793,-1.1712,-1.1584,-1.1584,-1.1332,-1.1008,0.0,0.0,0.0,0.0,0.0,0.0,0.0,0.0,0.0,0.0,0.0,0.0,0.0,0.0,0.0,0.0,0.0,0.0,-0.5626,-0.5669,-0.5653,-0.5567,-0.5642,-0.5648,-0.5561,-0.6104,-0.6445,-0.653,-0.7071,-0.7443,-0.765,-0.8936,-0.9143,-0.8505,-1.0678,-1.1048,-1.019,-1.195,-1.2702,-1.2702,-1.2702,-1.3455,-1.4496,0.0,0.0,0.0,0.0,0.0,0.0,0.0,0.0,0.0,-1.5885,-1.5885,-1.5885,-1.5885,-1.6105,-1.6347,-1.6525,-1.6827,-1.7177,-1.7581,-1.8111,-1.8521,-1.8458,-1.8596,-1.8826,-1.9189,-1.9334,-1.9467,-1.9745,-1.995,-2.012,-2.0289,-2.047,-2.0616,-2.0688,-2.07,-2.07,-2.07,-2.07,-2.0882,-2.1341,-2.1462,-2.1704,-2.2151,-2.226,-2.2296,-2.2296,-2.2296,-2.2296,-2.2296,-2.2296,-2.2296,-2.2296,-2.2296,-2.2296,-2.2259,-1.8981,-1.7275,-1.6972,-1.4153,-1.2606,-1.2098,-1.2098,-1.2098,-1.2098,-1.2098,-1.207,-1.1993,-1.1993,-1.2002,-1.1918,-1.1809,-1.1659,-1.1501,0.0,0.0,0.0,0.0,0.0,0.0,0.0,0.0,0.0,0.0,-0.4925,-0.5031,0.0,0.0,0.0,0.0,0.0,0.0,0.0,-0.5615,-0.5583,-0.5508,-0.5687,-0.5846,-0.5979,-0.6661,-0.7012,-0.7012,-0.7415,-0.7702,-0.7902,-0.8632,-0.8627,-0.8063,-0.9805,-1.0435,-1.0297,-1.1157,-1.2032,-1.2755,-1.1974,-1.2679,-1.4109,0.0,0.0,0.0,0.0,0.0,0.0,0.0,0.0,0.0,-1.5885,-1.5885,-1.591,-1.6045,-1.6235,-1.6513,-1.6779,-1.7159,-1.7562,-1.7989,-1.8567,-1.9087,-1.9366,-1.9223,-1.9116,-1.9431,-1.9588,-1.9745,-2.0023,-2.0204,-2.035,-2.0446,-2.0603,-2.07,-2.07,-2.07,-2.07,-2.07,-2.0797,-2.1027,-2.1474,-2.1607,-2.1849,-2.2272,-2.2296,-2.2296,-2.2296,-2.2296,-2.2296,-2.2296,-2.2296,-2.1997,-2.13,-2.13,-2.0999,-2.0312,-1.7683,-1.6364,-1.621,-1.358,-1.2325,-1.2275,-1.2275,-1.2275,-1.2275,-1.2275,-1.2241,-1.2193,-1.2193,-1.2152,-1.2091,-1.1959,-1.1925,-1.1837,0.0,0.0,0.0,0.0,0.0,0.0,0.0,0.0,0.0,0.0,-0.5042,-0.5148,0.0,0.0,0.0,0.0,0.0,0.0,0.0,-0.5508,-0.5508,-0.5529,-0.5815,-0.621,-0.6759,-0.7251,-0.7513,-0.755,-0.7738,-0.7878,-0.7988,-0.7988,-0.7988,-0.8038,-0.9038,-1.0027,-1.0898,-1.0155,-1.1015,-1.2746,-1.0948,-1.1519,-1.3429,-1.3326,0.0,0.0,0.0,0.0,0.0,0.0,0.0,0.0,-1.5885,-1.5936,-1.597,-1.6238,-1.6501,-1.6791,-1.7089,-1.7571,-1.8101,-1.8404,-1.8933,-1.9565,-2.0367,-2.005,-1.9572,-1.9596,-1.9814,-2.0035,-2.0301,-2.035,-2.0422,-2.0664,-2.07,-2.07,-2.07,-2.07,-2.07,-2.07,-2.093,-2.1208,-2.145,-2.1752,-2.2018,-2.2284,-2.2296,-2.2296,-2.2296,-2.2296,-2.2296,-2.2296,-2.2296,-2.1499,-1.9811,-1.9811,-1.8971,-1.7379,-1.5701,-1.4905,-1.4867,-1.3228,-1.2501,-1.2501,-1.2501,-1.2501,-1.2501,-1.2501,-1.2427,-1.2311,-1.2311,-1.2223,-1.2139,-1.2125,-1.2118,-1.2043,0.0,0.0,0.0,0.0,0.0,0.0,0.0,0.0,0.0,0.0,0.0,0.0,0.0,0.0,0.0,0.0,0.0,0.0,0.0,-0.5508,-0.5594,-0.5803,-0.6178,-0.6682,-0.7307,-0.745,-0.7631,-0.7892,-0.7941,-0.7986,-0.7988,-0.7988,-0.7988,-0.802,-0.8412,-0.8697,-0.8983,-0.9731,-1.0828,-1.201,-1.1482,-1.2252,-1.3613,-1.267,-1.2624,0.0,0.0,0.0,0.0,0.0,0.0,0.0,-1.5885,-1.603,-1.6238,-1.6287,-1.665,-1.7077,-1.7412,-1.7881,-1.8434,-1.8981,-1.9516,-2.0093,-2.0747,-2.056,-2.0277,-2.0487,-2.0586,-2.0607,-2.0602,-2.0616,-2.064,-2.0688,-2.07,-2.07,-2.07,-2.07,-2.07,-2.07,-2.093,-2.1208,-2.145,-2.1752,-2.2018,-2.2284,-2.2296,-2.2296,-2.2296,-2.2296,-2.2296,-2.2296,-2.2296,-2.1499,-1.9811,-1.9811,-1.8971,-1.7379,-1.5701,-1.4905,-1.4867,-1.3228,-1.2501,-1.2501,-1.2501,-1.2501,-1.2501,-1.2501,-1.2481,-1.2454,-1.2454,-1.2433,-1.2393,-1.2284,-1.2244,-1.2148,0.0,0.0,0.0,0.0,0.0,0.0,0.0,0.0,0.0,0.0,0.0,0.0,0.0,0.0,0.0,0.0,0.0,0.0,0.0,0.0,-0.5875,-0.6309,-0.674,-0.7178,-0.7638,-0.7718,-0.7816,-0.7988,-0.7988,-0.7988,-0.7988,-0.7988,-0.8054,-0.8153,-0.826,-0.8611,-0.9172,-0.9362,-1.0063,-1.1037,-1.0523,-1.1113,-1.2247,-1.1612,-1.2161,-1.3349,-1.397,0.0,0.0,0.0,0.0,0.0,0.0,0.0,-1.6344,-1.6625,-1.6875,-1.7203,-1.7683,-1.8194,-1.8859,-1.9754,-2.0289,-2.0751,-2.1332,-2.1325,-2.1181,-2.1263,-2.1009,-2.0737,-2.0711,-2.07,-2.07,-2.07,-2.07,-2.07,-2.07,-2.07,-2.07,-2.07,-2.1051,-2.1353,-2.1498,-2.1873,-2.2151,-2.2284,-2.2296,-2.2296,-2.2296,-2.2296,-2.2296,-2.2296,-2.1536,-2.0312,-1.8668,-1.7834,-1.6655,-1.5059,-1.4184,-1.376,-1.3722,-1.2881,-1.2501,-1.2501,-1.2501,-1.2501,-1.2501,-1.2501,-1.2501,-1.2501,-1.2501,-1.2501,-1.2494,-1.242,-1.2393,-1.2303,0.0,0.0,0.0,0.0,0.0,0.0,0.0,0.0,0.0,0.0,0.0,0.0,0.0,0.0,0.0,0.0,0.0,0.0,0.0,0.0,0.0,-0.6898,-0.7335,-0.7634,-0.7824,-0.7952,-0.7988,-0.7988,-0.804,-0.8054,-0.8054,-0.8054,-0.8147,-0.8301,-0.8349,-0.8924,-0.9808,-0.9058,-0.9473,-1.0576,-0.9592,-0.9919,-1.0973,-1.0781,-1.1901,-1.3619,-1.3808,-1.4616,-1.5645,-1.5832,0.0,0.0,0.0,0.0,-1.6537,-1.696,-1.7129,-1.73,-1.7989,-1.8686,-1.9477,-2.0522,-2.0935,-2.1269,-2.1844,-2.1958,-2.1885,-2.1885,-2.1393,-2.0908,-2.0735,-2.0735,-2.077,-2.07,-2.07,-2.07,-2.07,-2.07,-2.07,-2.07,-2.1184,-2.151,-2.151,-2.1994,-2.2296,-2.2296,-2.2296,-2.2296,-2.2296,-2.2296,-2.2296,-2.2296,-2.0962,-1.9321,-1.7417,-1.6007,-1.4368,-1.2501,-1.2501,-1.2501,-1.2501,-1.2501,-1.2501,-1.2501,-1.2501,-1.2501,-1.2501,-1.2501,-1.2501,-1.2501,-1.2501,-1.2501,-1.2501,-1.2501,-1.2501,-1.2424,0.0,0.0,0.0,0.0,0.0,0.0,0.0,0.0,0.0,0.0,-0.5398,-0.5436,0.0,0.0,0.0,0.0,0.0,0.0,-0.6007,0.0,0.0,-0.7385,-0.7636,-0.7826,-0.7979,-0.7982,-0.7988,-0.7988,-0.8174,-0.8267,-0.8267,-0.8267,-0.8274,-0.8308,-0.854,-0.8742,-0.8877,-0.8873,-1.0128,-1.2027,-1.091,-1.1164,-1.2064,-1.1082,-1.0891,-1.1301,-1.2282,-1.3403,-1.4573,-1.5565,-1.6042,0.0,0.0,0.0,-1.6996,-1.7068,-1.7249,-1.7638,-1.853,-1.959,-2.0549,-2.0944,-2.1082,-2.1269,-2.1844,-2.1714,-2.1619,-2.2125,-2.2138,-2.1794,-2.0873,-2.0943,-2.1047,-2.0735,-2.07,-2.07,-2.07,-2.07,-2.07,-2.07,-2.1184,-2.151,-2.151,-2.1994,-2.2296,-2.2296,-2.2296,-2.2296,-2.2296,-2.2296,-2.2296,-2.2296,-2.2072,-2.05,-1.7417,-1.7188,-1.5518,-1.2501,-1.2501,-1.2501,-1.2501,-1.2501,-1.2501,-1.2501,-1.2501,-1.2501,-1.2501,-1.2501,-1.2501,-1.2501,-1.2501,-1.2501,-1.2501,-1.2501,-1.2501,-1.2424,0.0,0.0,0.0,0.0,0.0,0.0,0.0,0.0,0.0,0.0,0.0,-0.5469,0.0,0.0,0.0,-0.5813,-0.5933,-0.6213,-0.6694,-0.7027,-0.7311,-0.7549,-0.7725,-0.7817,-0.7885,-0.7973,-0.8054,-0.8167,-0.826,-0.8335,-0.8417,-0.8479,-0.852,-0.852,-0.8655,-0.873,-0.8818,-0.8885,-0.9564,-1.0548,-1.0054,-1.0631,-1.1647,-1.0444,-1.0803,-1.1956,-1.1759,-1.246,-1.3659,-1.4861,-1.5355,-1.5607,-1.6486,0.0,0.0,0.0,-1.7423,-1.7752,-1.8829,-1.9767,-2.053,-2.0979,-2.1109,-2.1216,-2.1676,-2.1772,-2.1799,-2.2018,-2.2377,-2.231,-2.1173,-2.1289,-2.1358,-2.0804,-2.0873,-2.0908,-2.0735,-2.07,-2.07,-2.07,-2.1184,-2.151,-2.151,-2.1994,-2.2296,-2.2296,-2.2296,-2.2296,-2.2296,-2.2296,-2.2296,-2.2296,-2.05,-1.8868,-1.7417,-1.5557,-1.3914,-1.2501,-1.2501,-1.2501,-1.2501,-1.2501,-1.2501,-1.2501,-1.2501,-1.2501,-1.2501,-1.2501,-1.2501,-1.2501,-1.2501,-1.2501,-1.2501,-1.2501,-1.2501,-1.2463,0.0,0.0,0.0,0.0,0.0,0.0,0.0,0.0,0.0,0.0,0.0,0.0,0.0,0.0,0.0,0.0,-0.6288,-0.6598,-0.7213,-0.7321,-0.7432,-0.7651,-0.777,-0.7844,-0.7844,-0.7993,-0.8153,-0.8294,-0.8369,-0.8464,-0.8547,-0.8737,-0.8825,-0.8825,-0.8825,-0.8886,-0.8967,-0.9007,-0.9476,-1.0164,-1.0164,-1.1001,-1.2089,-1.0813,-1.1438,-1.287,-1.1926,-1.2155,-1.3146,-1.4728,-1.5122,-1.517,-1.6648,-1.7141,0.0,0.0,0.0,-1.8037,-1.8927,-1.9676,-2.031,-2.0835,-2.0982,-2.1094,-2.1515,-2.1756,-2.1912,-2.2016,-2.2423,-2.2493,-2.1644,-2.1725,-2.1703,-2.0943,-2.1047,-2.1081,-2.0735,-2.07,-2.07,-2.07,-2.1184,-2.151,-2.151,-2.1994,-2.2296,-2.2296,-2.2296,-2.2296,-2.2296,-2.2296,-2.2109,-2.1686,-1.9283,-1.7607,-1.677,-1.3914,-1.2501,-1.2501,-1.2501,-1.2501,-1.2501,-1.2501,-1.2501,-1.2501,-1.2501,-1.2501,-1.2501,-1.2501,-1.2501,-1.2501,-1.2501,-1.2501,-1.2501,-1.2501,-1.2501,-1.2501,0.0,0.0,0.0,0.0,0.0,0.0,0.0,0.0,0.0,0.0,0.0,0.0,-0.6023,-0.6068,-0.6226,-0.6635,-0.6836,-0.7077,-0.7357,-0.7621,-0.7776,-0.7801,-0.7918,0.0,-0.8,-0.818,-0.8287,-0.8294,-0.8554,-0.8689,-0.8703,-0.9022,-0.9187,-0.9187,-0.9187,-0.9193,-0.9179,-0.9328,-1.0703,-1.2794,-1.2794,-1.3601,-1.4661,-1.3326,-1.2898,-1.2984,-1.2927,-1.2889,-1.3288,-1.5755,-1.5972,-1.5416,-1.6678,-1.7261,-1.7467,0.0,0.0,0.0,-1.8796,-1.9443,-2.0189,-2.0539,-2.0647,-2.0808,-2.1451,-2.1596,-2.177,-2.2265,-2.2398,-2.239,-2.2258,-2.2276,-2.2035,-2.1276,-2.1173,-2.1081,-2.0735,-2.07,-2.07,-2.07,-2.1184,-2.151,-2.151,-2.1994,-2.2296,-2.2296,-2.2296,-2.2296,-2.2296,-2.2296,-2.1574,-1.9962,-1.9774,-1.8176,-1.5059,-1.3344,-1.2501,-1.2501,-1.2501,-1.2501,-1.2501,-1.2501,-1.2501,-1.2501,-1.2501,-1.2501,-1.2501,-1.2501,-1.2501,-1.2501,-1.2501,-1.2501,-1.2501,-1.2501,-1.2501,-1.2501,0.0,0.0,0.0,0.0,0.0,0.0,0.0,0.0,0.0,0.0,0.0,0.0,0.0,-0.6302,-0.6445,-0.6858,-0.7263,-0.7604,-0.777,-0.7783,-0.7814,-0.7814,-0.7932,-0.7988,-0.7988,-0.8282,-0.8478,-0.8554,-0.8662,-0.8804,-0.9022,-0.9131,-0.9233,-0.9328,-0.9328,-0.9328,-0.9328,-0.939,-0.996,-1.0809,-1.0809,-1.1657,-1.2731,-1.143,-1.1993,-1.335,-1.2475,-1.2149,-1.2525,-1.5117,-1.52,-1.4586,-1.6693,-1.7406,-1.7508,-1.7508,-1.7955,-1.8533,-1.8747,-1.9268,-1.9903,-2.0443,-2.0602,-2.0723,-2.1179,-2.1448,-2.1649,-2.185,-2.2164,-2.2378,-2.2349,-2.2521,-2.2345,-2.1346,-2.1415,-2.1393,-2.077,-2.07,-2.07,-2.07,-2.1184,-2.151,-2.151,-2.1994,-2.2296,-2.2296,-2.2296,-2.2296,-2.2296,-2.2296,-2.1536,-1.9849,-1.8782,-1.6694,-1.3382,-1.2811,-1.2501,-1.2501,-1.2501,-1.2501,-1.2501,-1.2501,-1.2501,-1.2501,-1.2501,-1.2501,-1.2501,-1.2501,-1.2501,-1.2501,-1.2501,-1.2501,-1.2501,-1.2501,-1.2501,-1.2501,0.0,0.0,0.0,0.0,0.0,0.0,0.0,0.0,0.0,-0.6108,0.0,0.0,0.0,0.0,-0.6829,-0.723,-0.7604,-0.7831,-0.7932,-0.7963,-0.7963,-0.7963,-0.8081,-0.8162,-0.8162,-0.8384,-0.8581,-0.8757,-0.8757,-0.894,-0.926,-0.9315,-0.939,-0.9462,-0.951,-0.9503,-0.9462,-0.951,-0.9822,-1.0337,-1.0808,-1.1527,-1.2286,-1.1442,-1.1894,-1.2916,-1.2023,-1.142,-1.145,-1.4083,-1.4161,-1.3479,-1.5572,-1.6231,-1.6242,-1.6291,-1.6615,-1.7117,-1.7847,-1.8407,-1.8964,-2.003,-2.0348,-2.0488,-2.0697,-2.1014,-2.1269,-2.1246,-2.1496,-2.1825,-2.2009,-2.224,-2.2172,-2.1506,-2.1634,-2.1518,-2.0804,-2.07,-2.07,-2.07,-2.1099,-2.1414,-2.151,-2.1909,-2.2199,-2.2296,-2.2296,-2.2296,-2.2296,-2.2296,-2.1262,-1.9046,-1.6884,-1.4745,-1.2576,-1.2576,-1.2603,-1.2657,-1.2657,-1.2657,-1.2657,-1.2657,-1.2657,-1.2657,-1.2657,-1.2596,-1.2501,-1.2501,-1.2501,-1.2501,-1.2501,-1.2501,-1.2501,-1.2501,-1.2501,-1.2501,0.0,0.0,0.0,0.0,0.0,0.0,0.0,0.0,-0.6352,-0.6158,0.0,0.0,0.0,0.0,0.0,-0.779,-0.7828,-0.7828,-0.7828,-0.8138,-0.8301,-0.8301,-0.8437,-0.8519,-0.8526,-0.8526,-0.8648,-0.8926,-0.8926,-0.9075,-0.9424,-0.9537,-0.9612,-0.9618,-0.9731,-0.9717,-0.9632,-0.9737,-1.0513,-1.1752,-1.3075,-1.3584,-1.3584,-1.3654,-1.2874,-1.1768,-1.1828,-1.1042,-1.0375,-1.2964,-1.3059,-1.2256,-1.337,-1.3704,-1.3751,-1.388,-1.4087,-1.4649,0.0,0.0,0.0,-1.9156,-1.9839,-2.0074,-2.0106,-2.0361,-2.0566,-2.0482,-2.0481,-2.0691,-2.1259,-2.1374,-2.1476,-2.1743,-2.1794,-2.1531,-2.0804,-2.07,-2.07,-2.07,-2.093,-2.1208,-2.1486,-2.1752,-2.2018,-2.2284,-2.2296,-2.2296,-2.2296,-2.2221,-2.0661,-1.7417,-1.4184,-1.2576,-1.2686,-1.2693,-1.2813,-1.3003,-1.3003,-1.3003,-1.3003,-1.3003,-1.3003,-1.3003,-1.3003,-1.2833,-1.2515,-1.2515,-1.2515,-1.2515,-1.2515,-1.2515,-1.2515,-1.2515,-1.2515,-1.2515,0.0,0.0,0.0,0.0,0.0,-0.6146,-0.6302,-0.669,-0.6922,0.0,0.0,0.0,-0.7633,-0.7727,-0.7878,-0.8133,-0.8172,-0.8213,-0.8289,-0.8403,-0.8451,-0.8451,-0.8567,-0.8703,-0.8784,-0.8941,-0.909,-0.9259,-0.9259,-0.9361,-0.9551,-0.9591,-0.9666,-0.9737,-0.9771,-0.9832,-0.9893,-0.9819,-1.0004,-1.0375,-1.0851,-1.1026,-1.1164,-1.2325,-1.3088,-1.3717,-1.4725,-1.4869,-1.4838,-1.6464,-1.5462,-1.356,-1.3779,-1.3925,-1.3995,-1.402,-1.4242,-1.4769,-1.6192,0.0,0.0,0.0,0.0,0.0,-2.0043,-2.017,-2.0227,-2.0208,-2.0341,-2.0532,-2.0717,-2.1119,-2.1344,-2.1114,-2.1255,-2.1207,-2.077,-2.07,-2.07,-2.07,-2.093,-2.1196,-2.1474,-2.174,-2.2018,-2.2284,-2.2296,-2.2296,-2.2296,-2.0048,-1.7797,-1.5663,-1.3686,-1.2645,-1.2693,-1.284,-1.2955,-1.3003,-1.3003,-1.3003,-1.3003,-1.3003,-1.3003,-1.3003,-1.3003,-1.2955,-1.2873,-1.2873,-1.2873,-1.2873,-1.2873,-1.2873,-1.2873,-1.2873,-1.2873,-1.2873,0.0,0.0,0.0,-0.6587,-0.674,-0.68,-0.6934,-0.7285,-0.7483,0.0,0.0,0.0,-0.8004,-0.8133,-0.8262,-0.8376,-0.8444,-0.852,-0.8662,-0.8757,-0.8818,-0.8879,-0.894,-0.9028,-0.9123,-0.9172,-0.9288,-0.9476,-0.9415,-0.949,-0.97,-0.97,-0.971,-0.9792,-0.9859,-0.9934,-1.0046,-1.0631,-1.0562,-1.0112,-1.1309,-1.1135,-1.0343,-1.2396,-1.2972,-1.2721,-1.3559,-1.3873,-1.3966,-1.4726,-1.3861,-1.2507,-1.2488,-1.2499,-1.2548,-1.2583,-1.2714,-1.3159,-1.4631,-1.5132,-1.5641,-1.7238,0.0,0.0,-1.8676,-1.89,-1.9136,-1.9596,-1.9816,-1.9953,-2.0065,-2.0385,-2.058,-2.0423,-2.0634,-2.082,-2.0723,-2.07,-2.07,-2.07,-2.0833,-2.1039,-2.1293,-2.1583,-2.1849,-2.2115,-2.159,-2.0962,-2.0274,-1.7797,-1.5965,-1.5049,-1.35,-1.2753,-1.2915,-1.3003,-1.3118,-1.3186,-1.3186,-1.3186,-1.3186,-1.3186,-1.3186,-1.3186,-1.3186,-1.3186,-1.3186,-1.3186,-1.3111,-1.3003,-1.3003,-1.3003,-1.3003,-1.3003,-1.3003,-1.3003,0.0,0.0,-0.6125,-0.7312,-0.7612,-0.7696,-0.7721,-0.7909,-0.7965,0.0,-0.7962,-0.8175,-0.8403,-0.8532,-0.8607,-0.8607,-0.8703,-0.8818,-0.8953,-0.9138,-0.9267,-0.9403,-0.941,-0.9417,-0.9437,-0.9301,-0.9376,-0.9632,-0.9496,-0.9564,-0.9792,-0.9805,-0.9812,-0.9819,-0.9974,-1.0049,-1.0138,-1.1579,-1.1592,-1.0866,-1.333,-1.2817,-1.0838,-1.3559,-1.3127,-1.1058,-1.1209,-1.1178,-1.0987,-1.0654,-1.0565,-1.0568,-1.0524,-1.0419,-1.0351,-1.048,-1.0514,-1.0867,-1.2382,-1.2816,-1.3144,-1.4553,-1.5131,0.0,-1.6559,-1.7012,-1.7475,-1.8451,-1.8752,-1.8952,-1.9179,-1.9381,-1.9576,-1.983,-2.0096,-2.0362,-2.0628,-2.0688,-2.07,-2.07,-2.07,-2.0809,-2.1063,-2.1317,-2.1523,-2.1628,-2.0329,-1.8819,-1.7227,-1.5701,-1.4901,-1.4914,-1.3479,-1.2881,-1.3186,-1.322,-1.3268,-1.3403,-1.3403,-1.3403,-1.3403,-1.3403,-1.3403,-1.3403,-1.3403,-1.3403,-1.3403,-1.3403,-1.3247,-1.305,-1.305,-1.305,-1.305,-1.305,-1.305,-1.305,0.0,-0.707,-0.7347,-0.7626,-0.7683,-0.7746,-0.792,-0.8121,-0.8228,-0.8177,-0.8487,-0.8838,-0.9165,-0.922,-0.9233,-0.9233,-0.926,-0.9266,-0.9293,-0.9349,-0.9376,-0.941,-0.941,-0.9442,-0.9564,-0.9537,-0.9605,-0.9751,-0.9717,-0.9737,-0.9792,-0.9913,-0.9974,-0.9981,-1.0168,-1.0297,-1.0405,-1.0755,-1.1578,-1.2816,-1.4121,-1.3642,-1.2475,-1.5357,-1.6166,-1.5844,-1.6979,-1.6647,-1.5332,-1.2958,-1.2208,-1.2107,-1.0878,-1.0555,-1.0636,-1.0637,-1.0677,-1.0974,-1.2413,-1.2816,-1.3144,-1.4553,-1.4935,0.0,-1.5261,-1.5359,-1.5466,-1.5694,-1.6624,-1.7421,-1.7465,-1.8587,-1.9515,-1.9576,-1.9817,-2.005,-2.035,-2.0567,-2.07,-2.07,-2.07,-2.0809,-2.1063,-2.1148,-2.0827,-1.9963,-1.8621,-1.715,-1.5472,-1.5097,-1.4307,-1.3085,-1.2984,-1.2982,-1.3043,-1.3234,-1.337,-1.3403,-1.3403,-1.3403,-1.3403,-1.3403,-1.3403,-1.3403,-1.3403,-1.3403,-1.3403,-1.3403,-1.337,-1.3315,-1.3315,-1.3315,-1.3315,-1.3315,-1.3315,-1.3315,-0.7529,-0.7877,-0.8129,-0.8282,-0.8395,-0.8515,-0.8669,-0.8777,-0.8852,-0.8852,-0.9022,-0.9218,-0.9396,-0.941,-0.941,-0.941,-0.941,-0.9444,-0.949,-0.9496,-0.953,-0.9598,-0.9598,-0.9639,-0.9683,-0.9683,-0.9717,-0.9792,-0.9866,-0.9907,-0.9907,-1.0249,-1.0412,-1.0419,-1.0764,-1.1006,-1.1077,-1.1678,-1.2146,-1.2643,-1.3598,-1.3684,-1.3369,-1.4936,-1.5021,-1.4346,-1.5134,-1.4774,-1.3725,-1.2254,-1.1736,-1.1622,-1.0826,-1.0656,-1.0684,-1.0684,-1.0684,-1.085,-1.1571,-1.1736,-1.1934,-1.2618,-1.2816,0.0,0.0,-1.3866,-1.4063,-1.4749,-1.5456,-1.5944,-1.5944,-1.6621,-1.7424,-1.814,-1.8466,-1.8683,-1.8843,-1.9811,-2.0507,-2.0507,-2.0628,-2.0761,-2.0882,-2.1015,-2.0303,-1.835,-1.687,-1.5379,-1.3799,-1.3683,-1.338,-1.261,-1.284,-1.3037,-1.3105,-1.3288,-1.3403,-1.3403,-1.3403,-1.3403,-1.3403,-1.3403,-1.3403,-1.3403,-1.3403,-1.3403,-1.3403,-1.3403,-1.3403,-1.3403,-1.3403,-1.3403,-1.3403,-1.3403,-1.3403,-1.3403,-0.8164,-0.8441,-0.8737,-0.8953,-0.9123,-0.9267,-0.939,-0.941,-0.9424,-0.9422,-0.9422,-0.9435,-0.9462,-0.9521,-0.9557,-0.9492,-0.9521,-0.9576,-0.9639,-0.9652,-0.97,-0.9785,-0.9819,-0.9832,-0.9832,-0.9958,-1.0002,-1.0002,-1.0156,-1.0249,-1.0249,-1.0661,-1.0891,-1.0962,-1.1347,-1.1575,-1.1713,-1.2628,-1.2906,-1.284,-1.3359,-1.3689,-1.3895,-1.4297,-1.3579,-1.2319,-1.2079,-1.1734,-1.1321,-1.1057,-1.0874,-1.0799,-1.0738,-1.0732,-1.0725,-1.0698,-1.0684,-1.0684,-1.0684,-1.0684,-1.0684,-1.0684,-1.0684,-1.1016,0.0,0.0,0.0,-1.3866,-1.4324,-1.4488,-1.4488,-1.4716,-1.5251,-1.6367,-1.6761,-1.6898,-1.6889,-1.8295,-1.9469,-1.9847,-2.0082,-2.0363,-2.0665,-2.0403,-1.9299,-1.7103,-1.5269,-1.3748,-1.2572,-1.2501,-1.2556,-1.2645,-1.2868,-1.3057,-1.3173,-1.3308,-1.3403,-1.3403,-1.3403,-1.3403,-1.3403,-1.3403,-1.3403,-1.3403,-1.3403,-1.3403,-1.3403,-1.3403,-1.3403,-1.3403,-1.3403,-1.3403,-1.3403,-1.3403,-1.3403,-1.3403,-0.9224,-0.9266,-0.9315,-0.9327,-0.9376,-0.939,-0.941,-0.941,-0.9429,-0.9564,-0.9585,-0.9632,-0.9724,-1.0009,-1.007,-0.9768,-1.0039,-1.0077,-0.9795,-0.9765,-0.9771,-0.9792,-0.992,-0.9994,-0.9994,-1.0437,-1.0703,-1.0703,-1.1002,-1.1136,-1.1143,-1.1041,-1.1178,-1.1508,-1.1312,-1.145,-1.1787,-1.1901,-1.3666,-1.6217,-1.5101,-1.4412,-1.4205,-1.5278,-1.5566,-1.5193,-1.3678,-1.3096,-1.284,-1.1578,-1.1159,-1.1125,-1.0928,-1.0887,-1.086,-1.0725,-1.0684,-1.0684,-1.0684,-1.0684,-1.0684,-1.0684,-1.0684,-1.075,-1.0916,0.0,-1.0982,-1.1148,0.0,-1.3046,-1.3046,0.0,0.0,-1.4945,-1.51,-1.5135,-1.5016,-1.5518,-1.65,-1.8242,-1.849,-1.9072,-2.0572,-1.8439,-1.6836,-1.6673,-1.4115,-1.2543,-1.2494,-1.2501,-1.2508,-1.2528,-1.2846,-1.3009,-1.3023,-1.3261,-1.3403,-1.3403,-1.3403,-1.3403,-1.3403,-1.3403,-1.3403,-1.3403,-1.3403,-1.3403,-1.3403,-1.3403,-1.3403,-1.3403,-1.3403,-1.3403,-1.3403,-1.3403,-1.3403,-1.3403,-0.9444,-0.941,-0.9437,-0.9496,-0.951,-0.9544,-0.9625,-0.9639,-0.9659,-0.9727,-0.9704,-0.9724,-0.9785,-1.0203,-1.0377,-1.0102,-1.0515,-1.0689,-1.0566,-1.0535,-1.0578,-1.0672,-1.0712,-1.0748,-1.0748,-1.097,-1.1102,-1.1102,-1.1357,-1.1466,-1.1466,-1.1663,-1.1836,-1.2007,-1.2076,-1.2206,-1.2379,-1.2314,-1.3186,-1.4633,-1.3789,-1.3607,-1.4062,-1.6328,-1.6574,-1.5607,-1.4632,-1.3665,-1.2716,-1.1922,-1.158,-1.1427,-1.1159,-1.107,-1.1056,-1.0995,-1.0921,-1.0819,-1.0819,-1.0752,-1.0684,-1.0684,-1.0684,-1.0684,-1.0684,-1.0684,-1.0684,-1.0684,0.0,0.0,0.0,0.0,0.0,0.0,-1.3641,-1.3668,-1.3622,-1.3752,-1.4509,-1.6318,-1.6638,-1.7073,-1.7829,-1.6115,-1.5003,-1.5121,-1.3327,-1.2223,-1.2372,-1.2461,-1.2501,-1.2501,-1.2839,-1.3003,-1.3003,-1.3254,-1.3403,-1.3403,-1.3403,-1.3403,-1.3403,-1.3403,-1.3403,-1.3403,-1.3403,-1.3403,-1.3403,-1.3403,-1.3403,-1.3403,-1.3403,-1.3403,-1.3403,-1.3403,-1.3403,-1.3403,-0.9544,-0.9503,-0.9537,-0.9646,-0.9666,-0.97,-0.9771,-0.9792,-0.9866,-0.9998,-1.0005,-1.0019,-1.0067,-1.0605,-1.0813,-1.0481,-1.0946,-1.1238,-1.1175,-1.1144,-1.1197,-1.1285,-1.1337,-1.1391,-1.1391,-1.15,-1.1554,-1.1554,-1.1797,-1.1923,-1.1923,-1.2185,-1.2338,-1.2444,-1.2657,-1.2806,-1.2921,-1.326,-1.3595,-1.3874,-1.405,-1.449,-1.5185,-1.6413,-1.6131,-1.5068,-1.4673,-1.3706,-1.2613,-1.2364,-1.215,-1.1935,-1.1657,-1.1504,-1.1427,-1.1345,-1.1159,-1.0975,-1.0975,-1.0928,-1.0833,-1.0759,-1.0752,-1.0738,-1.0698,-1.0684,-1.0684,-1.0684,-1.0684,0.0,0.0,0.0,-1.1035,-1.1997,0.0,-1.2208,-1.2161,-1.22,-1.2848,-1.4521,-1.5293,-1.5739,-1.5889,-1.464,-1.394,-1.4103,-1.286,-1.2166,-1.2284,-1.2427,-1.2501,-1.2501,-1.2759,-1.2955,-1.3003,-1.3214,-1.3356,-1.3403,-1.3403,-1.3403,-1.3403,-1.3403,-1.3403,-1.3403,-1.3403,-1.3403,-1.3403,-1.3403,-1.3403,-1.3403,-1.3403,-1.3403,-1.3403,-1.3403,-1.3403,-1.3403,-0.9778,-0.9778,-0.9778,-0.9785,-0.9785,-0.9785,-0.9792,-0.9792,-0.9998,-1.0521,-1.0574,-1.0631,-1.0756,-1.1348,-1.1506,-1.0834,-1.138,-1.1633,-1.1316,-1.1285,-1.1285,-1.1292,-1.1505,-1.1588,-1.1588,-1.204,-1.2256,-1.2256,-1.2593,-1.2758,-1.2766,-1.2437,-1.2477,-1.2774,-1.2677,-1.2781,-1.3201,-1.4833,-1.5606,-1.5942,-1.7541,-1.8425,-1.8373,-1.5005,-1.3822,-1.3897,-1.3497,-1.3207,-1.2991,-1.2991,-1.288,-1.2744,-1.2524,-1.2226,-1.1952,-1.1725,-1.1434,-1.1193,-1.1193,-1.1186,-1.1152,-1.0941,-1.0873,-1.0867,-1.0718,-1.0684,-1.0684,-1.0684,-1.0684,-1.0684,-1.0684,-1.0684,-1.067,0.0,-1.0688,0.0,0.0,-1.0688,-1.1404,-1.3059,-1.472,-1.5739,-1.5889,-1.4553,-1.3837,-1.4087,-1.286,-1.2166,-1.2284,-1.2427,-1.2501,-1.2501,-1.2657,-1.2807,-1.3003,-1.3146,-1.3254,-1.3403,-1.3403,-1.3403,-1.3403,-1.3403,-1.3403,-1.3403,-1.3403,-1.3403,-1.3403,-1.3403,-1.3403,-1.3403,-1.3403,-1.3403,-1.3403,-1.3403,-1.3403,-1.3403,-1.0127,-1.0127,-1.0059,-0.9825,-0.9873,-1.0036,-1.0419,-1.0465,-1.0611,-1.1014,-1.0864,-1.089,-1.1305,-1.1844,-1.2109,-1.1881,-1.2333,-1.2593,-1.2495,-1.2359,-1.2351,-1.2495,-1.2447,-1.2383,-1.2383,-1.2545,-1.2634,-1.2634,-1.2741,-1.2807,-1.2807,-1.2667,-1.2765,-1.3011,-1.2967,-1.3064,-1.3321,-1.3983,-1.4378,-1.4638,-1.5452,-1.5884,-1.6173,-1.6846,-1.6552,-1.5745,-1.5606,-1.4871,-1.3901,-1.3679,-1.3567,-1.3454,-1.2995,-1.277,-1.2625,-1.2456,-1.2233,-1.2013,-1.1804,-1.1622,-1.1462,-1.1173,-1.109,-1.1077,-1.1023,-1.0941,-1.084,-1.084,-1.0759,-1.0684,-1.0684,-1.0684,-1.0704,0.0,-1.065,-1.0671,0.0,-1.065,-1.0904,-1.1485,-1.2127,-1.26,-1.277,-1.2405,-1.2243,-1.2431,-1.2115,-1.1979,-1.2166,-1.2277,-1.2406,-1.2501,-1.2611,-1.2807,-1.3003,-1.3146,-1.3247,-1.3403,-1.3403,-1.3403,-1.3403,-1.3403,-1.3403,-1.3403,-1.3403,-1.3403,-1.3403,-1.3403,-1.3403,-1.3403,-1.3403,-1.3403,-1.3403,-1.3403,-1.3403,-1.3403,-1.0315,-1.041,-1.0405,-1.0205,-1.0346,-1.0538,-1.077,-1.0912,-1.1146,-1.1641,-1.1503,-1.1553,-1.1967,-1.2455,-1.2692,-1.2559,-1.2956,-1.3223,-1.3223,-1.3092,-1.3076,-1.3189,-1.3084,-1.2994,-1.2896,-1.2896,-1.2864,-1.2807,-1.2807,-1.2807,-1.2807,-1.2864,-1.2986,-1.31,-1.323,-1.336,-1.3516,-1.428,-1.4351,-1.4034,-1.4383,-1.4635,-1.5009,-1.6815,-1.6907,-1.6107,-1.6107,-1.54,-1.4455,-1.4268,-1.4154,-1.4001,-1.3641,-1.3419,-1.3286,-1.3216,-1.3001,-1.2732,-1.2423,-1.2257,-1.2043,-1.1587,-1.149,-1.1441,-1.1248,-1.109,-1.1023,-1.1023,-1.0874,-1.0765,-1.0765,-1.0725,-1.0684,0.0,0.0,-1.0684,0.0,-1.0684,-1.0684,-1.0684,-1.0772,-1.0894,-1.107,-1.1254,-1.1375,-1.1525,-1.1685,-1.1898,-1.2091,-1.2247,-1.2352,-1.2494,-1.2596,-1.2745,-1.3003,-1.3091,-1.3241,-1.3403,-1.3403,-1.3403,-1.3403,-1.3403,-1.3403,-1.3403,-1.3403,-1.3403,-1.3403,-1.3403,-1.3403,-1.3403,-1.3403,-1.3403,-1.3403,-1.3403,-1.3403,-1.3403,-1.0335,-1.0622,-1.0845,-1.0852,-1.1124,-1.1243,-1.0948,-1.117,-1.1634,-1.2355,-1.2443,-1.2543,-1.2803,-1.3194,-1.3279,-1.29,-1.321,-1.3459,-1.3459,-1.3443,-1.3427,-1.3427,-1.341,-1.3321,-1.3108,-1.3108,-1.3027,-1.2831,-1.2831,-1.2831,-1.2831,-1.3035,-1.3116,-1.3133,-1.3455,-1.3617,-1.3763,-1.5551,-1.5506,-1.4237,-1.4578,-1.4822,-1.5006,-1.5015,-1.5015,-1.5015,-1.5006,-1.4901,-1.4724,-1.4724,-1.4603,-1.4419,-1.4411,-1.4189,-1.3921,-1.3913,-1.3661,-1.3297,-1.3095,-1.305,-1.2903,-1.2243,-1.2051,-1.1903,-1.1372,-1.1255,-1.1206,-1.1206,-1.1056,-1.0928,-1.0928,-1.0806,-1.0704,0.0,0.0,-1.0684,-1.0684,-1.0684,-1.0684,-1.0684,-1.0684,-1.0745,-1.0901,-1.1077,-1.1261,-1.1382,-1.1624,-1.1891,-1.2091,-1.2241,-1.2345,-1.2494,-1.2501,-1.2651,-1.2996,-1.3003,-1.3152,-1.3403,-1.3403,-1.3403,-1.3403,-1.3403,-1.3403,-1.3403,-1.3403,-1.3403,-1.3403,-1.3403,-1.3403,-1.3403,-1.3403,-1.3403,-1.3403,-1.3403,-1.3403,-1.3403,-1.0642,-1.1101,-1.1563,-1.1674,-1.179,-1.1942,-1.2122,-1.2194,-1.247,-1.307,-1.3009,-1.3106,-1.3565,-1.3852,-1.3982,-1.4002,-1.4083,-1.412,-1.412,-1.3912,-1.3766,-1.3766,-1.3549,-1.3386,-1.3337,-1.3337,-1.3313,-1.3238,-1.3238,-1.3238,-1.3238,-1.3313,-1.3376,-1.3471,-1.3569,-1.3755,-1.4086,-1.4566,-1.4694,-1.4594,-1.4814,-1.4966,-1.5023,-1.5114,-1.5171,-1.5147,-1.5055,-1.4974,-1.4941,-1.4941,-1.4909,-1.4806,-1.4676,-1.456,-1.4461,-1.4324,-1.421,-1.4054,-1.3747,-1.3666,-1.3569,-1.3088,-1.2685,-1.2323,-1.2215,-1.1739,-1.1335,-1.1335,-1.1212,-1.1104,-1.1104,-1.1077,-1.1016,-1.0874,-1.0759,-1.0684,-1.0684,-1.0684,-1.0684,-1.0684,-1.0684,-1.0745,-1.0901,-1.1077,-1.1261,-1.1382,-1.1565,-1.1789,-1.2084,-1.2139,-1.2275,-1.2494,-1.2501,-1.2651,-1.2996,-1.3003,-1.3152,-1.3403,-1.3403,-1.3403,-1.3403,-1.3403,-1.3403,-1.3403,-1.3403,-1.3403,-1.3403,-1.3403,-1.3403,-1.3403,-1.3403,-1.3403,-1.3403,-1.3403,-1.3403,-1.3403,-1.1073,-1.168,-1.2326,-1.2587,-1.2649,-1.2686,-1.2673,-1.287,-1.3194,-1.3579,-1.3589,-1.373,-1.4079,-1.4229,-1.4326,-1.4387,-1.4395,-1.4395,-1.4395,-1.4209,-1.4131,-1.4131,-1.3872,-1.372,-1.3604,-1.353,-1.3449,-1.3402,-1.3402,-1.3402,-1.341,-1.3449,-1.3547,-1.3617,-1.3771,-1.3993,-1.4225,-1.4343,-1.457,-1.4838,-1.5017,-1.5082,0.0,-1.5254,-1.5318,-1.5302,-1.5244,-1.5204,-1.5195,-1.5114,-1.5082,-1.5057,-1.4879,-1.4822,-1.4797,-1.47,-1.4667,-1.4614,-1.4308,-1.4255,-1.409,-1.3424,-1.3185,-1.3037,-1.2669,-1.2336,-1.2051,-1.1908,-1.1698,-1.1504,-1.133,-1.124,-1.1172,-1.1056,-1.088,-1.0786,-1.0786,-1.0732,-1.0684,-1.0684,-1.0745,-1.0819,-1.0907,-1.1077,-1.1261,-1.1382,-1.1531,-1.1748,-1.2084,-1.2098,-1.2234,-1.2494,-1.2501,-1.2651,-1.2996,-1.3003,-1.3152,-1.3403,-1.3403,-1.3403,-1.3403,-1.3403,-1.3403,-1.3403,-1.3403,-1.3403,-1.3403,-1.3403,-1.3403,-1.3403,-1.3403,-1.3403,-1.3403,-1.3403,-1.3403,-1.3403,-1.1692,-1.2331,-1.2961,-1.3399,-1.3492,-1.3378,-1.3055,-1.3359,-1.3714,-1.3945,-1.4131,-1.4302,-1.4411,-1.4452,-1.4468,-1.4468,-1.4468,-1.4468,-1.4468,-1.4444,-1.4427,-1.4427,-1.4302,-1.4131,-1.3977,-1.3787,-1.3625,-1.3508,-1.3508,-1.35,-1.3476,-1.3569,-1.3658,-1.369,-1.4042,-1.4205,-1.4306,-1.4603,-1.4846,-1.5055,-1.514,-1.5213,-1.5254,-1.548,-1.5553,-1.5553,-1.5577,-1.5553,-1.5448,-1.5294,-1.5237,-1.5205,-1.509,-1.508,-1.5072,-1.5047,-1.5039,-1.496,-1.4789,-1.4741,-1.4519,-1.3649,-1.367,-1.3729,-1.3021,-1.2971,-1.2963,-1.267,-1.233,-1.1945,-1.1627,-1.1377,-1.1227,-1.1227,-1.107,-1.0941,-1.0941,-1.0826,-1.0778,-1.0778,-1.086,0.0,-1.0968,-1.1118,-1.1281,-1.1382,-1.1531,-1.1748,-1.2084,-1.2098,-1.2234,-1.2494,-1.2501,-1.2651,-1.2996,-1.3003,-1.3152,-1.3403,-1.3403,-1.3403,-1.3403,-1.3403,-1.3403,-1.3403,-1.3403,-1.3403,-1.3403,-1.3403,-1.3403,-1.3403,-1.3403,-1.3403,-1.3403,-1.3403,-1.3403,-1.3403,-1.3012,-1.3058,-1.3216,-1.3712,-1.3937,-1.4083,-1.4111,-1.3954,-1.3969,-1.4257,-1.4497,-1.4627,-1.4659,-1.4789,-1.4871,-1.4871,-1.4871,-1.4871,-1.4871,-1.4741,-1.4659,-1.4659,-1.4489,-1.4338,-1.4306,-1.4273,-1.4168,-1.407,-1.407,-1.3961,-1.3807,-1.3839,-1.3937,-1.4083,-1.4184,-1.4343,-1.4627,-1.483,-1.5025,-1.5156,-1.5189,-1.5294,-1.5488,-1.5658,-1.5772,-1.5748,-1.5861,-1.5723,-1.5472,-1.548,-1.5463,-1.5424,-1.5431,-1.5415,-1.539,-1.5197,-1.5148,-1.5108,-1.5006,-1.4958,-1.4911,-1.4726,-1.4386,-1.4019,-1.3906,-1.3551,-1.3215,-1.3178,-1.2765,-1.2373,-1.23,-1.1781,-1.1348,-1.1348,-1.1226,-1.1159,-1.1159,-1.1138,-1.1118,-1.1118,-1.1145,-1.1172,-1.1301,-1.1335,-1.1362,-1.1389,-1.1531,-1.1748,-1.2084,-1.2098,-1.2234,-1.2494,-1.2501,-1.2651,-1.2996,-1.3003,-1.3152,-1.3403,-1.3403,-1.3403,-1.3403,-1.3403,-1.3403,-1.3403,-1.3403,-1.3403,-1.3403,-1.3403,-1.3403,-1.3403,-1.3403,-1.3403,-1.3403,-1.3403,-1.3403,-1.3403,-1.3574,-1.3721,-1.3858,-1.4128,-1.4253,-1.4399,-1.4667,-1.4562,-1.4513,-1.4684,-1.4871,-1.4978,-1.5114,-1.5204,-1.5252,-1.5252,-1.5252,-1.5212,-1.5114,-1.5033,-1.4944,-1.4846,-1.4667,-1.4578,-1.4578,-1.4444,-1.4354,-1.431,-1.431,-1.4261,-1.418,-1.418,-1.4221,-1.431,-1.4408,-1.4603,-1.4854,-1.5033,-1.5155,-1.5213,-1.5439,-1.5569,-1.5666,-1.5845,-1.591,-1.5926,-1.5975,-1.5894,-1.574,-1.5683,-1.565,-1.5634,-1.5545,-1.5512,-1.5496,-1.5367,-1.5343,-1.5327,-1.5277,-1.5179,-1.5067,-1.4835,-1.4661,-1.4495,-1.4312,-1.4141,-1.3904,-1.3492,-1.3133,-1.2764,-1.2358,-1.1914,-1.1619,-1.1619,-1.143,-1.1315,-1.1315,-1.1247,-1.12,-1.12,-1.1268,-1.1342,-1.1382,-1.1463,-1.1511,-1.1511,-1.1579,-1.1748,-1.2084,-1.2098,-1.2234,-1.2494,-1.2576,-1.2732,-1.3003,-1.3071,-1.318,-1.3403,-1.3403,-1.3403,-1.3403,-1.3403,-1.3403,-1.3403,-1.3403,-1.3403,-1.3403,-1.3403,-1.3403,-1.3403,-1.3403,-1.3403,-1.3403,-1.3403,-1.3403,-1.3403,-1.3938,-1.4233,-1.4468,-1.4538,-1.4541,-1.467,-1.5033,-1.512,-1.512,-1.512,-1.5212,-1.531,-1.5464,-1.5512,-1.5512,-1.5512,-1.5512,-1.5416,-1.527,-1.5262,-1.522,-1.5033,-1.4895,-1.4806,-1.4765,-1.4619,-1.4529,-1.4452,-1.4452,-1.4395,-1.4282,-1.4354,-1.4419,-1.446,-1.4684,-1.4862,-1.5033,-1.5179,-1.5245,-1.5374,-1.5658,-1.5837,-1.5845,-1.595,-1.6007,-1.6007,-1.6007,-1.6007,-1.5983,-1.5878,-1.5829,-1.5804,-1.5675,-1.5626,-1.5618,-1.5585,-1.5569,-1.5561,-1.5528,-1.5367,-1.5183,-1.4861,-1.4921,-1.4948,-1.4647,-1.4665,-1.4567,-1.3961,-1.3529,-1.3036,-1.2254,-1.1965,-1.184,-1.184,-1.1653,-1.1484,-1.1484,-1.1355,-1.1295,-1.1295,-1.1369,-1.1443,-1.1443,-1.1552,-1.1597,-1.1624,-1.1631,-1.1782,-1.2084,-1.2132,-1.2268,-1.2494,-1.2611,-1.2807,-1.3003,-1.3146,-1.3247,-1.3403,-1.3403,-1.3403,-1.3403,-1.3403,-1.3403,-1.3403,-1.3403,-1.3403,-1.3403,-1.3403,-1.3403,-1.3403,-1.3403,-1.3403,-1.3403,-1.3403,-1.3403,-1.3403,-1.4346,-1.4546,-1.4732,-1.4925,-1.5049,-1.5189,-1.5431,-1.5463,-1.5463,-1.5463,-1.548,-1.5496,-1.5512,-1.5512,-1.5512,-1.5512,-1.5512,-1.5512,-1.5448,-1.5448,-1.5367,-1.5181,-1.5156,-1.5114,-1.4982,-1.4966,-1.4838,-1.4684,-1.4684,-1.4432,-1.3961,-1.4241,-1.4484,-1.4692,-1.4862,-1.5041,-1.5173,-1.5197,-1.5423,-1.5764,-1.5756,-1.5869,-1.5983,-1.5999,-1.6007,-1.6007,-1.6007,-1.6007,-1.5999,-1.5983,-1.5983,-1.5975,-1.5958,-1.5958,-1.5926,-1.5796,-1.5788,-1.5715,-1.5561,-1.5504,-1.5448,-1.5408,-1.531,-1.5173,-1.5134,-1.5035,-1.4944,-1.4867,-1.4113,-1.3198,-1.2274,-1.2084,-1.2077,-1.2077,-1.1898,-1.1753,-1.1753,-1.1667,-1.1579,-1.1579,-1.1556,-1.1563,-1.1563,-1.1577,-1.1638,-1.1766,-1.1773,-1.1884,-1.2091,-1.2234,-1.2338,-1.2494,-1.2611,-1.2807,-1.3003,-1.3146,-1.3247,-1.3403,-1.3403,-1.3403,-1.3403,-1.3403,-1.3403,-1.3403,-1.3403,-1.3403,-1.3403,-1.3403,-1.3403,-1.3403,-1.3403,-1.3403,-1.3403,-1.3403,-1.3403,-1.3403,-1.4749,-1.4992,-1.5212,-1.5285,-1.5358,-1.5463,-1.5642,-1.5666,-1.5707,-1.578,-1.574,-1.5715,-1.578,-1.5796,-1.5796,-1.5796,-1.5796,-1.5788,-1.5675,-1.5666,-1.5593,-1.5375,-1.5367,-1.5317,-1.513,-1.513,-1.5041,-1.4862,-1.4862,-1.4749,-1.4546,-1.4684,-1.4854,-1.4986,-1.5098,-1.5228,-1.5375,-1.552,-1.5642,-1.5821,-1.5894,-1.5942,-1.6007,-1.6007,-1.6007,-1.6007,-1.6007,-1.6007,-1.6007,-1.6007,-1.6007,-1.6007,-1.6007,-1.6007,-1.5991,-1.5959,-1.5934,-1.5877,-1.5813,-1.5756,-1.5666,-1.5666,-1.5536,-1.5367,-1.5367,-1.526,-1.5053,-1.4812,-1.3945,-1.3082,-1.2453,-1.2257,-1.2234,-1.2234,-1.2104,-1.1972,-1.1972,-1.1918,-1.1884,-1.1884,-1.1884,-1.1884,-1.1884,-1.1884,-1.1904,-1.1965,-1.1884,-1.1901,-1.2189,-1.2257,-1.2352,-1.2494,-1.2739,-1.2941,-1.3003,-1.3193,-1.3342,-1.3403,-1.3403,-1.3403,-1.3403,-1.3403,-1.3403,-1.3403,-1.3403,-1.3403,-1.3403,-1.3403,-1.3403,-1.3403,-1.3403,-1.3403,-1.3403,-1.3403,-1.3403,-1.3403,-1.5169,-1.5342,-1.5528,-1.5585,-1.5593,-1.565,-1.5829,-1.5853,-1.5902,-1.5991,-1.5934,-1.5902,-1.5991,-1.6007,-1.6007,-1.6007,-1.6007,-1.595,-1.5861,-1.5853,-1.5772,-1.5601,-1.5593,-1.5504,-1.5286,-1.5278,-1.526,-1.5169,-1.5169,-1.5112,-1.5006,-1.5006,-1.509,-1.5278,-1.5278,-1.5383,-1.5601,-1.5723,-1.5804,-1.5861,-1.595,-1.6007,-1.6007,-1.6007,-1.6007,-1.6007,-1.6007,-1.6007,-1.6007,-1.6007,-1.6007,-1.6007,-1.6007,-1.6007,-1.6007,-1.6007,-1.6007,-1.6007,-1.6007,-1.591,-1.5853,-1.5853,-1.5723,-1.5593,-1.5593,-1.5408,-1.5144,-1.4696,-1.3925,-1.3215,-1.274,-1.2497,-1.2352,-1.2352,-1.2268,-1.2166,-1.2166,-1.2125,-1.2098,-1.2098,-1.2098,-1.2098,-1.2098,-1.2098,-1.2118,-1.2166,-1.2026,-1.206,-1.2277,-1.2332,-1.242,-1.2562,-1.286,-1.3023,-1.3064,-1.3275,-1.3403,-1.3403,-1.3403,-1.3403,-1.3403,-1.3403,-1.3403,-1.3403,-1.3403,-1.3403,-1.3403,-1.3403,-1.3403,-1.3403,-1.3403,-1.3403,-1.3403,-1.3403,-1.3403,-1.3403,-1.5512,-1.5512,-1.5569,-1.574,-1.5812,-1.5829,-1.5975,-1.5999,-1.5999,-1.6007,-1.5999,-1.5999,-1.6007,-1.6007,-1.6007,-1.6007,-1.6007,-1.6007,-1.5999,-1.5999,-1.5918,-1.5821,-1.5812,-1.5691,-1.5512,-1.5512,-1.5512,-1.5512,-1.5512,-1.5325,-1.5006,-1.5006,-1.5202,-1.5512,-1.5512,-1.561,-1.5812,-1.5812,-1.5878,-1.5999,-1.6007,-1.6007,-1.6007,-1.6007,-1.6007,-1.6007,-1.6007,-1.6007,-1.6007,-1.6007,-1.6007,-1.6007,-1.6007,-1.6007,-1.6007,-1.6007,-1.6007,-1.6007,-1.6007,-1.5999,-1.5999,-1.5999,-1.5902,-1.5812,-1.5812,-1.5634,-1.5344,-1.472,-1.425,-1.3806,-1.3187,-1.2772,-1.2501,-1.2501,-1.2379,-1.2284,-1.2284,-1.2193,-1.2098,-1.2098,-1.2098,-1.2098,-1.2098,-1.2098,-1.2166,-1.2277,-1.2284,-1.2284,-1.2291,-1.242,-1.2569,-1.2686,-1.2881,-1.3071,-1.3207,-1.3322,-1.3403,-1.3403,-1.3403,-1.3403,-1.3403,-1.3403,-1.3403,-1.3403,-1.3403,-1.3403,-1.3403,-1.3403,-1.3403,-1.3403,-1.3403,-1.3403,-1.3403,-1.3403,-1.3403,-1.3403,-1.5691,-1.5796,-1.5853,-1.5951,-1.5959,-1.5934,-1.5999,-1.6007,-1.6007,-1.6007,-1.6007,-1.6007,-1.6007,-1.6007,-1.6007,-1.6007,-1.6007,-1.6007,-1.6007,-1.6007,-1.5983,-1.5918,-1.5959,-1.5878,-1.5699,-1.5691,-1.5634,-1.5512,-1.5512,-1.5455,-1.5342,-1.5342,-1.5463,-1.5691,-1.5691,-1.5788,-1.5959,-1.5959,-1.595,-1.6007,-1.6007,-1.6007,-1.6007,-1.6007,-1.6007,-1.6007,-1.6007,-1.6007,-1.6007,-1.6007,-1.6007,-1.6007,-1.6007,-1.6007,-1.6007,-1.6007,-1.6007,-1.6007,-1.6007,-1.6007,-1.6007,-1.6007,-1.5958,-1.5959,-1.5959,-1.5821,-1.5522,-1.4939,-1.471,-1.437,-1.3605,-1.3276,-1.301,-1.2696,-1.2528,-1.2433,-1.2433,-1.2393,-1.2359,-1.2359,-1.2359,-1.2359,-1.2359,-1.2359,-1.2379,-1.2433,-1.2433,-1.2433,-1.2433,-1.2474,-1.2569,-1.2686,-1.2881,-1.3071,-1.3214,-1.3322,-1.3403,-1.3403,-1.3403,-1.3403,-1.3403,-1.3403,-1.3403,-1.3403,-1.3403,-1.3403,-1.3403,-1.3403,-1.3403,-1.3403,-1.3403,-1.3403,-1.3403,-1.3403,-1.3403,-1.3403,-1.5878,-1.5926,-1.6007,-1.6007,-1.6007,-1.6007,-1.6007,-1.6007,-1.6007,-1.6007,-1.6007,-1.6007,-1.6007,-1.6007,-1.6007,-1.6007,-1.6007,-1.6007,-1.6007,-1.6007,-1.6007,-1.6007,-1.6007,-1.595,-1.5878,-1.5878,-1.5821,-1.5675,-1.5675,-1.5675,-1.5675,-1.5675,-1.5732,-1.5878,-1.5878,-1.5943,-1.6007,-1.6007,-1.6007,-1.6007,-1.6007,-1.6007,-1.6007,-1.6007,-1.6007,-1.6007,-1.6007,-1.6007,-1.6007,-1.6007,-1.6007,-1.6007,-1.6007,-1.6007,-1.6007,-1.6007,-1.6007,-1.6007,-1.6007,-1.6007,-1.6007,-1.6007,-1.6007,-1.5966,-1.5793,-1.5713,-1.5496,-1.4886,-1.4727,-1.4504,-1.3756,-1.3551,-1.3328,-1.2893,-1.2691,-1.2589,-1.2589,-1.2535,-1.2501,-1.2501,-1.2501,-1.2501,-1.2501,-1.2501,-1.2501,-1.2501,-1.2556,-1.2589,-1.2589,-1.2589,-1.2684,-1.2888,-1.299,-1.3152,-1.3254,-1.3356,-1.3403,-1.3403,-1.3403,-1.3403,-1.3403,-1.3403,-1.3403,-1.3403,-1.3403,-1.3403,-1.3403,-1.3403,-1.3403,-1.3403,-1.3403,-1.3403,-1.3403,-1.3403,-1.3403,-1.3403,-1.6007,-1.6007,-1.6007,-1.6007,-1.6007,-1.6007,-1.6007,-1.6007,-1.6007,-1.6007,-1.6007,-1.6007,-1.6007,-1.6007,-1.6007,-1.6007,-1.6007,-1.6007,-1.6007,-1.6007,-1.6007,-1.6007,-1.6007,-1.6007,-1.6007,-1.6007,-1.6007,-1.6007,-1.6007,-1.6007,-1.6007,-1.6007,-1.6007,-1.6007,-1.6007,-1.6007,-1.6007,-1.6007,-1.6007,-1.6007,-1.6007,-1.6007,-1.6007,-1.6007,-1.6007,-1.6007,-1.6007,-1.6007,-1.6007,-1.6007,-1.6007,-1.6007,-1.6007,-1.6007,-1.6007,-1.6007,-1.6007,-1.6007,-1.6007,-1.6007,-1.6007,-1.6007,-1.6007,-1.5883,-1.5546,-1.5422,-1.526,-1.469,-1.4538,-1.4331,-1.3727,-1.3611,-1.3483,-1.3096,-1.2847,-1.2706,-1.2706,-1.2623,-1.2535,-1.2535,-1.2535,-1.2535,-1.2535,-1.2535,-1.2535,-1.2535,-1.2664,-1.2713,-1.272,-1.272,-1.2888,-1.3207,-1.3214,-1.3247,-1.3397,-1.3403,-1.3403,-1.3403,-1.3403,-1.3403,-1.3403,-1.3403,-1.3403,-1.3403,-1.3403,-1.3403,-1.3403,-1.3403,-1.3403,-1.3403,-1.3403,-1.3403,-1.3403,-1.3403,-1.3403,-1.3403,-1.6007,-1.6007,-1.6007,-1.6007,-1.6007,-1.6007,-1.6007,-1.6007,-1.6007,-1.6007,-1.6007,-1.6007,-1.6007,-1.6007,-1.6007,-1.6007,-1.6007,-1.6007,-1.6007,-1.6007,-1.6007,-1.6007,-1.6007,-1.6007,-1.6007,-1.6007,-1.6007,-1.6007,-1.6007,-1.6007,-1.6007,-1.6007,-1.6007,-1.6007,-1.6007,-1.6007,-1.6007,-1.6007,-1.6007,-1.6007,-1.6007,-1.6007,-1.6007,-1.6007,-1.6007,-1.6007,-1.6007,-1.6007,-1.6007,-1.6007,-1.6007,-1.6007,-1.6007,-1.6007,-1.6007,-1.6007,-1.6007,-1.6007,-1.6007,-1.6007,-1.6007,-1.6007,-1.6007,-1.5966,-1.5883,-1.5628,-1.5373,-1.5211,-1.4908,-1.4523,-1.4042,-1.3853,-1.3605,-1.32,-1.3043,-1.2948,-1.2948,-1.2914,-1.2894,-1.2894,-1.2894,-1.2894,-1.2894,-1.2894,-1.2894,-1.2894,-1.2928,-1.2956,-1.3064,-1.3071,-1.3098,-1.3214,-1.3214,-1.3247,-1.3397,-1.3403,-1.3403,-1.3403,-1.3403,-1.3403,-1.3403,-1.3403,-1.3403,-1.3403,-1.3403,-1.3403,-1.3403,-1.3403,-1.3403,-1.3403,-1.3403,-1.3403,-1.3403,-1.3403,-1.3403,-1.3403,-1.6007,-1.6007,-1.6007,-1.6007,-1.6007,-1.6007,-1.6007,-1.6007,-1.6007,-1.6007,-1.6007,-1.6007,-1.6007,-1.6007,-1.6007,-1.6007,-1.6007,-1.6007,-1.6007,-1.6007,-1.6007,-1.6007,-1.6007,-1.6007,-1.6007,-1.6007,-1.6007,-1.6007,-1.6007,-1.6007,-1.6007,-1.6007,-1.6007,-1.6007,-1.6007,-1.6007,-1.6007,-1.6007,-1.6007,-1.6007,-1.6007,-1.6007,-1.6007,-1.6007,-1.6007,-1.6007,-1.6007,-1.6007,-1.6007,-1.6007,-1.6007,-1.6007,-1.6007,-1.6007,-1.6007,-1.6007,-1.6007,-1.6007,-1.6007,-1.6007,-1.6007,-1.6007,-1.6007,-1.5883,-1.5505,-1.5257,-1.4968,-1.4555,-1.4431,-1.4307,-1.3859,-1.3872,-1.3815,-1.3357,-1.3193,-1.3098,-1.3098,-1.3043,-1.3003,-1.3003,-1.3003,-1.3003,-1.3003,-1.3003,-1.3003,-1.3003,-1.3064,-1.3132,-1.3207,-1.3282,-1.3275,-1.3275,-1.3275,-1.3315,-1.3403,-1.3403,-1.3403,-1.3403,-1.3403,-1.3403,-1.3403,-1.3403,-1.3403,-1.3403,-1.3403,-1.3403,-1.3403,-1.3403,-1.3403,-1.3403,-1.3403,-1.3403,-1.3403,-1.3403,-1.3403,-1.3403,-1.6007,-1.6007,-1.6007,-1.6007,-1.6007,-1.6007,-1.6007,-1.6007,-1.6007,-1.6007,-1.6007,-1.6007,-1.6007,-1.6007,-1.6007,-1.6007,-1.6007,-1.6007,-1.6007,-1.6007,-1.6007,-1.6007,-1.6007,-1.6007,-1.6007,-1.6007,-1.6007,-1.6007,-1.6007,-1.6007,-1.6007,-1.6007,-1.6007,-1.6007,-1.6007,-1.6007,-1.6007,-1.6007,-1.6007,-1.6007,-1.6007,-1.6007,-1.6007,-1.6007,-1.6007,-1.6007,-1.6007,-1.6007,-1.6007,-1.6007,-1.6007,-1.6007,-1.6007,-1.6007,-1.6007,-1.5925,-1.5925,-1.5925,-1.5966,-1.6007,-1.6007,-1.6007,-1.6007,-1.5793,-1.501,-1.4754,-1.4465,-1.3694,-1.3776,-1.3859,-1.3486,-1.3735,-1.3859,-1.3445,-1.3295,-1.3248,-1.3248,-1.3146,-1.3071,-1.3071,-1.3071,-1.3071,-1.3071,-1.3071,-1.3071,-1.3071,-1.318,-1.3248,-1.3248,-1.3329,-1.3403,-1.3403,-1.3403,-1.3403,-1.3403,-1.3403,-1.3403,-1.3403,-1.3403,-1.3403,-1.3403,-1.3403,-1.3403,-1.3403,-1.3403,-1.3403,-1.3403,-1.3403,-1.3403,-1.3403,-1.3403,-1.3403,-1.3403,-1.3403,-1.3403,-1.3403,-1.6007,-1.6007,-1.6007,-1.6007,-1.6007,-1.6007,-1.6007,-1.6007,-1.6007,-1.6007,-1.6007,-1.6007,-1.6007,-1.6007,-1.6007,-1.6007,-1.6007,-1.6007,-1.6007,-1.6007,-1.6007,-1.6007,-1.6007,-1.6007,-1.6007,-1.6007,-1.6007,-1.6007,-1.6007,-1.6007,-1.6007,-1.6007,-1.6007,-1.6007,-1.6007,-1.6007,-1.6007,-1.6007,-1.6007,-1.6007,-1.6007,-1.6007,-1.6007,-1.6007,-1.6007,-1.6007,-1.6007,-1.6007,-1.6007,-1.6007,-1.6007,-1.6007,-1.6007,-1.6007,-1.5925,-1.5587,-1.5505,-1.5587,-1.5925,-1.6007,-1.6007,-1.6007,-1.6007,-1.5883,-1.5381,-1.4961,-1.4548,-1.4108,-1.3735,-1.3486,-1.3403,-1.3445,-1.3486,-1.3403,-1.3383,-1.3363,-1.3363,-1.3349,-1.3336,-1.3336,-1.3336,-1.3336,-1.3336,-1.3336,-1.3336,-1.3336,-1.3356,-1.3363,-1.3363,-1.339,-1.3403,-1.3403,-1.3403,-1.3403,-1.3403,-1.3403,-1.3403,-1.3403,-1.3403,-1.3403,-1.3403,-1.3403,-1.3403,-1.3403,-1.3403,-1.3403,-1.3403,-1.3403,-1.3403,-1.3403,-1.3403,-1.3403,-1.3403,-1.3403,-1.3403,-1.3403,-1.6007,-1.6007,-1.6007,-1.6007,-1.6007,-1.6007,-1.6007,-1.6007,-1.6007,-1.6007,-1.6007,-1.6007,-1.6007,-1.6007,-1.6007,-1.6007,-1.6007,-1.6007,-1.6007,-1.6007,-1.6007,-1.6007,-1.6007,-1.6007,-1.6007,-1.6007,-1.6007,-1.6007,-1.6007,-1.6007,-1.6007,-1.6007,-1.6007,-1.6007,-1.6007,-1.6007,-1.6007,-1.6007,-1.6007,-1.6007,-1.6007,-1.6007,-1.6007,-1.6007,-1.6007,-1.6007,-1.6007,-1.6007,-1.5966,-1.5752,-1.5669,-1.5628,-1.5381,-1.5298,-1.5257,-1.5085,-1.5216,-1.5422,-1.5628,-1.5842,-1.6007,-1.6007,-1.6007,-1.5842,-1.5175,-1.4837,-1.4507,-1.3859,-1.3569,-1.3403,-1.3403,-1.3403,-1.3403,-1.3403,-1.3403,-1.3403,-1.3403,-1.3403,-1.3403,-1.3403,-1.3403,-1.3403,-1.3403,-1.3403,-1.3403,-1.3403,-1.3403,-1.3403,-1.3403,-1.3403,-1.3403,-1.3403,-1.3403,-1.3403,-1.3403,-1.3403,-1.3403,-1.3403,-1.3403,-1.3403,-1.3403,-1.3403,-1.3403,-1.3403,-1.3403,-1.3403,-1.3403,-1.3403,-1.3403,-1.3403,-1.3403,-1.3403,-1.3403,-1.3403,-1.3403,-1.3403,-1.6007,-1.6007,-1.6007,-1.6007,-1.6007,-1.6007,-1.6007,-1.6007,-1.6007,-1.6007,-1.6007,-1.6007,-1.6007,-1.6007,-1.6007,-1.6007,-1.6007,-1.6007,-1.6007,-1.6007,-1.6007,-1.6007,-1.6007,-1.6007,-1.6007,-1.6007,-1.6007,-1.6007,-1.6007,-1.6007,-1.6007,-1.6007,-1.6007,-1.6007,-1.6007,-1.6007,-1.6007,-1.6007,-1.6007,-1.6007,-1.6007,-1.6007,-1.6007,-1.6007,-1.5925,-1.5875,-1.5875,-1.5793,-1.5669,-1.534,-1.5257,-1.5175,-1.4796,-1.4713,-1.4672,-1.4597,-1.4803,-1.5133,-1.5216,-1.5546,-1.5842,-1.5711,-1.5793,-1.5628,-1.4762,-1.4555,-1.4349,-1.3562,-1.3403,-1.3403,-1.3403,-1.3403,-1.3403,-1.3403,-1.3403,-1.3403,-1.3403,-1.3403,-1.3403,-1.3403,-1.3403,-1.3403,-1.3403,-1.3403,-1.3403,-1.3403,-1.3403,-1.3403,-1.3403,-1.3403,-1.3403,-1.3403,-1.3403,-1.3403,-1.3403,-1.3403,-1.3403,-1.3403,-1.3403,-1.3403,-1.3403,-1.3403,-1.3403,-1.3403,-1.3403,-1.3403,-1.3403,-1.3403,-1.3403,-1.3403,-1.3403,-1.3403,-1.3403,-1.3403,-1.3403,-1.3403,-1.6007,-1.6007,-1.6007,-1.6007,-1.6007,-1.6007,-1.6007,-1.6007,-1.6007,-1.6007,-1.6007,-1.6007,-1.6007,-1.6007,-1.6007,-1.6007,-1.6007,-1.6007,-1.6007,-1.6007,-1.6007,-1.6007,-1.6007,-1.6007,-1.6007,-1.6007,-1.6007,-1.6007,-1.6007,-1.6007,-1.6007,-1.6007,-1.6007,-1.6007,-1.6007,-1.6007,-1.6007,-1.6007,-1.6007,-1.6007,-1.6007,-1.6007,-1.6007,-1.6007,-1.576,-1.5422,-1.5422,-1.5175,-1.4796,-1.4754,-1.4754,-1.4754,-1.4713,-1.4713,-1.4631,-1.4232,-1.4149,-1.4273,-1.4638,-1.5092,-1.534,-1.4878,-1.5133,-1.5216,-1.4356,-1.4149,-1.3983,-1.3486,-1.3403,-1.3403,-1.3403,-1.3403,-1.3403,-1.3403,-1.3403,-1.3403,-1.3403,-1.3403,-1.3403,-1.3403,-1.3403,-1.3403,-1.3403,-1.3403,-1.3403,-1.3403,-1.3403,-1.3403,-1.3403,-1.3403,-1.3403,-1.3403,-1.3403,-1.3403,-1.3403,-1.3403,-1.3403,-1.3403,-1.3403,-1.3403,-1.3403,-1.3403,-1.3403,-1.3403,-1.3403,-1.3403,-1.3403,-1.3403,-1.3403,-1.3403,-1.3403,-1.3403,-1.3403,-1.3403,-1.3403,-1.3403,-1.6007,-1.6007,-1.6007,-1.6007,-1.6007,-1.6007,-1.6007,-1.6007,-1.6007,-1.6007,-1.6007,-1.6007,-1.6007,-1.6007,-1.6007,-1.6007,-1.6007,-1.6007,-1.6007,-1.6007,-1.6007,-1.6007,-1.6007,-1.6007,-1.6007,-1.6007,-1.6007,-1.6007,-1.6007,-1.6007,-1.6007,-1.6007,-1.6007,-1.6007,-1.6007,-1.6007,-1.6007,-1.6007,-1.6007,-1.6007,-1.6007,-1.5834,-1.5628,-1.5628,-1.534,-1.4961,-1.4961,-1.4837,-1.4672,-1.439,-1.4307,-1.4266,-1.3976,-1.3894,-1.3852,-1.3694,-1.3652,-1.3694,-1.3852,-1.4431,-1.4919,-1.4754,-1.4837,-1.4803,-1.4232,-1.4108,-1.3983,-1.3486,-1.3403,-1.3403,-1.3403,-1.3403,-1.3403,-1.3403,-1.3403,-1.3403,-1.3403,-1.3403,-1.3403,-1.3403,-1.3403,-1.3403,-1.3403,-1.3403,-1.3403,-1.3403,-1.3403,-1.3403,-1.3403,-1.3403,-1.3403,-1.3403,-1.3403,-1.3403,-1.3403,-1.3403,-1.3403,-1.3403,-1.3403,-1.3403,-1.3403,-1.3403,-1.3403,-1.3403,-1.3403,-1.3403,-1.3403,-1.3403,-1.3403,-1.3403,-1.3403,-1.3403,-1.3403,-1.3403,-1.3403,-1.3403,-1.6007,-1.6007,-1.6007,-1.6007,-1.6007,-1.6007,-1.6007,-1.6007,-1.6007,-1.6007,-1.6007,-1.6007,-1.6007,-1.6007,-1.6007,-1.6007,-1.6007,-1.6007,-1.6007,-1.6007,-1.6007,-1.6007,-1.6007,-1.6007,-1.6007,-1.6007,-1.6007,-1.6007,-1.6007,-1.6007,-1.6007,-1.6007,-1.6007,-1.6007,-1.6007,-1.6007,-1.6007,-1.5883,-1.5793,-1.5793,-1.5669,-1.5422,-1.5175,-1.5175,-1.4886,-1.4514,-1.4514,-1.4431,-1.4266,-1.3983,-1.3859,-1.3818,-1.3486,-1.3403,-1.3403,-1.3403,-1.3403,-1.3403,-1.3403,-1.3852,-1.43,-1.43,-1.439,-1.439,-1.3983,-1.3859,-1.3776,-1.3486,-1.3403,-1.3403,-1.3403,-1.3403,-1.3403,-1.3403,-1.3403,-1.3403,-1.3403,-1.3403,-1.3403,-1.3403,-1.3403,-1.3403,-1.3403,-1.3403,-1.3403,-1.3403,-1.3403,-1.3403,-1.3403,-1.3403,-1.3403,-1.3403,-1.3403,-1.3403,-1.3403,-1.3403,-1.3403,-1.3403,-1.3403,-1.3424,-1.3471,-1.3471,-1.3498,-1.3539,-1.3539,-1.3539,-1.3539,-1.3539,-1.3539,-1.3539,-1.3539,-1.3539,-1.3539,-1.3539,-1.3539,-1.3539,-1.6007,-1.6007,-1.6007,-1.6007,-1.6007,-1.6007,-1.6007,-1.6007,-1.6007,-1.6007,-1.6007,-1.6007,-1.6007,-1.6007,-1.6007,-1.6007,-1.6007,-1.6007,-1.6007,-1.6007,-1.6007,-1.6007,-1.6007,-1.6007,-1.6007,-1.6007,-1.6007,-1.6007,-1.6007,-1.6007,-1.6007,-1.6007,-1.6007,-1.6007,-1.6007,-1.6007,-1.5966,-1.5587,-1.5381,-1.534,-1.4878,-1.4713,-1.4713,-1.4713,-1.4431,-1.4108,-1.4108,-1.3818,-1.3403,-1.3403,-1.3403,-1.3403,-1.3403,-1.3403,-1.3403,-1.3403,-1.3403,-1.3403,-1.3403,-1.3403,-1.3403,-1.3403,-1.3735,-1.3983,-1.3528,-1.3403,-1.3403,-1.3403,-1.3403,-1.3403,-1.3403,-1.3403,-1.3403,-1.3403,-1.3403,-1.3403,-1.3403,-1.3403,-1.3403,-1.3403,-1.3403,-1.3403,-1.3403,-1.3403,-1.3403,-1.3403,-1.3403,-1.3403,-1.3403,-1.3403,-1.3403,-1.3403,-1.3403,-1.3403,-1.3403,-1.3403,-1.3403,-1.3403,-1.3403,-1.3485,-1.3592,-1.3592,-1.3666,-1.3795,-1.3795,-1.3795,-1.3795,-1.3795,-1.3795,-1.3795,-1.3795,-1.3795,-1.3795,-1.3795,-1.3795,-1.3795,-1.6007,-1.6007,-1.6007,-1.6007,-1.6007,-1.6007,-1.6007,-1.6007,-1.6007,-1.6007,-1.6007,-1.6007,-1.6007,-1.6007,-1.6007,-1.6007,-1.6007,-1.6007,-1.6007,-1.6007,-1.6007,-1.6007,-1.6007,-1.6007,-1.6007,-1.6007,-1.6007,-1.6007,-1.6007,-1.6007,-1.6007,-1.6007,-1.6007,-1.6007,-1.6007,-1.6007,-1.5966,-1.5587,-1.5381,-1.534,-1.4878,-1.4514,-1.4273,-1.4273,-1.3983,-1.3611,-1.3611,-1.3528,-1.3403,-1.3403,-1.3403,-1.3403,-1.3403,-1.3403,-1.3403,-1.3403,-1.3403,-1.3403,-1.3403,-1.3403,-1.3403,-1.3403,-1.3528,-1.3569,-1.3445,-1.3403,-1.3403,-1.3403,-1.3403,-1.3403,-1.3403,-1.3403,-1.3403,-1.3403,-1.3403,-1.3403,-1.3403,-1.3403,-1.3403,-1.3403,-1.3403,-1.3403,-1.3403,-1.3403,-1.3403,-1.3403,-1.3403,-1.3403,-1.3403,-1.3403,-1.3451,-1.3559,-1.3559,-1.3607,-1.3666,-1.3607,-1.3559,-1.3518,-1.3619,-1.3693,-1.3734,-1.3734,-1.3754,-1.3795,-1.3795,-1.3795,-1.3795,-1.3795,-1.3795,-1.3795,-1.3795,-1.3795,-1.3795,-1.3795,-1.3795,-1.3795,-1.6007,-1.6007,-1.6007,-1.6007,-1.6007,-1.6007,-1.6007,-1.6007,-1.6007,-1.6007,-1.6007,-1.6007,-1.6007,-1.6007,-1.6007,-1.6007,-1.6007,-1.6007,-1.6007,-1.6007,-1.6007,-1.6007,-1.6007,-1.6007,-1.6007,-1.6007,-1.6007,-1.6007,-1.6007,-1.6007,-1.6007,-1.6007,-1.6007,-1.6007,-1.6007,-1.6007,-1.5966,-1.5381,-1.5133,-1.5092,-1.4431,-1.4018,-1.3818,-1.3818,-1.3652,-1.3403,-1.3403,-1.3403,-1.3403,-1.3403,-1.3403,-1.341,-1.3471,-1.3492,-1.3505,-1.3559,-1.3573,-1.3573,-1.3573,-1.3573,-1.3573,-1.3573,-1.3485,-1.3403,-1.3403,-1.3403,-1.3403,-1.3403,-1.3403,-1.3403,-1.3403,-1.3403,-1.3403,-1.3403,-1.3403,-1.3403,-1.3403,-1.3403,-1.3403,-1.3403,-1.3403,-1.3403,-1.3403,-1.3403,-1.3403,-1.3403,-1.3403,-1.3424,-1.3492,-1.3492,-1.3559,-1.3666,-1.3666,-1.3714,-1.3795,-1.3817,-1.3777,-1.3673,-1.3754,-1.3829,-1.3933,-1.3933,-1.3966,-1.3977,-1.3977,-1.3977,-1.3977,-1.3977,-1.3977,-1.3977,-1.3977,-1.3977,-1.3977,-1.3977,-1.3977,-1.3977,-1.6007,-1.6007,-1.6007,-1.6007,-1.6007,-1.6007,-1.6007,-1.6007,-1.6007,-1.6007,-1.6007,-1.6007,-1.6007,-1.6007,-1.6007,-1.6007,-1.6007,-1.6007,-1.6007,-1.6007,-1.6007,-1.6007,-1.6007,-1.6007,-1.6007,-1.6007,-1.6007,-1.6007,-1.6007,-1.6007,-1.6007,-1.6007,-1.6007,-1.6007,-1.5966,-1.5933,-1.5908,-1.5032,-1.466,-1.4592,-1.377,-1.3437,-1.3437,-1.3437,-1.3437,-1.3437,-1.3437,-1.3437,-1.3437,-1.3437,-1.3437,-1.3464,-1.3565,-1.3605,-1.3632,-1.3761,-1.3795,-1.3795,-1.3795,-1.3795,-1.3795,-1.3795,-1.3641,-1.3437,-1.3437,-1.3437,-1.3437,-1.3437,-1.3437,-1.3437,-1.3437,-1.3437,-1.3437,-1.3424,-1.3424,-1.3417,-1.3403,-1.3403,-1.3403,-1.3403,-1.3403,-1.3403,-1.3403,-1.341,-1.3424,-1.3437,-1.3437,-1.3498,-1.3599,-1.3605,-1.3673,-1.3815,-1.3822,-1.3822,-1.3835,-1.4021,-1.4014,-1.3822,-1.3835,-1.3953,-1.4139,-1.4139,-1.417,-1.4299,-1.4299,-1.4299,-1.4299,-1.4299,-1.4299,-1.4299,-1.4299,-1.4299,-1.4299,-1.4299,-1.4299,-1.4299,-1.6007,-1.6007,-1.6007,-1.6007,-1.6007,-1.6007,-1.6007,-1.6007,-1.6007,-1.6007,-1.6007,-1.6007,-1.6007,-1.6007,-1.6007,-1.6007,-1.6007,-1.6007,-1.6007,-1.6007,-1.6007,-1.6007,-1.6007,-1.6007,-1.6007,-1.6007,-1.6007,-1.6007,-1.6007,-1.6007,-1.6007,-1.6007,-1.6007,-1.6007,-1.5669,-1.5583,-1.5633,-1.4747,-1.4435,-1.4507,-1.3955,-1.37,-1.37,-1.37,-1.37,-1.37,-1.37,-1.37,-1.37,-1.37,-1.37,-1.3707,-1.3741,-1.3754,-1.3754,-1.3788,-1.3795,-1.3795,-1.3795,-1.3795,-1.3795,-1.3795,-1.3747,-1.37,-1.37,-1.37,-1.37,-1.37,-1.37,-1.37,-1.37,-1.37,-1.3666,-1.3558,-1.358,-1.3539,-1.3417,-1.3403,-1.3403,-1.3403,-1.3403,-1.3403,-1.3403,-1.3512,-1.3585,-1.3693,-1.37,-1.372,-1.3747,-1.3754,-1.3822,-1.4014,-1.4021,-1.4082,-1.4197,-1.4231,-1.4177,-1.4021,-1.4143,-1.4217,-1.4251,-1.4251,-1.4272,-1.4299,-1.4299,-1.4299,-1.4299,-1.4299,-1.4299,-1.4299,-1.4299,-1.4299,-1.4299,-1.4299,-1.4299,-1.4299,-1.6007,-1.6007,-1.6007,-1.6007,-1.6007,-1.6007,-1.6007,-1.6007,-1.6007,-1.6007,-1.6007,-1.6007,-1.6007,-1.6007,-1.6007,-1.6007,-1.6007,-1.6007,-1.6007,-1.6007,-1.6007,-1.6007,-1.6007,-1.6007,-1.6007,-1.6007,-1.6007,-1.6007,-1.6007,-1.6007,-1.6007,-1.6007,-1.5924,-1.5796,-1.5589,-1.5481,-1.534,-1.4662,-1.4451,-1.4443,-1.3973,-1.3795,-1.3795,-1.3795,-1.3795,-1.3795,-1.3795,-1.3795,-1.3795,-1.3795,-1.3795,-1.3808,-1.3926,-1.3953,-1.3966,-1.4041,-1.4061,-1.4061,-1.4061,-1.4061,-1.4061,-1.4061,-1.4061,-1.4021,-1.3829,-1.3795,-1.3795,-1.3795,-1.3795,-1.3795,-1.3795,-1.3795,-1.3774,-1.37,-1.3687,-1.366,-1.3578,-1.3607,-1.3607,-1.3607,-1.3607,-1.3607,-1.3607,-1.3639,-1.372,-1.3795,-1.3795,-1.3829,-1.3946,-1.3953,-1.4021,-1.4177,-1.4183,-1.4217,-1.4299,-1.4299,-1.4258,-1.4183,-1.4265,-1.4299,-1.4299,-1.4299,-1.4299,-1.4299,-1.4299,-1.4299,-1.4299,-1.4299,-1.4299,-1.4299,-1.4299,-1.4299,-1.4299,-1.4299,-1.4299,-1.4299,-1.6007,-1.6007,-1.6007,-1.6007,-1.6007,-1.6007,-1.6007,-1.6007,-1.6007,-1.6007,-1.6007,-1.6007,-1.6007,-1.6007,-1.6007,-1.6007,-1.6007,-1.6007,-1.6007,-1.5925,-1.5883,-1.5883,-1.5883,-1.5883,-1.5883,-1.5966,-1.6007,-1.6007,-1.6007,-1.5982,-1.5924,-1.5924,-1.5771,-1.5516,-1.5432,-1.532,-1.5086,-1.4615,-1.4457,-1.4442,-1.4048,-1.3876,-1.3876,-1.3876,-1.3876,-1.3876,-1.3876,-1.3876,-1.3876,-1.3876,-1.3876,-1.3896,-1.4068,-1.4109,-1.418,-1.4265,-1.4299,-1.4299,-1.4299,-1.4299,-1.4299,-1.4299,-1.4299,-1.4231,-1.393,-1.3876,-1.3876,-1.3876,-1.3876,-1.3876,-1.3876,-1.3876,-1.3869,-1.3842,-1.3835,-1.3829,-1.3802,-1.3795,-1.3795,-1.3795,-1.3795,-1.3808,-1.3835,-1.3835,-1.3849,-1.3876,-1.3876,-1.3973,-1.4146,-1.4109,-1.417,-1.4299,-1.4299,-1.4299,-1.4299,-1.4299,-1.4299,-1.4299,-1.4299,-1.4299,-1.4299,-1.4299,-1.4299,-1.4299,-1.4299,-1.4299,-1.4299,-1.4299,-1.4299,-1.4299,-1.4299,-1.4299,-1.4299,-1.4299,-1.4078,-1.3805,-1.6007,-1.6007,-1.6007,-1.6007,-1.6007,-1.6007,-1.6007,-1.6007,-1.6007,-1.6007,-1.6007,-1.6007,-1.6007,-1.6007,-1.6007,-1.6007,-1.6007,-1.6007,-1.6007,-1.5669,-1.5463,-1.5463,-1.5463,-1.5463,-1.5463,-1.5842,-1.6007,-1.6007,-1.6007,-1.5881,-1.5649,-1.5649,-1.549,-1.5225,-1.4842,-1.4672,-1.4735,-1.4345,-1.4203,-1.4326,-1.4282,-1.4238,-1.4238,-1.4238,-1.4238,-1.4238,-1.4238,-1.4238,-1.4238,-1.4238,-1.4238,-1.4245,-1.4265,-1.4272,-1.4272,-1.4292,-1.4299,-1.4299,-1.4299,-1.4299,-1.4299,-1.4299,-1.4299,-1.4292,-1.4245,-1.4238,-1.4238,-1.4238,-1.4238,-1.4238,-1.4238,-1.4238,-1.4197,-1.4061,-1.4041,-1.3994,-1.3815,-1.3795,-1.3795,-1.3795,-1.3795,-1.3849,-1.4027,-1.4041,-1.4095,-1.4224,-1.4238,-1.4245,-1.4272,-1.4272,-1.4278,-1.4299,-1.4299,-1.4299,-1.4299,-1.4299,-1.4299,-1.4299,-1.4299,-1.4299,-1.4299,-1.4299,-1.4299,-1.4299,-1.4299,-1.4299,-1.4299,-1.4299,-1.4299,-1.4299,-1.4299,-1.4299,-1.4299,-1.4299,-1.3224,-1.1799,-1.5966,-1.6007,-1.6007,-1.6007,-1.5793,-1.5752,-1.5966,-1.5793,-1.5752,-1.5966,-1.5793,-1.5669,-1.5669,-1.5669,-1.5546,-1.5298,-1.5505,-1.5546,-1.5298,-1.5092,-1.501,-1.501,-1.501,-1.501,-1.501,-1.5267,-1.5404,-1.5404,-1.5654,-1.5735,-1.5604,-1.5451,-1.5198,-1.4923,-1.4707,-1.4576,-1.446,-1.4285,-1.4238,-1.4299,-1.4299,-1.4299,-1.4299,-1.4299,-1.4299,-1.4299,-1.4299,-1.4299,-1.4299,-1.4299,-1.4299,-1.4299,-1.4299,-1.4299,-1.4299,-1.4299,-1.4299,-1.4299,-1.4299,-1.4299,-1.4299,-1.4299,-1.4299,-1.4299,-1.4299,-1.4299,-1.4299,-1.4299,-1.4299,-1.4299,-1.4299,-1.4299,-1.4278,-1.4211,-1.4197,-1.4177,-1.4109,-1.4095,-1.4095,-1.4095,-1.4095,-1.4122,-1.419,-1.4197,-1.4231,-1.4292,-1.4299,-1.4299,-1.4299,-1.4299,-1.4299,-1.4299,-1.4299,-1.4299,-1.4299,-1.4299,-1.4299,-1.4299,-1.4299,-1.4299,-1.4299,-1.4299,-1.4299,-1.4299,-1.4299,-1.4299,-1.4299,-1.4299,-1.4299,-1.4299,-1.4299,-1.4299,-1.4166,-1.3091,-1.2154,-1.1261]},{"header":{"parameterUnit":"m.s-1","parameterCategory":1,"la1":30.6,"la2":28.766,"lo1":-90.7593,"lo2":-88.6598,"dy":0.0162,"dx":0.0183,"nx":116,"ny":114,"refTime":"2023-09-30T06:00:00:Z","depth":0,"parameterNumber":3,"parameterNumberName":"V-component_of_WINDS"},"data":[0.0,0.0,0.0,0.0,0.0,0.0,0.0,0.0,0.0,0.0,0.0,0.0,0.0,0.0,0.0,0.0,0.0,0.0,0.0,0.0,0.0,0.0,0.0,0.0,0.0,0.0,0.0,0.0,0.0,0.0,0.0,0.0,0.0,0.0,0.0,0.0,0.0,0.0,0.0,0.0,0.0,0.0,0.0,0.0,0.0,0.0,0.0,0.0,0.0,0.0,0.0,0.0,0.0,0.0,0.0,0.0,0.0,0.0,0.0,0.0,0.0,0.0,0.0,0.0,0.0,0.0,0.0,0.0,0.0,0.0,0.0,0.0,0.0,0.0,0.0,0.0,0.0,0.0,0.0,0.0,0.0,0.0,0.0,0.0,0.0,0.0,0.0,0.0,0.0,0.0,0.0,0.0,0.0,0.0,0.0,0.0,0.0,0.0,0.0,0.0,0.0,0.0,0.0,0.0,0.0,0.0,0.0,0.0,0.0,0.0,0.0,0.0,0.0,0.0,0.0,0.0,0.0,0.0,0.0,0.0,0.0,0.0,0.0,0.0,0.0,0.0,0.0,0.0,0.0,0.0,0.0,0.0,0.0,0.0,0.0,0.0,0.0,0.0,0.0,0.0,0.0,0.0,0.0,0.0,0.0,0.0,0.0,0.0,0.0,0.0,0.0,0.0,0.0,0.0,0.0,0.0,0.0,0.0,0.0,0.0,0.0,0.0,0.0,0.0,0.0,0.0,0.0,0.0,0.0,0.0,0.0,0.0,0.0,0.0,0.0,0.0,0.0,0.0,0.0,0.0,0.0,0.0,0.0,0.0,0.0,0.0,0.0,0.0,0.0,0.0,0.0,0.0,0.0,0.0,0.0,0.0,0.0,0.0,0.0,0.0,0.0,0.0,0.0,0.0,0.0,0.0,0.0,0.0,0.0,0.0,0.0,0.0,0.0,0.0,0.0,0.0,0.0,0.0,0.0,0.0,0.0,0.0,0.0,0.0,0.0,0.0,0.0,0.0,0.0,0.0,0.0,0.0,0.0,0.0,0.0,0.0,0.0,0.0,0.0,0.0,0.0,0.0,0.0,0.0,0.0,0.0,0.0,0.0,0.0,0.0,0.0,0.0,0.0,0.0,0.0,0.0,0.0,0.0,0.0,0.0,0.0,0.0,0.0,0.0,0.0,0.0,0.0,0.0,0.0,0.0,0.0,0.0,0.0,0.0,0.0,0.0,0.0,0.0,0.0,0.0,0.0,0.0,0.0,0.0,0.0,0.0,0.0,0.0,0.0,0.0,0.0,0.0,0.0,0.0,0.0,0.0,0.0,0.0,0.0,0.0,0.0,0.0,0.0,0.0,0.0,0.0,0.0,0.0,0.0,0.0,0.0,0.0,0.0,0.0,0.0,0.0,0.0,0.0,0.0,0.0,0.0,0.0,0.0,0.0,0.0,0.0,0.0,0.0,0.0,0.0,0.0,0.0,0.0,0.0,0.0,0.0,0.0,0.0,0.0,0.0,0.0,0.0,0.0,0.0,0.0,0.0,0.0,0.0,0.0,0.0,0.0,0.0,0.0,0.0,0.0,0.0,0.0,0.0,0.0,0.0,0.0,0.0,0.0,0.0,0.0,0.0,0.0,0.0,0.0,0.0,0.0,0.0,0.0,0.0,0.0,0.0,0.0,0.0,0.0,0.0,0.0,0.0,0.0,0.0,0.0,0.0,0.0,0.0,0.0,0.0,0.0,0.0,0.0,0.0,0.0,0.0,0.0,0.0,0.0,0.0,0.0,0.0,0.0,0.0,0.0,0.0,0.0,0.0,0.0,0.0,0.0,0.0,0.0,0.0,0.0,0.0,0.0,0.0,0.0,0.0,0.0,0.0,0.0,0.0,0.0,0.0,0.0,0.0,0.0,0.0,0.0,0.0,0.0,0.0,0.0,0.0,0.0,0.0,0.0,0.0,0.0,0.0,0.0,0.0,0.0,0.0,0.0,0.0,0.0,0.0,0.0,0.0,0.0,0.0,0.0,0.0,0.0,0.0,0.0,0.0,0.0,0.0,0.0,0.0,0.0,0.0,0.0,0.0,0.0,0.0,0.0,0.0,0.0,0.0,0.0,0.0,0.0,0.0,0.0,0.0,0.0,0.0,0.0,0.0,0.0,0.0,0.0,0.0,0.0,0.0,0.0,0.0,0.0,0.0,0.0,0.0,0.0,0.0,0.0,0.0,0.0,0.0,0.0,0.0,0.0,0.0,0.0,0.0,0.0,0.0,0.0,0.0,0.0,0.0,0.0,0.0,0.0,0.0,0.0,0.0,0.0,0.0,0.0,0.0,0.0,0.0,0.0,0.0,0.0,0.0,0.0,0.0,0.0,0.0,0.0,0.0,0.0,0.0,0.0,0.0,0.0,0.0,0.0,0.0,0.0,0.0,0.0,0.0,0.0,0.0,0.0,0.0,0.0,0.0,0.0,0.0,0.0,0.0,0.0,0.0,0.0,0.0,0.0,0.0,0.0,0.0,0.0,0.0,0.0,0.0,0.0,0.0,0.0,0.0,0.0,0.0,0.0,0.0,0.0,0.0,0.0,0.0,0.0,0.0,0.0,0.0,0.0,0.0,0.0,0.0,0.0,0.0,0.0,0.0,0.0,0.0,0.0,0.0,0.0,0.0,0.0,0.0,0.0,0.0,0.0,0.0,0.0,0.0,0.0,0.0,0.0,0.0,0.0,0.0,0.0,0.0,0.0,0.0,0.0,0.0,0.0,0.0,0.0,0.0,0.0,0.0,0.0,0.0,0.0,0.0,0.0,0.0,0.0,0.0,0.0,0.0,0.0,0.0,0.0,0.0,0.0,0.0,0.0,0.0,0.0,0.0,0.0,0.0,0.0,0.0,0.0,0.0,0.0,0.0,0.0,0.0,0.0,0.0,0.0,0.0,0.0,0.0,0.0,0.0,0.0,0.0,0.0,0.0,0.0,0.0,0.0,0.0,0.0,0.0,0.0,0.0,0.0,0.0,0.0,0.0,0.0,0.0,0.0,0.0,0.0,0.0,0.0,0.0,0.0,0.0,0.0,0.0,0.0,0.0,0.0,0.0,0.0,0.0,0.0,0.0,0.0,0.0,0.0,0.0,0.0,0.0,0.0,0.0,0.0,0.0,0.0,0.0,0.0,0.0,0.0,0.0,0.0,0.0,0.0,0.0,0.0,0.0,0.0,0.0,0.0,0.0,0.0,0.0,0.0,0.0,0.0,0.0,0.0,0.0,0.0,0.0,0.0,0.0,0.0,0.0,0.0,0.0,0.0,0.0,0.0,0.0,0.0,0.0,0.0,0.0,0.0,0.0,0.0,0.0,0.0,0.0,0.0,0.0,0.0,0.0,0.0,0.0,0.0,0.0,0.0,0.0,0.0,0.0,0.0,0.0,0.0,0.0,0.0,0.0,0.0,0.0,0.0,0.0,0.0,0.0,0.0,0.0,0.0,0.0,0.0,0.0,0.0,0.0,0.0,0.0,0.0,0.0,0.0,0.0,0.0,0.0,0.0,0.0,0.0,0.0,0.0,0.0,0.0,0.0,0.0,0.0,0.0,0.0,0.0,0.0,0.0,0.0,0.0,0.0,0.0,0.0,0.0,0.0,0.0,0.0,0.0,0.0,0.0,0.0,0.0,0.0,0.0,0.0,0.0,0.0,0.0,0.0,0.0,0.0,0.0,0.0,0.0,0.0,0.0,0.0,0.0,0.0,0.0,0.0,0.0,0.0,0.0,0.0,0.0,0.0,0.0,0.0,0.0,0.0,0.0,0.0,0.0,0.0,0.0,0.0,0.0,0.0,0.0,0.0,0.0,0.0,0.0,0.0,0.0,0.0,0.0,0.0,0.0,0.0,0.0,0.0,0.0,0.0,0.0,0.0,0.0,0.0,0.0,0.0,0.0,0.0,0.0,0.0,0.0,0.0,0.0,0.0,0.0,0.0,0.0,0.0,0.0,0.0,0.0,0.0,0.0,0.0,0.0,0.0,0.0,0.0,0.0,0.0,0.0,0.0,0.0,0.0,0.0,0.0,0.0,0.0,0.0,0.0,0.0,0.0,0.0,0.0,0.0,0.0,0.0,0.0,0.0,0.0,0.0,0.0,0.0,0.0,0.0,0.0,0.0,0.0,0.0,0.0,0.0,0.0,0.0,0.0,0.0,0.0,0.0,0.0,0.0,0.0,0.0,0.0,0.0,0.0,0.0,0.0,0.0,0.0,0.0,0.0,0.0,0.0,0.0,0.0,0.0,0.0,0.0,0.0,0.0,0.0,0.0,0.0,0.0,0.0,0.0,0.0,0.0,0.0,0.0,0.0,0.0,0.0,0.0,0.0,0.0,0.0,0.0,0.0,0.0,0.0,0.0,0.0,0.0,0.0,0.0,0.0,0.0,0.0,0.0,0.0,0.0,0.0,0.0,0.0,0.0,0.0,0.0,0.0,0.0,0.0,0.0,0.0,0.0,0.0,0.0,0.0,0.0,0.0,0.0,0.0,0.0,0.0,0.0,0.0,0.0,0.0,0.0,0.0,0.0,0.0,0.0,0.0,0.0,0.0,0.0,0.0,0.0,0.0,0.0,0.0,0.0,0.0,0.0,0.0,0.0,0.0,0.0,0.0,0.0,0.0,0.0,0.0,0.0,0.0,0.0,0.0,0.0,0.0,0.0,0.0,0.0,0.0,0.0,0.0,0.0,0.0,0.0,0.0,0.0,0.0,0.0,0.0,0.0,0.0,0.0,0.0,0.0,0.0,0.0,0.0,0.0,0.0,0.0,0.0,0.0,0.0,0.0,0.0,0.0,0.0,0.0,0.0,0.0,0.0,0.0,0.0,0.0,0.0,0.0,0.0,0.0,0.0,0.0,0.0,0.0,0.0,0.0,0.0,0.0,0.0,0.0,0.0,0.0,0.0,0.0,0.0,0.0,0.0,0.0,0.0,0.0,0.0,0.0,0.0,0.0,0.0,0.0,0.0,0.0,0.0,0.0,0.0,0.0,0.0,0.0,0.0,0.0,0.0,0.0,0.0,0.0,0.0,0.0,0.0,0.0,0.0,0.0,0.0,0.0,0.0,0.0,0.0,0.0,0.0,0.0,0.0,0.0,0.0,0.0,0.0,0.0,0.0,0.0,0.0,0.0,0.0,0.0,0.0,0.0,0.0,0.0,0.0,0.0,0.0,0.0,0.0,0.0,0.0,0.0,0.0,0.0,0.0,0.0,0.0,0.0,0.0,0.0,0.0,0.0,0.0,0.0,0.0,0.0,0.0,0.0,0.0,0.0,0.0,0.0,0.0,0.0,0.0,0.0,0.0,0.0,0.0,0.0,0.0,0.0,0.0,0.0,0.0,0.0,0.0,0.0,0.0,0.0,0.0,0.0,0.0,0.0,0.0,0.0,0.0,0.0,0.0,0.0,0.0,0.0,0.0,0.0,0.0,0.0,0.0,0.0,0.0,0.0,0.0,0.0,0.0,0.0,0.0,0.0,0.0,0.0,0.0,0.0,0.0,0.0,0.0,0.0,0.0,0.0,0.0,0.0,0.0,0.0,0.0,0.0,0.0,0.0,0.0,0.0,0.0,0.0,0.0,0.0,0.0,0.0,0.0,0.0,0.0,0.0,0.0,0.0,0.0,0.0,0.0,0.0,0.0,0.0,0.0,0.0,0.0,0.0,0.0,0.0,0.0,0.0,0.0,0.0,0.0,0.0,0.0,0.0,0.0,0.0,0.0,0.0,0.0,0.0,0.0,0.0,0.0,0.0,0.0,0.0,0.0,0.0,0.0,0.0,0.0,0.0,0.0,0.0,0.0,0.0,0.0,0.0,0.0,0.0,0.0,0.0,0.0,0.0,0.0,0.0,0.0,0.0,0.0,0.0,0.0,0.0,0.0,0.0,0.0,0.0,0.0,0.0,0.0,0.0,0.0,0.0,0.0,0.0,0.0,0.0,0.0,0.0,0.0,0.0,0.0,0.0,0.0,0.0,0.0,0.0,0.0,0.0,0.0,0.0,0.0,0.0,0.0,0.0,0.0,0.0,0.0,0.0,0.0,0.0,0.0,0.0,0.0,0.0,0.0,0.0,0.0,0.0,0.0,0.0,0.0,3.5895,3.5847,0.0,0.0,0.0,0.0,0.0,0.0,0.0,0.0,0.0,0.0,0.0,0.0,0.0,0.0,0.0,0.0,0.0,0.0,0.0,0.0,0.0,0.0,0.0,2.7446,2.8131,2.8645,2.9424,0.0,0.0,0.0,0.0,0.0,0.0,0.0,0.0,0.0,0.0,3.3351,3.3333,3.3308,3.3239,3.2345,3.1907,3.1953,0.0,0.0,0.0,0.0,0.0,0.0,0.0,0.0,0.0,0.0,0.0,0.0,0.0,0.0,0.0,0.0,0.0,0.0,0.0,0.0,0.0,0.0,0.0,0.0,0.0,0.0,0.0,0.0,0.0,0.0,0.0,0.0,0.0,0.0,0.0,0.0,0.0,0.0,0.0,0.0,0.0,0.0,0.0,0.0,0.0,0.0,0.0,0.0,0.0,0.0,0.0,0.0,0.0,0.0,0.0,0.0,0.0,0.0,0.0,0.0,0.0,0.0,0.0,0.0,0.0,0.0,0.0,0.0,0.0,0.0,3.7559,3.7378,0.0,0.0,0.0,0.0,0.0,0.0,0.0,0.0,0.0,0.0,0.0,0.0,0.0,0.0,0.0,0.0,0.0,0.0,0.0,0.0,0.0,2.6697,2.7005,2.8316,2.9259,2.9476,3.0141,3.0617,3.0752,3.0805,0.0,0.0,0.0,0.0,3.3609,3.3609,3.3802,3.414,3.4062,3.4055,3.4055,3.4059,3.408,3.4091,3.3623,0.0,0.0,0.0,0.0,0.0,0.0,0.0,0.0,0.0,0.0,0.0,0.0,0.0,0.0,0.0,0.0,0.0,0.0,0.0,0.0,0.0,0.0,0.0,0.0,0.0,0.0,0.0,0.0,0.0,0.0,0.0,0.0,0.0,0.0,0.0,0.0,0.0,0.0,0.0,0.0,0.0,0.0,0.0,0.0,0.0,0.0,0.0,0.0,0.0,0.0,0.0,0.0,0.0,0.0,0.0,0.0,0.0,0.0,0.0,0.0,0.0,0.0,0.0,3.8733,3.8816,3.8974,3.8974,3.9367,3.9998,3.9289,3.8801,3.853,3.8379,0.0,0.0,0.0,0.0,0.0,0.0,0.0,0.0,0.0,0.0,0.0,0.0,0.0,0.0,0.0,0.0,0.0,0.0,0.0,2.7086,2.8502,2.8901,2.9338,3.0115,3.0272,3.0656,3.1424,3.1526,3.1926,0.0,0.0,3.3635,3.5263,3.5263,3.6006,3.7456,3.7453,3.7448,3.7448,3.7433,3.7456,3.7331,3.4579,3.3331,3.3392,0.0,0.0,0.0,0.0,0.0,0.0,0.0,0.0,0.0,0.0,0.0,0.0,0.0,0.0,0.0,0.0,0.0,0.0,0.0,0.0,0.0,0.0,0.0,0.0,0.0,0.0,0.0,0.0,0.0,0.0,0.0,0.0,0.0,0.0,0.0,0.0,0.0,0.0,0.0,0.0,0.0,3.7828,3.7957,0.0,0.0,0.0,0.0,0.0,0.0,0.0,0.0,0.0,0.0,0.0,0.0,0.0,4.0674,4.0645,4.0674,4.1021,4.1725,4.1723,4.2128,4.2868,4.2868,4.2908,4.3025,4.2908,0.0,4.0253,4.0229,0.0,0.0,0.0,0.0,0.0,0.0,0.0,0.0,0.0,0.0,0.0,0.0,0.0,0.0,0.0,0.0,0.0,0.0,0.0,0.0,0.0,2.9265,2.9719,3.0208,3.0681,3.1151,3.1586,3.2522,3.3397,3.4201,3.4751,3.5592,3.687,3.6909,3.7259,3.7994,3.8028,3.8005,3.8007,3.7983,3.8046,3.8024,3.6624,3.6094,3.6198,3.6221,0.0,0.0,0.0,0.0,0.0,0.0,0.0,0.0,0.0,0.0,0.0,0.0,0.0,0.0,0.0,0.0,0.0,0.0,0.0,0.0,0.0,0.0,0.0,0.0,0.0,0.0,0.0,0.0,0.0,0.0,0.0,0.0,0.0,0.0,0.0,0.0,0.0,0.0,0.0,3.8269,3.8509,3.8512,3.8939,3.9211,0.0,0.0,0.0,0.0,0.0,0.0,0.0,0.0,0.0,4.1257,4.206,4.2472,4.246,4.2481,4.2934,4.3776,4.3753,4.4228,4.5046,4.5046,4.5046,4.5046,4.5046,4.4577,4.3673,4.2599,4.2095,4.1931,0.0,0.0,0.0,0.0,4.12,4.1271,0.0,0.0,0.0,0.0,0.0,0.0,0.0,0.0,0.0,0.0,0.0,0.0,2.9049,2.9526,2.9989,3.0413,3.1049,3.1706,3.2363,3.3425,3.4466,3.5474,3.5937,3.6676,3.781,3.8231,3.847,3.8495,3.8543,3.8547,3.8516,3.8524,3.857,3.8702,3.8702,3.8562,3.8387,3.836,3.8442,3.8488,0.0,0.0,0.0,0.0,0.0,0.0,0.0,0.0,0.0,0.0,0.0,0.0,0.0,0.0,0.0,0.0,0.0,0.0,0.0,0.0,0.0,0.0,0.0,0.0,0.0,0.0,0.0,0.0,0.0,0.0,0.0,0.0,0.0,0.0,0.0,0.0,0.0,3.9023,3.918,3.918,3.9726,4.0234,0.0,0.0,0.0,0.0,0.0,0.0,4.1756,4.2576,4.3044,4.3042,4.3851,4.4272,4.4272,4.4286,4.4699,4.5558,4.5583,4.6005,4.6862,4.6886,4.6879,4.6879,4.6879,4.6879,4.672,4.4634,4.3726,4.3562,4.2655,4.2244,4.2257,4.2254,4.2282,4.2387,0.0,0.0,0.0,0.0,0.0,0.0,0.0,0.0,0.0,0.0,0.0,2.8612,2.9461,2.9607,3.0028,3.1059,3.1189,3.2196,3.45,3.4122,3.4486,3.5974,3.5377,3.5813,3.7576,3.9175,4.0057,4.0196,4.0179,4.0163,4.0197,4.0236,4.0296,4.027,4.027,3.956,3.8293,3.8296,3.835,3.842,3.8342,0.0,0.0,0.0,0.0,0.0,0.0,0.0,0.0,0.0,0.0,0.0,0.0,0.0,0.0,0.0,0.0,0.0,0.0,0.0,0.0,0.0,0.0,0.0,0.0,0.0,0.0,0.0,0.0,0.0,0.0,0.0,0.0,0.0,0.0,0.0,0.0,0.0,0.0,4.0956,4.0995,0.0,0.0,0.0,0.0,4.3493,4.3572,4.358,4.3553,4.4412,4.4843,4.4762,4.5621,4.6051,4.6051,4.6051,4.6519,4.7377,4.7355,4.7845,4.8662,4.8657,4.8672,4.8672,4.8672,4.8672,4.8475,4.5902,4.4765,4.4528,4.3666,4.3253,4.3166,4.3277,4.3313,4.3367,0.0,0.0,0.0,0.0,0.0,0.0,2.5273,2.6002,2.6809,2.7698,2.8403,2.8996,2.9438,2.9804,3.0251,3.0766,3.2229,3.3494,3.4346,3.5249,3.6254,3.7445,3.7289,3.7743,3.9049,3.9656,3.998,4.0022,4.0043,4.0089,4.0158,4.021,4.0234,4.0329,4.0329,4.0082,3.9662,3.9741,3.9823,3.9889,3.9448,3.9253,0.0,0.0,0.0,0.0,0.0,0.0,0.0,0.0,0.0,0.0,0.0,0.0,0.0,0.0,0.0,0.0,0.0,0.0,0.0,0.0,0.0,0.0,0.0,0.0,0.0,0.0,0.0,0.0,0.0,0.0,0.0,0.0,0.0,0.0,0.0,0.0,0.0,4.1883,4.2389,0.0,4.3129,4.3673,4.4139,4.4451,4.4958,4.5246,4.5316,4.6081,4.6826,4.7396,4.8221,4.8925,4.947,4.9444,4.9881,5.0781,5.0742,5.121,5.2094,5.2097,5.2086,5.2095,5.2095,5.2083,5.1983,5.0503,4.8917,4.7267,4.6372,4.6005,4.5983,4.6011,4.6021,4.6142,0.0,0.0,0.0,0.0,0.0,0.0,2.5519,2.6452,2.7315,2.7949,2.8582,2.9044,2.9191,2.9803,3.0504,3.1286,3.3044,3.4339,3.4928,3.6037,3.6982,3.7623,3.799,3.8524,3.9296,3.9502,3.967,3.9811,3.9811,3.9884,4.0012,4.0012,4.0073,4.0182,4.0487,4.0515,4.0327,4.0753,4.0854,4.0654,4.0158,4.0012,3.997,0.0,0.0,0.0,0.0,0.0,0.0,0.0,0.0,0.0,0.0,0.0,0.0,0.0,0.0,0.0,0.0,0.0,0.0,0.0,0.0,0.0,0.0,0.0,0.0,0.0,0.0,0.0,0.0,0.0,0.0,0.0,0.0,0.0,0.0,4.1979,4.251,4.3093,4.3676,4.426,4.4844,4.5386,4.601,4.6594,4.71,4.754,4.7917,4.8713,4.9451,5.0061,5.0851,5.1556,5.2138,5.209,5.2386,5.2986,5.2943,5.3267,5.3866,5.3865,5.3867,5.3886,5.3886,5.3909,5.3873,5.3327,5.2066,5.0407,4.9278,4.881,4.881,4.881,4.881,4.8888,0.0,0.0,0.0,0.0,0.0,0.0,2.5634,2.6822,2.7717,2.7712,2.8353,2.8785,2.8822,2.9563,3.0814,3.2644,3.3511,3.4649,3.6302,3.6478,3.6455,3.6427,3.7333,3.7923,3.8103,3.8694,3.9208,3.9575,3.9575,3.967,3.9884,3.9884,3.9889,3.9943,4.0864,4.0835,4.015,4.1151,4.1153,4.0539,4.0511,4.0594,4.0721,0.0,0.0,0.0,0.0,0.0,0.0,0.0,0.0,0.0,0.0,0.0,0.0,0.0,0.0,0.0,0.0,0.0,0.0,0.0,0.0,0.0,0.0,0.0,0.0,0.0,0.0,0.0,0.0,0.0,0.0,0.0,0.0,0.0,4.2386,4.2391,4.305,4.4798,4.5032,4.5692,4.7367,4.7523,4.8265,4.9944,5.01,5.0488,5.1343,5.2163,5.2632,5.2673,5.3412,5.3838,5.3877,5.3877,5.3879,5.3881,5.3899,5.3883,5.3886,5.3879,5.3903,5.398,5.398,5.3965,5.3997,5.3996,5.3994,5.3799,5.212,5.1496,5.1496,5.1496,5.1496,5.1496,0.0,0.0,0.0,0.0,0.0,2.5623,2.6166,2.7045,2.7831,2.8367,2.8554,2.8874,2.9467,3.0773,3.2042,3.313,3.4477,3.5715,3.6757,3.6299,3.6309,3.7015,3.8029,3.8601,3.8672,3.883,3.897,3.9106,3.9106,3.9239,3.9532,3.9532,3.9653,3.99,4.0165,4.0176,3.9992,4.035,4.0716,4.104,4.065,4.0538,4.0588,0.0,0.0,0.0,0.0,0.0,0.0,0.0,0.0,0.0,0.0,0.0,0.0,0.0,0.0,0.0,0.0,0.0,0.0,0.0,0.0,0.0,0.0,0.0,0.0,0.0,0.0,0.0,0.0,0.0,0.0,0.0,4.4122,4.4091,4.4096,4.4621,4.5612,4.7395,4.8137,4.8951,5.0037,5.0698,5.1206,5.1714,5.2339,5.2822,5.3086,5.3291,5.3719,5.4375,5.4572,5.498,5.5602,5.5602,5.5625,5.5628,5.5608,5.5641,5.567,5.5615,5.5651,5.5708,5.5708,5.5723,5.5739,5.578,5.5776,5.5617,5.3899,5.321,5.321,5.321,5.321,5.3213,0.0,0.0,0.0,0.0,0.0,2.6638,2.7399,2.8129,2.8713,2.9154,2.8861,2.8896,2.9712,3.1227,3.2669,3.3784,3.5051,3.6106,3.6844,3.643,3.6512,3.7284,3.8135,3.8637,3.8736,3.8644,3.8644,3.8743,3.8743,3.9112,3.9834,3.9834,4.0171,4.0805,4.1204,4.1228,4.0887,4.1352,4.1635,4.1733,4.1404,4.1127,4.0919,4.0706,4.0647,4.0749,4.088,4.0931,4.0963,4.0984,0.0,0.0,0.0,0.0,0.0,0.0,0.0,0.0,0.0,0.0,0.0,0.0,0.0,0.0,0.0,0.0,0.0,0.0,0.0,0.0,0.0,0.0,0.0,0.0,4.5748,4.6455,4.7185,4.7126,4.7794,4.985,5.0552,5.1231,5.217,5.2681,5.3109,5.3455,5.396,5.4403,5.4824,5.4798,5.5028,5.5605,5.5572,5.5786,5.6295,5.6295,5.6314,5.6311,5.6314,5.6335,5.6363,5.6328,5.6334,5.6344,5.6344,5.6373,5.6412,5.6433,5.6478,5.6364,0.0,0.0,0.0,0.0,5.5023,5.5024,0.0,0.0,0.0,0.0,0.0,2.8115,2.8801,2.9503,2.9931,2.9899,2.9151,2.8968,2.9959,3.1444,3.2995,3.4581,3.5362,3.5961,3.6372,3.657,3.6827,3.7184,3.7886,3.8305,3.8388,3.8313,3.8305,3.8388,3.8498,3.916,4.0441,4.0508,4.1171,4.2271,4.3169,4.3158,4.2523,4.3276,4.3211,4.2631,4.2453,4.2064,4.1523,4.0978,4.0754,4.0765,4.1025,4.114,4.1157,4.1214,0.0,0.0,0.0,0.0,0.0,0.0,0.0,0.0,0.0,0.0,0.0,0.0,0.0,0.0,0.0,0.0,0.0,0.0,0.0,0.0,0.0,0.0,0.0,0.0,4.7576,4.9225,5.0878,4.9924,4.9885,5.2202,5.2493,5.2898,5.3861,5.3996,5.4313,5.5087,5.5165,5.5476,5.6256,5.6295,0.0,0.0,0.0,5.6295,5.6295,5.6295,5.6295,5.6295,5.6295,5.6295,5.6295,5.6295,5.6317,5.6294,5.6294,5.6338,5.6393,5.6399,5.6405,5.6418,5.6557,5.6574,5.6573,5.6607,5.6605,5.6605,0.0,0.0,0.0,0.0,0.0,2.9136,2.906,2.9688,3.0057,2.9836,2.9126,2.9396,3.1517,3.2596,3.3828,3.5413,3.5556,3.531,3.4635,3.579,3.6496,3.6555,3.7882,3.8348,3.7784,3.8312,3.8312,3.7784,3.8366,3.931,4.0583,4.1215,4.2284,4.3707,4.3893,4.401,4.4042,4.3617,4.3756,4.414,4.2916,4.2337,4.2209,4.2209,4.223,4.2315,4.247,4.2575,4.269,4.2707,4.2776,4.2845,4.2845,4.2925,0.0,0.0,0.0,0.0,0.0,0.0,0.0,0.0,0.0,0.0,0.0,0.0,0.0,0.0,0.0,0.0,0.0,0.0,0.0,4.959,5.0592,5.1818,5.3386,5.324,5.325,5.398,5.419,5.4615,5.5451,5.5698,5.5867,5.6019,5.6058,5.6136,5.6295,5.6295,5.6295,5.6295,5.6295,5.6295,5.6295,5.6295,5.6295,5.6295,5.6295,0.0,5.6295,5.6295,5.6307,5.6293,5.6293,5.6308,5.6336,5.6306,5.6369,5.6415,5.6484,5.6522,5.6521,5.6579,5.6605,5.6605,0.0,0.0,0.0,0.0,0.0,3.0097,3.0248,3.0883,3.1124,3.047,3.0306,3.0706,3.191,3.3384,3.4639,3.5446,3.5367,3.4739,3.3569,3.5215,3.6123,3.5819,3.7665,3.8352,3.7631,3.8317,3.8352,3.7595,3.8735,3.9899,4.1071,4.2487,4.383,4.5078,4.5307,4.5477,4.5633,4.5254,4.5122,4.5132,4.4364,4.3818,4.3385,4.2748,4.2536,4.2546,4.2651,4.2742,4.2806,4.2877,4.2948,4.3004,4.3004,4.3033,4.31,0.0,0.0,0.0,0.0,0.0,0.0,0.0,0.0,0.0,0.0,0.0,0.0,0.0,0.0,4.7346,4.7778,0.0,5.0405,5.0832,5.1985,5.307,5.3856,5.428,5.46,5.488,5.4951,5.5119,5.5581,5.574,5.5843,5.5935,5.6001,5.6091,5.6167,5.6265,5.6489,5.6955,5.6955,5.7149,5.7535,5.7149,5.6955,5.6955,5.6528,5.6295,5.6295,5.6295,5.6295,5.6295,5.6295,5.6295,5.6298,5.6286,5.6303,5.6355,5.6391,5.6434,5.6523,5.6581,5.6605,5.6605,0.0,0.0,0.0,0.0,0.0,3.1123,3.1654,3.2225,3.23,3.1469,3.1591,3.1916,3.2384,3.3947,3.5027,3.5161,3.4782,3.4038,3.2876,3.4694,3.5598,3.5136,3.7474,3.8408,3.7511,3.8372,3.8372,3.7476,3.8861,4.0263,4.1648,4.3382,4.5022,4.6422,4.6817,4.7063,4.7273,4.7086,4.6608,4.5894,4.5737,4.5181,4.4359,4.324,4.281,4.2864,4.2954,4.2971,4.2993,4.3084,4.3149,4.3178,4.3178,4.3197,4.3216,4.3187,4.3178,0.0,0.0,0.0,0.0,0.0,0.0,0.0,0.0,4.6319,4.6915,4.6915,4.8166,4.9233,4.9233,5.0516,5.1587,5.1587,5.2852,5.3852,5.3852,5.4436,5.4918,5.5134,5.5134,5.5135,5.5254,5.5264,5.5366,5.5544,5.5797,5.6039,5.6188,5.6521,5.7017,5.7786,5.7835,5.8149,5.8803,5.8156,5.781,5.781,5.711,5.6796,5.6796,5.6796,5.6796,5.6796,5.6605,5.6567,5.6528,5.6372,5.6295,5.6307,5.631,5.6385,5.6481,5.6558,5.6584,5.6579,0.0,0.0,0.0,0.0,0.0,0.0,3.2906,3.3036,3.2915,3.2638,3.1776,3.1978,3.4068,3.4183,3.4388,3.4951,3.372,3.276,3.2483,3.3969,3.4848,3.4761,3.7626,3.8551,3.7093,3.8481,3.8506,3.7058,3.7883,3.9564,4.1962,4.2832,4.4906,4.786,4.7909,4.8328,4.8885,4.8159,4.7422,4.6593,4.5814,4.5125,4.4482,4.4273,4.4308,4.4442,4.4586,4.4635,4.4641,4.4659,4.4737,4.4832,4.4832,4.4898,4.4988,4.488,4.4832,4.4979,4.5687,4.5986,4.6255,4.7018,4.6679,4.6378,0.0,4.7795,4.8389,4.8389,4.9696,5.082,5.082,5.2184,5.3321,5.3321,5.4117,5.4761,5.4761,5.4685,5.4653,5.4662,5.4921,5.5121,5.5102,5.5223,5.5326,5.5343,5.6051,5.6626,5.6889,5.7632,5.8219,5.8583,5.8629,5.8729,5.8806,5.8722,5.8661,5.8661,5.8583,5.8506,5.8506,5.8506,5.8506,5.8467,5.7771,5.7463,5.7386,5.6605,5.6295,5.6307,5.631,5.6322,5.6347,5.6409,5.6479,5.6523,0.0,0.0,0.0,0.0,0.0,0.0,0.0,3.3526,3.3557,3.289,3.2899,3.3349,3.4302,3.4803,3.4985,3.4825,3.3794,3.2914,3.2414,3.3854,3.4697,3.4697,3.7216,3.8304,3.7637,3.8715,3.875,3.7637,3.8876,3.9932,4.0755,4.2241,4.4065,4.6094,4.6331,4.6923,4.7668,4.7324,4.6738,4.5993,4.5664,4.5058,4.4361,4.434,4.4383,4.4482,4.4585,4.4619,0.0,4.4619,4.4648,4.4688,4.4751,4.4783,4.4908,4.5319,4.5445,4.5634,4.649,4.6738,4.6859,4.7153,4.7322,4.7483,4.7815,4.8887,4.9822,4.9822,5.1149,5.2317,5.2317,5.326,5.4059,5.4059,5.4361,5.4625,5.4625,5.453,5.4669,5.512,5.5314,5.5199,5.4753,5.5178,5.5534,5.5629,5.6473,5.7127,5.7333,5.7775,5.8302,5.8913,5.9109,5.9455,5.9962,5.9661,5.9483,5.9483,5.8978,5.8742,5.8746,5.8771,5.8796,5.8774,5.8428,5.8311,5.8273,5.7899,5.7737,5.7741,5.7696,5.7709,5.7582,5.6719,5.6422,5.6433,0.0,0.0,0.0,0.0,0.0,0.0,0.0,0.0,0.0,0.0,3.384,3.4291,3.4511,3.5259,3.5542,3.5057,3.4173,3.338,3.2765,3.374,3.4506,3.4826,3.6747,3.7827,3.7937,3.8847,3.8926,3.8083,3.9498,4.0228,4.0339,4.1775,4.3218,4.4617,4.5073,4.5682,4.6397,4.6533,4.6025,4.5133,4.511,4.4498,4.3608,4.3587,4.3736,4.3989,4.4272,4.4361,4.4361,4.4361,4.4361,4.4376,4.4418,4.4433,4.4613,4.5408,4.5985,4.6494,4.7154,4.7492,4.7755,4.7988,4.8476,4.8934,4.9152,5.0361,5.1383,5.1383,5.254,5.3516,5.3516,5.4004,5.4409,5.4409,5.4409,5.4409,5.4409,5.4597,5.4963,5.5518,5.5827,5.5714,5.516,5.5602,5.6038,5.6166,5.7019,5.7627,5.7877,5.8186,5.8653,5.9396,5.9607,6.0052,6.0783,6.0408,6.0278,6.0363,5.9704,5.9428,5.9432,5.9468,5.9498,5.9484,5.9248,5.9131,5.9093,5.8869,5.8781,5.8777,5.8704,5.8688,5.8568,5.7449,5.7056,5.7036,0.0,0.0,0.0,0.0,0.0,0.0,0.0,0.0,0.0,0.0,3.4246,3.4261,3.5012,3.545,3.5727,3.5753,3.4738,3.3927,3.3503,3.3494,3.4032,3.5141,3.6381,3.7209,3.7514,3.8682,3.8926,3.8083,3.8926,4.0095,4.1556,4.1602,4.2687,4.4611,4.5003,4.5474,4.5965,4.6342,4.564,4.4229,4.4107,4.3163,4.1852,4.1812,4.2311,4.316,4.3982,4.4281,4.4281,4.4281,4.4281,4.4281,4.4326,4.4326,4.4468,4.5282,4.6719,4.8069,4.8153,4.8776,4.9602,5.0399,5.0624,5.085,5.163,5.2502,5.3111,5.3111,5.3779,5.4371,5.4371,5.4371,5.4409,5.4409,5.4409,5.4409,5.4409,5.5076,5.5555,5.5593,5.6361,5.6849,5.6812,5.6849,5.6858,5.6858,5.7609,5.8229,5.8551,5.9295,5.987,6.0172,6.0261,6.0431,6.079,6.0783,6.0925,6.1263,6.1224,6.1224,6.1224,6.1224,6.1224,6.1189,6.0328,5.9979,5.9902,5.9041,5.8692,5.8692,5.8688,5.8688,5.8692,5.8665,5.8683,5.8599,0.0,0.0,0.0,0.0,0.0,0.0,0.0,0.0,0.0,0.0,0.0,0.0,0.0,0.0,0.0,0.0,3.5863,3.5374,3.3998,3.4574,3.4934,3.488,3.6158,3.7193,3.788,3.8563,3.8883,3.889,3.9171,3.9669,4.0405,4.0669,4.1599,4.3032,4.3415,4.3984,4.4642,4.4793,4.4225,4.3289,4.3221,4.2575,4.1733,4.2225,4.2597,4.2992,0.0,4.4147,4.4237,4.4237,4.4237,4.4244,4.4296,4.4685,4.5357,4.6769,4.7943,4.8947,4.9503,4.9885,5.0297,5.112,5.1711,5.2235,5.2496,5.3259,5.3939,5.3939,5.4178,5.4409,5.4409,5.4409,5.4409,5.4409,5.4409,5.4409,5.4409,5.5076,5.5827,5.6399,5.7178,5.7901,5.8427,5.8014,5.7704,5.7704,5.8427,5.8932,5.9067,5.933,5.9505,5.9597,5.9852,6.0038,6.0141,6.0326,6.0568,6.0887,6.1065,6.1182,6.1212,6.1212,6.1268,6.1263,6.0987,6.0871,6.0832,6.0485,6.0351,6.0351,6.0321,6.0308,6.0308,6.0308,6.0308,6.013,0.0,0.0,0.0,0.0,0.0,0.0,0.0,0.0,0.0,0.0,0.0,0.0,0.0,0.0,0.0,0.0,0.0,3.6523,3.5182,3.5226,3.5403,3.5664,3.5979,3.6841,3.8256,3.8709,3.9084,3.9469,3.9912,4.0232,4.0466,4.0721,4.1233,4.2012,4.254,4.3098,4.3594,4.3884,4.3355,4.2389,4.2686,4.2136,4.1244,4.2062,4.2537,0.0,4.3392,4.3802,4.4146,4.4146,4.4146,4.4153,4.4169,4.4967,4.6123,4.7535,4.8737,4.9724,5.0235,5.0841,5.1439,5.1953,5.27,5.3344,5.3344,5.3808,5.4227,5.4227,5.4271,5.4277,5.4277,5.4277,5.4323,5.4357,5.4357,5.4366,5.44,5.5348,5.6277,5.6812,5.7863,5.8718,5.9253,5.884,5.853,5.853,5.9027,5.929,5.929,5.929,5.929,5.929,5.9496,5.9685,5.9809,6.0067,6.0412,6.0834,6.1017,6.1132,6.1159,6.1159,6.1182,6.1212,6.1212,6.1212,6.1247,6.1177,6.1159,6.1159,6.1127,6.1118,6.1118,6.1118,6.1118,6.0891,0.0,0.0,0.0,0.0,0.0,0.0,0.0,0.0,0.0,0.0,0.0,0.0,0.0,0.0,0.0,0.0,0.0,0.0,3.6959,3.552,3.5475,3.7221,3.5941,3.6217,3.8446,3.8942,3.9358,3.9753,4.0927,4.1543,4.16,4.1657,4.1668,4.1712,4.2511,4.2866,4.2922,4.3669,4.3095,4.1727,4.25,4.1839,4.0501,4.1356,4.2092,4.276,4.2835,4.3355,4.3986,4.3986,4.3986,4.4023,4.4098,4.5212,4.6678,4.7645,4.9047,5.0331,5.0462,5.1683,5.2869,5.2952,5.3522,5.4091,5.4091,5.4091,5.4091,5.4091,5.41,5.41,5.41,5.41,5.4127,5.4282,5.4299,5.4288,5.4383,5.5827,5.6878,5.6878,5.8305,5.9281,5.9281,5.929,5.929,5.929,5.929,5.929,5.929,5.929,5.9328,5.9365,5.9365,5.9547,5.989,6.0151,6.0585,6.1162,6.121,6.122,6.1234,6.1234,6.1234,6.1234,6.1234,6.1234,6.1234,6.1234,6.1195,6.1157,6.1157,6.1157,6.1118,6.1118,6.1118,6.1002,0.0,0.0,0.0,0.0,0.0,0.0,0.0,0.0,0.0,0.0,0.0,0.0,0.0,0.0,0.0,0.0,0.0,0.0,3.73,3.7124,3.6742,3.6165,3.6259,3.6589,3.7237,3.7322,3.8017,3.9346,3.9903,4.0673,4.1609,4.2511,4.295,4.2968,4.3484,4.3685,4.3701,4.3908,4.3429,4.25,4.2723,4.1839,4.0538,4.195,4.224,4.2062,4.3243,4.3838,4.3986,4.3986,4.3986,4.4209,4.5472,4.6141,4.6892,4.8916,4.9808,5.0449,5.1703,5.2344,5.2828,5.3414,5.3721,5.387,5.387,5.3935,5.4028,5.4028,5.4055,5.41,5.41,5.41,5.4109,5.4136,5.4136,5.4145,5.4171,5.563,5.6669,5.6669,5.8203,5.9225,5.9225,5.929,5.929,5.929,5.929,5.929,5.929,5.929,5.9591,6.0266,6.0257,6.0614,6.1281,6.1616,6.1926,6.2317,6.2551,6.2811,6.3057,6.3057,6.3057,6.3057,6.3057,6.3057,6.3057,6.3057,6.2665,6.208,6.208,6.1655,6.1118,6.1118,6.1118,6.1079,0.0,0.0,0.0,0.0,0.0,0.0,0.0,0.0,0.0,0.0,0.0,0.0,0.0,0.0,0.0,0.0,0.0,0.0,0.0,3.7812,3.7683,3.7198,3.7071,3.7071,3.7293,3.7269,3.7633,3.8335,3.9086,3.9839,4.0537,4.1941,4.2621,4.2639,4.3385,4.3726,4.3734,4.3923,4.354,0.0,0.0,4.2575,4.1579,4.2835,4.2835,4.2277,4.354,4.3986,4.3986,4.3986,4.3986,4.4283,4.5955,4.6735,4.7441,4.9522,5.0627,5.1407,5.2345,5.2865,5.3237,5.3683,5.3784,5.3784,5.3784,5.3879,5.3916,5.3916,5.3926,5.3963,5.3963,5.3963,5.3981,5.4065,5.4074,5.4055,5.41,5.5557,5.6594,5.6594,5.8071,5.9119,5.9119,5.913,5.9328,5.974,5.9487,5.9478,5.9853,5.9891,6.0266,6.1093,6.113,6.1403,6.2023,6.2199,6.2519,6.2935,6.3124,6.3372,6.3715,6.3715,6.3715,6.3715,6.3715,6.3715,6.3715,6.3715,6.3405,6.2975,6.2975,6.2665,6.224,6.224,6.224,6.224,0.0,0.0,0.0,0.0,0.0,0.0,0.0,0.0,0.0,0.0,3.4478,0.0,0.0,0.0,0.0,0.0,0.0,0.0,0.0,0.0,3.8198,3.8897,3.8006,3.7616,3.7894,3.7794,3.7588,3.7278,3.8399,3.8936,3.8964,4.0554,4.1333,4.1496,4.265,4.3235,4.3334,4.3823,4.3615,4.302,4.3726,4.3503,4.2872,0.0,4.3503,4.2909,4.3726,4.3986,4.3986,4.3986,4.4098,4.4432,4.5992,4.7144,4.8184,4.9856,5.1416,5.2605,5.2717,5.3274,5.3784,5.3784,5.3784,5.3784,5.3784,5.3784,5.3784,5.3784,5.3784,5.3784,5.3784,5.3784,5.3823,5.3954,5.3963,5.4,5.4046,5.5511,5.6556,5.6556,5.7984,5.8975,5.8975,5.9097,5.9519,6.0309,5.9871,5.9938,6.0708,6.0755,6.113,6.1956,6.2079,6.2278,6.2557,6.2566,6.2861,6.3393,6.3393,6.3593,6.3979,6.3979,6.3999,6.4024,6.4024,6.4024,6.4024,6.4024,6.3985,6.3869,6.3869,6.3792,6.3715,6.3715,6.3715,6.3715,0.0,0.0,0.0,0.0,0.0,0.0,0.0,0.0,0.0,0.0,3.4642,3.4461,0.0,0.0,0.0,0.0,0.0,0.0,0.0,0.0,0.0,3.8079,3.792,3.7839,3.79,3.6868,3.6824,3.7792,3.7631,3.7755,3.8115,3.9091,3.9912,4.0666,4.1534,4.2268,4.2936,4.3703,4.3912,4.3801,4.3949,4.3503,4.2872,4.3689,0.0,0.0,4.3726,4.3986,4.3986,4.3986,4.4469,4.5249,4.6178,4.7516,4.9039,5.0711,5.1862,5.2754,5.3423,5.3683,5.3784,5.3784,5.3784,5.3784,5.3784,5.3784,5.3784,5.3784,5.3784,5.3784,5.3784,5.3784,5.3794,5.3813,5.3813,5.3823,5.3841,5.5292,5.6333,5.6333,5.7864,5.892,5.892,5.957,6.0078,6.021,6.0781,6.1245,6.1571,6.1581,6.1994,6.2857,6.3506,6.3873,6.3942,6.3942,6.4143,6.4529,6.4529,6.4825,6.535,6.535,6.55,6.576,6.576,6.576,6.576,6.576,6.5378,6.4759,6.4759,6.4334,6.3715,6.3715,6.3715,6.3715,0.0,0.0,0.0,0.0,0.0,0.0,0.0,3.4663,3.4668,3.4884,3.4801,3.4662,3.4604,3.4441,3.449,0.0,0.0,0.0,0.0,0.0,0.0,3.79,3.8309,3.8346,3.79,3.7308,3.7066,3.7216,0.0,3.7029,3.7253,3.8066,3.8718,3.9126,3.9944,4.0494,4.094,4.2203,4.276,4.2835,4.3652,4.3763,4.3466,4.3838,0.0,0.0,4.3392,4.3652,4.3986,4.3986,4.4581,4.5443,4.6252,4.759,4.9224,5.0896,5.2271,5.3302,5.371,5.3784,5.3784,5.3784,5.3784,5.3784,5.3784,5.3784,5.3784,5.3784,5.3784,5.3784,5.3784,5.3784,5.3784,5.3784,5.3784,5.3784,5.3784,5.5243,5.632,5.632,5.7773,5.8807,5.8807,5.9566,6.0261,6.0733,6.1591,6.217,6.2356,6.2838,6.328,6.3721,6.4106,6.4294,6.4294,6.4294,6.4463,6.4804,6.4804,6.5105,6.5705,6.5705,6.5884,6.6185,6.6185,6.6185,6.6185,6.6185,6.5953,6.561,6.561,6.5378,6.4991,6.4991,6.4991,6.4991,0.0,0.0,0.0,0.0,0.0,0.0,0.0,3.4798,3.4768,3.4972,3.4958,3.4935,3.494,3.467,3.4496,0.0,0.0,0.0,0.0,0.0,0.0,0.0,0.0,0.0,3.816,0.0,0.0,3.6892,3.6759,0.0,0.0,0.0,0.0,0.0,3.8495,3.8822,3.8934,4.042,4.1051,0.0,0.0,4.3318,4.3503,0.0,0.0,0.0,0.0,4.3466,4.3986,4.3986,4.4469,4.5138,4.5992,4.7478,4.9224,5.0896,5.2419,5.3562,5.3757,5.3784,5.3784,5.3784,5.3784,5.3784,5.3784,5.3673,5.3599,5.3747,5.3683,5.3608,5.3784,5.3784,5.3784,5.3784,5.3784,5.3784,5.3784,5.5243,5.632,5.632,5.7732,5.8762,5.8947,5.969,6.055,6.1465,6.2364,6.2945,6.3106,6.3798,6.4234,6.4254,6.4254,6.4264,6.4294,6.4294,6.4415,6.4687,6.4768,6.5104,6.5615,6.5673,6.5884,6.6185,6.6185,6.6185,6.6185,6.6185,6.6185,6.6185,6.6185,6.6185,6.6185,6.6185,6.6185,6.6185,0.0,0.0,0.0,0.0,0.0,0.0,0.0,3.5068,3.5126,3.5336,3.5185,3.5146,3.5336,3.5126,3.4855,0.0,0.0,0.0,0.0,0.0,0.0,0.0,0.0,0.0,0.0,0.0,0.0,3.7775,3.7039,0.0,0.0,0.0,0.0,0.0,0.0,3.8005,3.8079,3.8934,0.0,0.0,0.0,0.0,0.0,0.0,0.0,0.0,0.0,4.3949,4.3986,4.3986,4.4061,4.4283,4.5146,4.7033,4.9224,5.0896,5.2011,5.2865,5.3608,5.3784,5.3784,5.3784,5.3784,5.3784,5.3784,5.3237,5.294,5.3636,5.3227,5.294,5.3673,5.3784,5.3784,5.3784,5.3784,5.3784,5.3784,5.5243,5.632,5.632,5.7732,5.8985,5.9728,6.0582,6.141,6.2238,6.3166,6.3722,6.3793,6.3889,6.3979,6.4094,6.4131,6.4183,6.4294,6.4294,6.4314,6.4354,6.4642,6.4981,6.5351,6.5588,6.5884,6.6185,6.6185,6.6185,6.6185,6.6185,6.6185,6.6185,6.6185,6.6185,6.6185,6.6185,6.6185,6.6185,0.0,0.0,0.0,0.0,0.0,0.0,3.5272,3.5178,3.517,3.5378,3.5343,3.5364,3.5543,3.5496,3.5261,3.4896,0.0,0.0,0.0,0.0,0.0,0.0,0.0,0.0,0.0,0.0,3.8677,3.8599,3.7826,0.0,0.0,0.0,0.0,0.0,0.0,3.7194,3.7231,3.8042,0.0,0.0,0.0,0.0,0.0,0.0,0.0,0.0,0.0,0.0,4.3986,4.3986,4.3986,4.4135,4.5026,4.629,4.7776,4.941,5.1193,5.2679,5.2977,5.3413,5.3784,5.3784,5.3784,5.3673,5.319,5.2828,5.2679,5.3004,5.2828,5.2865,5.3636,5.3784,5.3784,5.3784,5.3784,5.397,5.4453,5.554,5.6469,5.6952,5.8019,5.9022,5.9802,6.0693,6.1733,6.3033,6.345,6.3691,6.3725,6.3819,6.3958,6.4111,6.4121,6.4172,6.4294,6.4294,6.4294,6.4294,6.4424,6.4786,6.5299,6.5425,6.5737,6.6185,6.6185,6.6185,6.6185,6.6185,6.6185,6.6185,6.6185,6.6185,6.6185,6.6185,6.6185,6.6185,0.0,0.0,0.0,0.0,0.0,3.5472,3.548,3.5374,3.5336,3.5486,3.5499,3.5534,3.5698,3.5706,3.5587,3.5239,3.5047,0.0,0.0,0.0,0.0,0.0,0.0,0.0,0.0,0.0,3.9195,3.911,3.8539,3.8265,0.0,0.0,3.7269,3.7046,0.0,0.0,0.0,0.0,0.0,0.0,0.0,0.0,0.0,0.0,0.0,0.0,0.0,0.0,0.0,0.0,0.0,4.4098,4.4729,4.5621,4.681,4.8444,5.0302,5.1974,5.2457,5.3004,5.3487,5.3747,5.3599,5.3311,5.2717,5.2234,5.2011,5.2494,5.2419,5.2568,5.3599,5.3784,5.3784,5.3784,5.4007,5.4342,5.4936,5.5939,5.6878,5.7425,5.8205,5.9133,6.0173,6.125,6.2365,6.3516,6.359,6.359,6.359,6.3747,6.3851,6.4016,6.4021,6.4094,6.4244,6.4274,6.4294,6.4294,6.4413,6.4687,6.5152,6.5253,6.5579,6.6047,6.6047,6.6123,6.6185,6.6185,6.6185,6.6185,6.6185,6.6185,6.6185,6.6185,6.6185,6.6185,0.0,0.0,0.0,0.0,0.0,0.0,3.571,3.5681,3.5704,3.5704,3.5704,3.5704,3.5706,3.5706,3.5704,3.5701,3.5441,0.0,0.0,0.0,0.0,0.0,0.0,0.0,0.0,0.0,3.9215,3.9215,3.9117,3.9082,3.9082,3.9082,3.8637,3.7894,0.0,0.0,0.0,0.0,0.0,0.0,0.0,0.0,3.9305,0.0,0.0,0.0,0.0,0.0,0.0,0.0,0.0,0.0,0.0,4.5175,4.681,4.8444,4.9485,5.0488,5.2159,5.2605,5.2791,5.3608,5.32,5.2605,5.2605,5.1342,5.059,5.2271,5.1974,5.1899,5.3487,5.3784,5.3784,5.3784,5.4453,5.4973,5.501,5.6422,5.7499,5.7509,5.8205,5.9356,6.1038,6.2625,6.359,6.359,6.359,6.359,6.359,6.359,6.3658,6.378,6.3862,6.3979,6.4121,6.4234,6.4294,6.4304,6.4661,6.4804,6.4821,6.5144,6.5468,6.5705,6.5705,6.5895,6.6185,6.6185,6.6185,6.6185,6.6185,6.6185,6.6185,6.6185,6.6185,6.6185,0.0,0.0,0.0,0.0,0.0,0.0,0.0,3.5713,3.5694,3.5694,3.5717,3.5706,3.5706,3.5706,3.5706,3.5706,3.5505,0.0,0.0,0.0,0.0,0.0,0.0,0.0,0.0,3.8477,3.9386,3.9346,3.9327,3.9242,3.9151,3.9151,3.9019,3.8711,3.8711,3.8562,0.0,0.0,0.0,0.0,0.0,3.7417,3.9157,0.0,0.0,0.0,0.0,0.0,0.0,0.0,0.0,0.0,0.0,0.0,0.0,4.7107,4.863,5.0219,5.0739,5.1342,5.1825,5.2085,5.1974,5.1639,5.1036,5.0933,5.1156,5.1676,5.2011,5.2531,5.3608,5.3784,5.397,5.4527,5.4825,5.5382,5.6533,5.7175,5.7685,5.8242,5.9552,6.0842,6.1919,6.2959,6.359,6.359,6.359,6.359,6.359,6.359,6.3647,6.378,6.3823,6.3851,6.3958,6.4,6.4011,6.4021,6.4237,6.4445,6.4677,6.4862,6.5223,6.5705,6.5705,6.589,6.6185,6.6185,6.6185,6.6185,6.6185,6.6185,6.6185,6.6185,6.6185,6.6185,0.0,0.0,0.0,0.0,0.0,0.0,0.0,3.573,3.5707,3.5707,3.5684,3.5706,3.5706,3.5706,3.5706,3.5706,3.5599,0.0,0.0,0.0,0.0,0.0,0.0,0.0,3.614,3.842,3.957,3.9533,3.9451,3.936,3.9269,3.9269,3.9242,3.9209,3.9209,3.9209,0.0,0.0,0.0,0.0,3.66,3.7306,3.8711,0.0,0.0,0.0,0.0,0.0,0.0,0.0,0.0,0.0,0.0,0.0,0.0,0.0,4.8221,4.9699,5.0033,5.0488,5.1008,5.1305,5.1156,5.0785,5.0219,5.0525,5.1008,5.1342,5.2048,5.2865,5.3636,5.3784,5.4044,5.4862,5.527,5.5939,5.7313,5.7759,5.8242,5.9059,6.0359,6.151,6.2328,6.3145,6.359,6.359,6.359,6.359,6.359,6.359,6.3624,6.3714,6.3758,6.3812,6.3878,6.3883,6.3905,6.3894,6.3979,6.4118,6.4339,6.4407,6.485,6.5468,6.5468,6.5743,0.0,6.6185,6.6185,6.6185,6.6185,6.6185,6.6185,6.6185,6.6185,6.6185,0.0,0.0,0.0,0.0,0.0,0.0,0.0,3.5551,3.5519,3.5516,3.5532,3.5513,3.5513,3.5513,3.5513,3.5513,0.0,0.0,0.0,0.0,0.0,0.0,0.0,0.0,3.6417,3.8641,3.9828,3.9828,3.9521,3.9399,3.9392,3.9392,3.9386,3.9386,3.9386,3.9386,3.9379,0.0,0.0,0.0,3.7937,3.7937,0.0,0.0,0.0,0.0,0.0,0.0,0.0,0.0,0.0,0.0,0.0,0.0,0.0,0.0,0.0,0.0,0.0,4.9996,5.0219,5.1008,5.059,4.9996,4.9996,5.0107,0.0,5.1231,5.2085,5.2902,5.3683,5.3859,5.4156,5.4973,5.5837,5.6655,5.7472,5.8279,5.9096,5.9913,6.0768,6.1596,6.2402,6.3145,6.359,6.359,6.359,6.359,6.359,6.359,6.359,6.359,6.3702,6.3769,6.3769,6.384,6.3894,6.3873,6.3883,6.3883,6.3883,6.3915,6.4321,6.5059,6.5083,6.5482,6.6155,6.617,6.618,6.618,6.6185,6.6185,6.6185,6.6185,6.6185,6.6185,0.0,0.0,0.0,0.0,0.0,0.0,0.0,0.0,0.0,0.0,3.3735,3.371,3.3728,3.3726,3.3726,0.0,0.0,0.0,0.0,0.0,0.0,0.0,0.0,0.0,3.6546,3.8751,3.9862,3.9862,3.9643,3.9514,3.9495,3.9495,3.9431,3.9386,3.9386,3.9386,3.9379,3.9256,0.0,0.0,3.8181,3.8272,0.0,0.0,0.0,0.0,4.3429,4.3986,0.0,0.0,0.0,0.0,0.0,0.0,0.0,0.0,4.8259,4.8927,4.9141,0.0,4.9224,4.9447,4.9336,4.9187,0.0,5.019,5.1156,5.1342,5.2531,5.3562,5.3784,5.4304,5.501,5.5874,5.6692,5.7509,5.8316,5.9096,5.995,6.0778,6.1633,6.2439,6.3256,6.3479,6.359,6.359,6.359,6.359,6.359,6.359,6.359,6.359,6.3624,6.3635,6.3635,6.3669,6.368,6.3669,6.3769,6.3823,6.3823,6.3873,6.4141,6.4592,6.4888,6.5253,6.5705,6.5991,6.6118,6.6123,6.617,6.6185,6.6185,6.6185,6.6185,6.6185,0.0,0.0,0.0,0.0,0.0,0.0,0.0,0.0,0.0,0.0,0.0,3.3083,3.3107,3.3104,0.0,0.0,0.0,0.0,0.0,0.0,0.0,0.0,0.0,3.69,3.7327,3.9119,4.0085,4.0182,3.9862,3.9766,3.9839,3.9725,3.9655,3.9619,3.9533,3.9464,3.9425,3.9346,3.9256,3.9178,3.8664,0.0,0.0,0.0,0.0,0.0,4.3429,4.3986,0.0,4.3986,4.4283,4.4729,0.0,0.0,0.0,0.0,4.8556,4.889,4.889,4.889,4.889,4.889,4.889,4.9002,4.9364,5.045,5.1491,5.1862,5.294,5.3896,5.4267,5.4713,5.5419,5.6655,5.7202,5.7907,5.9096,5.9616,6.0359,6.1585,6.2142,6.2736,6.3516,6.359,6.359,6.359,6.359,6.359,6.359,6.359,6.359,6.359,6.359,6.359,6.359,6.359,6.359,6.359,6.3658,6.3691,6.3702,6.3947,6.4251,6.4619,6.4995,6.5386,6.5743,6.5951,6.6058,6.6063,6.6123,6.6144,6.6149,6.6175,6.6185,6.6185,0.0,0.0,0.0,0.0,0.0,0.0,0.0,0.0,0.0,0.0,0.0,0.0,0.0,0.0,0.0,0.0,0.0,0.0,0.0,0.0,0.0,0.0,3.6129,3.7364,3.837,3.9607,4.0326,4.0516,4.0134,4.0015,4.0153,3.9974,3.9878,3.99,3.9696,3.9595,3.9521,3.9457,3.9329,3.9171,3.9147,0.0,0.0,0.0,0.0,0.0,0.0,0.0,0.0,4.3986,4.4581,4.5443,4.6252,0.0,0.0,0.0,0.0,0.0,4.889,4.889,4.889,4.889,4.9002,4.9262,4.9921,5.0859,5.1788,5.2457,5.3339,5.4193,5.4862,5.5196,5.5865,5.7276,5.7621,5.8205,5.969,6.0025,6.0656,6.2216,6.2513,6.2848,6.3516,6.359,6.359,6.359,6.359,6.359,6.359,6.359,6.359,6.359,6.359,6.359,6.359,6.359,6.359,6.359,6.359,6.3624,6.3714,6.4036,6.4407,6.4791,6.5223,6.5579,6.5887,6.5973,6.5996,6.6001,6.6063,6.6091,6.6107,6.6155,6.618,6.6185,0.0,0.0,0.0,0.0,0.0,0.0,0.0,0.0,0.0,0.0,0.0,0.0,0.0,0.0,0.0,0.0,0.0,0.0,0.0,0.0,0.0,3.6477,3.6745,3.7638,3.9268,4.0071,4.045,4.0516,4.0269,4.0085,3.9937,3.99,3.9857,3.9796,3.98,3.9711,3.9653,3.9587,3.9414,3.9171,3.9147,0.0,0.0,0.0,0.0,0.0,0.0,0.0,0.0,4.3986,4.4581,4.5443,4.6252,0.0,0.0,0.0,0.0,0.0,4.889,4.889,4.889,4.889,4.9401,4.9959,5.007,5.1305,5.2457,5.2568,5.3794,5.4862,5.4973,5.6162,5.7212,5.7462,5.8056,5.8836,5.9765,6.0545,6.1373,6.229,6.2996,6.3442,6.359,6.359,6.359,6.359,6.359,6.359,6.359,6.359,6.359,6.359,6.359,6.359,6.359,6.359,6.359,6.359,6.359,6.3764,6.4108,6.4179,6.4379,6.4743,6.5137,6.5351,6.5432,6.582,6.6014,6.5982,6.6001,6.6052,6.6102,6.6107,6.6144,6.6185,0.0,0.0,0.0,0.0,0.0,0.0,0.0,0.0,0.0,0.0,0.0,0.0,0.0,0.0,0.0,0.0,0.0,0.0,0.0,0.0,3.648,3.8221,3.8298,3.8917,4.0158,4.0405,4.0557,4.064,4.0442,4.0364,4.0377,4.0246,4.0035,3.9739,3.9739,3.969,3.9533,3.9414,3.956,3.9886,0.0,0.0,0.0,0.0,0.0,0.0,0.0,0.0,0.0,0.0,4.5257,4.6112,4.6884,0.0,0.0,0.0,0.0,0.0,4.889,4.9216,4.955,4.9596,4.9893,5.0376,5.1259,5.2048,5.2865,5.372,5.449,5.527,5.6162,5.6989,5.7647,5.8093,5.8836,5.9653,6.047,6.1325,6.2142,6.2959,6.3368,6.359,6.359,6.359,6.3776,6.4222,6.4259,6.4445,6.4928,6.4928,6.4928,6.4928,6.4928,6.4928,6.4928,6.4482,6.4036,6.359,6.3819,6.4015,6.4229,6.4593,6.4875,6.5049,6.5456,6.5629,6.5642,6.5846,6.5947,6.5954,6.5976,6.6017,6.6052,6.6074,6.6118,6.6144,0.0,0.0,0.0,0.0,0.0,0.0,0.0,0.0,0.0,0.0,0.0,0.0,0.0,0.0,0.0,0.0,0.0,0.0,0.0,3.6248,3.745,3.9423,3.9694,4.012,4.0777,4.0633,4.0668,4.0816,4.0668,4.0609,4.071,4.0577,4.0357,4.0059,4.019,4.0189,4.0083,3.9909,4.0236,4.0833,0.0,0.0,0.0,0.0,0.0,0.0,0.0,0.0,0.0,0.0,0.0,0.0,0.0,0.0,0.0,4.889,4.889,4.889,4.889,4.9476,5.0144,5.0413,5.0636,5.1082,5.2308,5.2902,5.3497,5.475,5.5307,5.5976,5.7249,5.7647,5.8019,5.8836,5.9505,6.0285,6.1325,6.1993,6.2699,6.3516,6.359,6.359,6.359,6.3776,6.4148,6.4742,6.5002,6.5411,6.6042,6.6079,6.6079,6.6079,6.6079,6.6079,6.6079,6.5448,6.4705,6.3888,6.4001,6.4169,6.4349,6.4901,6.5268,6.5456,6.5768,6.5904,6.5904,6.5904,6.5904,6.5904,6.596,6.599,6.6014,6.6041,6.6085,6.6107,0.0,0.0,0.0,0.0,0.0,0.0,0.0,0.0,0.0,0.0,0.0,0.0,0.0,0.0,0.0,0.0,0.0,0.0,0.0,3.7914,3.9307,3.9501,4.0274,4.0739,4.0816,4.0807,4.0803,4.0816,4.0803,4.064,4.0456,4.0739,4.0942,4.1125,4.1606,4.1933,4.2083,4.1826,4.1773,4.1854,4.1635,0.0,0.0,0.0,0.0,0.0,0.0,0.0,0.0,0.0,0.0,0.0,0.0,0.0,4.889,4.889,4.889,4.889,4.889,4.9476,5.0293,5.1119,5.1862,5.2457,5.2568,5.3747,5.4862,5.4973,5.6236,5.736,5.7472,5.8093,5.8873,5.969,5.9876,6.047,6.2105,6.2365,6.2699,6.3516,6.359,6.359,6.359,6.4296,6.4742,6.4816,6.5559,6.6042,6.6079,6.6079,6.6079,6.6079,6.6079,6.6079,6.6079,6.6042,6.5559,6.4705,6.3996,6.3988,6.4664,6.4725,6.5145,6.5872,6.5891,6.5904,6.5904,6.5904,6.5904,6.5904,6.5904,6.5947,6.6008,6.599,6.6052,6.6102,0.0,0.0,0.0,0.0,0.0,0.0,0.0,0.0,0.0,0.0,0.0,0.0,0.0,0.0,0.0,0.0,0.0,0.0,0.0,3.8959,3.9733,4.0274,4.0623,4.0816,4.0816,4.0816,4.0816,4.0816,4.1293,4.1454,4.1328,4.1805,4.2056,4.2115,4.2007,4.2014,4.2096,4.1833,4.2006,4.2512,4.2553,4.2983,0.0,0.0,0.0,0.0,0.0,0.0,0.0,0.0,4.7181,4.7776,4.8296,4.8667,4.889,4.889,4.889,4.8993,4.9522,5.0265,5.1119,5.1936,5.3116,5.397,5.345,5.4193,5.5159,5.5689,5.6729,5.7647,5.813,5.891,5.9542,5.9839,6.0768,6.1659,6.229,6.281,6.3256,6.3553,6.359,6.3813,6.4296,6.4631,6.5225,6.6265,6.6673,6.7045,6.7565,6.7602,6.7602,6.7602,6.7602,6.7602,6.7602,6.7082,6.6673,6.6351,6.6009,6.5728,6.5504,6.5963,6.6082,6.5904,6.5904,6.5904,6.5904,6.5904,6.5904,6.5904,6.5904,6.5916,6.5947,6.597,6.6011,6.604,0.0,0.0,0.0,0.0,0.0,0.0,0.0,0.0,0.0,0.0,0.0,0.0,0.0,0.0,0.0,0.0,0.0,0.0,3.9385,3.9771,4.0197,4.0774,4.0816,4.0816,4.0816,4.0816,4.081,4.0759,4.1559,4.2085,4.2298,4.2822,4.3086,4.3084,4.2819,4.2746,4.2875,4.2611,4.2812,4.3312,4.3488,4.3764,0.0,0.0,0.0,0.0,0.0,0.0,0.0,0.0,4.7887,4.8184,4.8742,4.889,4.889,4.889,4.9076,4.9401,4.9959,5.0933,5.1899,5.2457,5.3831,5.4862,5.4304,5.501,5.5939,5.658,5.7323,5.813,5.8947,5.9542,6.0062,6.0619,6.1659,6.2476,6.2736,6.3256,6.359,6.359,6.359,6.3925,6.4705,6.5039,6.5782,6.7193,6.7528,6.7936,6.8456,6.8493,6.8493,6.8493,6.8493,6.8493,6.8493,6.7936,6.7676,6.7688,6.7892,6.7419,6.6413,6.7026,6.7088,6.6705,6.6705,6.6705,6.6705,6.6705,6.6513,6.6288,6.6288,6.6134,6.5904,6.5954,6.5984,6.6014,0.0,0.0,0.0,0.0,0.0,0.0,0.0,0.0,0.0,0.0,0.0,0.0,0.0,0.0,0.0,0.0,0.0,0.0,3.9501,4.0313,4.0816,4.0777,4.0816,4.0816,4.0777,4.0813,4.0794,4.0716,4.1531,4.2341,4.3107,4.3671,4.3925,4.3948,4.426,4.4553,4.4782,4.4513,4.439,4.439,4.439,4.4243,4.4023,0.0,0.0,0.0,0.0,0.0,0.0,0.0,4.8259,4.889,4.889,4.889,4.889,4.889,4.9476,5.0107,5.0107,5.1342,5.2605,5.2605,5.3822,5.501,5.501,5.631,5.7509,5.7499,5.8167,5.8947,5.9765,5.9913,6.047,6.2142,6.2402,6.2699,6.3479,6.359,6.359,6.359,6.359,6.3925,6.4742,6.5596,6.6451,6.7231,6.8048,6.8493,6.8493,6.8493,6.8493,6.8493,6.8493,6.8493,6.8493,6.8493,6.8493,6.8506,6.9323,6.8821,6.7238,6.7646,6.8011,6.8391,6.8391,6.8391,6.8391,6.8391,6.7898,6.7096,6.7096,6.6635,6.5904,6.5904,6.5947,6.6002,0.0,0.0,0.0,0.0,0.0,0.0,0.0,0.0,0.0,0.0,0.0,0.0,0.0,0.0,0.0,0.0,0.0,0.0,4.0352,4.0661,4.0545,3.9926,4.0468,4.0507,3.9887,4.0993,4.1574,4.1521,4.2977,4.3746,4.3948,4.4542,4.4939,4.5064,4.48,4.4831,4.5033,4.4599,4.439,4.439,4.439,4.4617,4.4947,0.0,0.0,0.0,0.0,0.0,0.0,0.0,0.0,0.0,4.889,4.889,4.889,4.889,4.9476,5.0219,5.0859,5.1788,5.2865,5.4007,5.5026,5.596,5.6597,5.7127,5.7833,5.8947,5.9393,5.9802,6.0656,6.1288,6.1808,6.2328,6.2885,6.333,6.3553,6.359,6.359,6.359,6.359,6.4148,6.5559,6.5931,6.6673,6.8048,6.8382,6.8493,6.8493,6.8493,6.8493,6.8493,6.8493,6.8493,6.8493,6.8493,6.8493,6.8506,6.9323,6.9124,6.8072,6.8794,6.8855,6.8391,6.8391,6.8391,6.8391,6.8391,6.8237,6.8013,6.8013,6.7853,6.759,6.6974,6.6763,6.6711,0.0,0.0,0.0,0.0,0.0,0.0,0.0,0.0,0.0,0.0,3.5046,3.5939,0.0,0.0,0.0,0.0,0.0,0.0,0.0,4.0274,4.0042,3.9501,3.9988,4.032,4.0459,4.2054,4.2907,4.2907,4.387,4.4534,4.4816,4.5199,4.5438,4.5581,4.5159,4.4977,4.5049,4.5166,4.5102,4.4944,4.5481,4.5817,4.5969,0.0,0.0,0.0,0.0,0.0,0.0,0.0,0.0,0.0,4.889,4.889,4.8964,4.929,4.9968,5.0822,5.1639,5.2419,5.3356,5.4654,5.5492,5.643,5.7984,5.8402,5.8725,5.969,6.0173,6.0656,6.151,6.2068,6.2513,6.281,6.3293,6.359,6.359,6.359,6.359,6.359,6.3888,6.4593,6.5968,6.6376,6.7119,6.8419,6.8493,6.8493,6.8493,6.8493,6.8493,6.8493,6.8493,6.859,6.8728,6.8728,6.882,6.8986,6.9625,6.9666,6.9181,6.9864,6.9898,6.9391,6.9391,6.9391,6.9391,6.9391,6.9199,6.893,6.893,6.8699,6.8353,6.7821,6.7628,6.7564,0.0,0.0,0.0,0.0,0.0,0.0,0.0,0.0,0.0,0.0,3.6016,3.6632,0.0,0.0,0.0,0.0,0.0,0.0,0.0,3.9501,3.9501,3.9498,3.9496,4.0345,4.2078,4.362,4.4448,4.452,4.4449,4.4821,4.5594,4.5594,4.5594,4.5586,4.5438,4.523,4.5068,4.6162,4.6326,4.5961,4.7184,4.741,4.7026,4.7055,0.0,0.0,0.0,0.0,0.0,0.0,0.0,0.0,4.889,4.8956,4.915,4.9884,5.0785,5.1676,5.2401,5.3188,5.4,5.4805,5.5574,5.672,5.9047,5.9815,6.0014,6.0088,6.0757,6.1548,6.2365,6.2513,6.2736,6.3479,6.359,6.359,6.359,6.359,6.359,6.359,6.4296,6.5151,6.6017,6.6822,6.7639,6.8456,6.8493,6.8493,6.8493,6.8493,6.8493,6.8493,6.8493,6.8707,6.9091,6.9091,6.9286,6.9702,7.0099,7.0312,7.032,7.0727,7.0898,7.0898,7.0898,7.0898,7.0898,7.0898,7.0475,6.9821,6.9821,6.9321,6.8622,6.8545,6.8507,6.852,0.0,0.0,0.0,0.0,0.0,0.0,0.0,0.0,0.0,0.0,0.0,0.0,0.0,0.0,0.0,0.0,0.0,0.0,0.0,3.9501,3.9489,3.9419,3.9994,4.1457,4.3809,4.4221,4.4705,4.5334,4.5325,4.5436,4.5594,4.5594,4.5594,4.5629,4.6233,4.6498,4.6484,4.7171,4.7252,4.6965,4.7258,4.7589,4.7867,4.8126,4.8703,0.0,0.0,0.0,0.0,0.0,0.0,0.0,4.889,4.9336,4.9884,5.0033,5.1147,5.2364,5.2418,5.3538,5.4795,5.5517,5.6779,5.815,5.9204,6.0137,6.0933,6.1563,6.186,6.2264,6.3171,6.333,6.3405,6.3553,6.359,6.359,6.359,6.359,6.359,6.359,6.4296,6.5151,6.6017,6.6822,6.7639,6.8456,6.8493,6.8493,6.8493,6.8493,6.8493,6.8493,6.8493,6.8707,6.9091,6.9091,6.9286,6.9702,7.0099,7.0312,7.032,7.0727,7.0898,7.0898,7.0898,7.0898,7.0898,7.0898,7.0783,7.0629,7.0629,7.0514,7.0283,6.9667,6.9436,6.9334,0.0,0.0,0.0,0.0,0.0,0.0,0.0,0.0,0.0,0.0,0.0,0.0,0.0,0.0,0.0,0.0,0.0,0.0,0.0,0.0,3.9606,3.9974,4.1527,4.3038,4.4307,4.4769,4.5188,4.5594,4.5594,4.5594,4.5594,4.5594,4.5821,4.624,4.6697,4.7031,4.7322,4.8161,4.8378,4.8166,4.872,4.899,4.9121,4.9315,4.9464,4.9602,4.9431,0.0,0.0,0.0,0.0,0.0,0.0,0.0,5.0302,5.1073,5.1936,5.2651,5.2945,5.3886,5.5063,5.6075,5.7295,5.8499,5.9619,6.0326,6.108,6.2415,6.2789,6.3003,6.3505,6.359,6.359,6.359,6.359,6.359,6.359,6.359,6.359,6.359,6.4668,6.5596,6.6042,6.7193,6.8048,6.8456,6.8493,6.8493,6.8493,6.8493,6.8493,6.8493,6.8695,6.8986,6.9368,6.9587,6.9878,7.028,7.0501,7.0585,7.0593,7.0791,7.0898,7.0898,7.0898,7.0898,7.0898,7.0898,7.0898,7.0898,7.0898,7.0898,7.086,7.0437,7.0283,7.0219,0.0,0.0,0.0,0.0,0.0,0.0,0.0,0.0,0.0,0.0,0.0,0.0,0.0,0.0,0.0,0.0,0.0,0.0,0.0,0.0,0.0,4.1224,4.325,4.4427,4.4513,4.5244,4.5594,4.5594,4.5744,4.5821,4.5821,4.5821,4.6201,4.6928,4.7197,4.7569,4.8072,4.9173,4.9452,4.9228,5.0225,5.044,5.0141,5.0183,4.9929,4.9529,4.9476,4.9244,4.8968,4.8907,0.0,0.0,0.0,0.0,5.0896,5.2197,5.2717,5.2948,5.3667,5.4461,5.5386,5.6672,5.7519,5.8437,6.0015,6.0431,6.0956,6.2779,6.3361,6.3522,6.3579,6.3579,6.3568,6.359,6.359,6.359,6.359,6.359,6.359,6.359,6.5076,6.6079,6.6079,6.7565,6.8493,6.8493,6.8493,6.8493,6.8493,6.8493,6.8493,6.8493,6.8832,6.9229,6.9692,7.003,7.0424,7.0898,7.0898,7.0898,7.0898,7.0898,7.0898,7.0898,7.0898,7.0898,7.0898,7.0898,7.0898,7.0898,7.0898,7.0898,7.0898,7.0898,7.0898,7.0912,0.0,0.0,0.0,0.0,0.0,0.0,0.0,0.0,0.0,0.0,3.8254,3.8525,0.0,0.0,0.0,0.0,0.0,0.0,4.0494,0.0,0.0,4.3835,4.4149,4.4671,4.5398,4.5556,4.5594,4.5594,4.6355,4.6735,4.6735,4.6735,4.6774,4.6966,4.8432,4.9111,4.9245,5.0159,5.0199,4.9738,5.0115,5.0099,4.989,5.0117,5.0159,5.0069,4.9837,4.9588,4.9297,4.8993,4.9373,0.0,0.0,0.0,5.2308,5.2531,5.3088,5.3783,5.4391,5.5512,5.6745,5.7641,5.7923,5.8437,6.0015,6.0478,6.1051,6.2695,6.3063,6.3183,6.3534,6.3511,6.3477,6.3579,6.359,6.359,6.359,6.359,6.359,6.359,6.5076,6.6079,6.6079,6.7565,6.8493,6.8493,6.8493,6.8493,6.8493,6.8493,6.8493,6.8493,6.8566,6.893,6.9692,6.9749,7.018,7.0898,7.0898,7.0898,7.0898,7.0898,7.0898,7.0898,7.0898,7.0898,7.0898,7.0898,7.0898,7.0898,7.0898,7.0898,7.0898,7.0898,7.0898,7.0912,0.0,0.0,0.0,0.0,0.0,0.0,0.0,0.0,0.0,0.0,0.0,3.9072,0.0,0.0,0.0,4.0089,4.015,4.0661,4.1969,4.2707,4.3254,4.3649,4.4094,4.4474,4.4859,4.5359,4.5821,4.6317,4.6697,4.712,4.7582,4.8086,4.8317,4.8317,4.9086,4.9668,5.0168,5.0553,5.0827,5.0991,5.113,5.1253,5.1472,5.1769,5.1656,5.1401,5.1447,5.1281,5.0975,5.0678,5.0817,5.1148,5.1405,0.0,0.0,0.0,5.3524,5.4033,5.5073,5.6112,5.7084,5.7836,5.7997,5.829,5.9453,6.0125,6.0821,6.207,6.2647,6.3002,6.3394,6.3396,6.3373,6.3557,6.3534,6.3522,6.3579,6.359,6.359,6.359,6.5076,6.6079,6.6079,6.7565,6.8493,6.8493,6.8493,6.8493,6.8493,6.8493,6.8493,6.8493,6.893,6.9354,6.9692,7.0171,7.0555,7.0898,7.0898,7.0898,7.0898,7.0898,7.0898,7.0898,7.0898,7.0898,7.0898,7.0898,7.0898,7.0898,7.0898,7.0898,7.0898,7.0898,7.0898,7.0905,0.0,0.0,0.0,0.0,0.0,0.0,0.0,0.0,0.0,0.0,0.0,0.0,0.0,0.0,0.0,0.0,4.1005,4.151,4.2676,4.3173,4.3392,4.3393,4.4205,4.4628,4.4628,4.5475,4.624,4.6889,4.7312,4.7851,4.8471,4.9548,5.0048,5.0048,5.0048,5.0394,5.1015,5.1246,5.1598,5.1984,5.1984,5.2173,5.2493,5.285,5.2679,5.2347,5.257,5.2518,5.2238,5.1896,5.1986,5.2257,5.2502,5.2754,0.0,0.0,0.0,5.4598,5.5659,5.6641,5.7453,5.793,5.8042,5.8251,5.9013,5.9673,6.0406,6.1531,6.2132,6.2647,6.3193,6.3206,6.3255,6.3511,6.3477,6.3465,6.3579,6.359,6.359,6.359,6.5076,6.6079,6.6079,6.7565,6.8493,6.8493,6.8493,6.8493,6.8493,6.8493,6.8554,6.8648,6.924,6.9645,6.9851,7.0555,7.0898,7.0898,7.0898,7.0898,7.0898,7.0898,7.0898,7.0898,7.0898,7.0898,7.0898,7.0898,7.0898,7.0898,7.0898,7.0898,7.0898,7.0898,7.0898,7.0898,0.0,0.0,0.0,0.0,0.0,0.0,0.0,0.0,0.0,0.0,0.0,0.0,4.0452,4.0604,4.0896,4.1742,4.1828,4.1867,4.1858,4.3359,4.4244,4.4239,4.5051,0.0,4.5513,4.6394,4.6851,4.6889,4.8509,4.9279,4.9356,5.1005,5.1769,5.1769,5.1769,5.1808,5.189,5.2736,5.2753,5.2285,5.2285,5.2122,5.1874,5.2233,5.234,5.2319,5.2333,5.2302,5.2202,5.1634,5.214,5.2999,5.2697,5.3125,5.3757,0.0,0.0,0.0,5.6074,5.7175,5.8323,5.8201,5.8204,5.8354,5.9036,5.9233,5.971,6.1276,6.1643,6.1936,6.2855,6.3014,6.3099,6.3359,6.3394,6.3465,6.3579,6.359,6.359,6.359,6.5076,6.6079,6.6079,6.7565,6.8493,6.8493,6.8493,6.8493,6.8493,6.8493,6.8684,6.9047,6.9101,6.9498,7.028,7.0705,7.0898,7.0898,7.0898,7.0898,7.0898,7.0898,7.0898,7.0898,7.0898,7.0898,7.0898,7.0898,7.0898,7.0898,7.0898,7.0898,7.0898,7.0898,7.0898,7.0898,0.0,0.0,0.0,0.0,0.0,0.0,0.0,0.0,0.0,0.0,0.0,0.0,0.0,4.0647,4.0981,4.1824,4.2826,4.3679,4.4205,4.4282,4.4316,4.4316,4.5128,4.5594,4.5594,4.6971,4.7928,4.8509,4.9125,4.9933,5.1005,5.162,5.2197,5.2736,5.2736,5.2736,5.2736,5.3082,5.3415,5.3728,5.3728,5.383,5.4068,5.4358,5.4237,5.3919,5.4168,5.4242,5.4116,5.3491,5.367,5.4083,5.3552,5.3571,5.3784,5.3784,5.4954,5.6203,5.6132,5.7275,5.8422,5.8234,5.8179,5.8218,5.8387,5.8829,5.938,5.993,6.0896,6.1692,6.2034,6.2512,6.299,6.3336,6.3312,6.3361,6.3568,6.359,6.359,6.359,6.5076,6.6079,6.6079,6.7565,6.8493,6.8493,6.8493,6.8493,6.8493,6.8493,6.8695,6.908,6.9337,6.9869,7.0698,7.0843,7.0898,7.0898,7.0898,7.0898,7.0898,7.0898,7.0898,7.0898,7.0898,7.0898,7.0898,7.0898,7.0898,7.0898,7.0898,7.0898,7.0898,7.0898,7.0898,7.0898,0.0,0.0,0.0,0.0,0.0,0.0,0.0,0.0,0.0,4.0716,0.0,0.0,0.0,0.0,4.1789,4.2633,4.3679,4.4551,4.5128,4.5163,4.5163,4.5163,4.5975,4.6436,4.6436,4.7548,4.8663,4.9822,4.9822,5.0702,5.2351,5.2659,5.3082,5.3664,5.3933,5.3895,5.3664,5.3933,5.4314,5.4775,5.4644,5.4817,5.5132,5.5313,5.5218,5.4988,5.523,5.5358,5.5351,5.47,5.4882,5.5214,5.4417,5.4143,5.418,5.4451,5.5536,5.665,5.6711,5.7722,5.8692,5.8378,5.8268,5.826,5.8145,5.8529,5.8936,5.9276,6.0182,6.1102,6.1617,6.2156,6.272,6.324,6.3279,6.3277,6.3557,6.359,6.359,6.359,6.4816,6.5782,6.6079,6.7305,6.8196,6.8493,6.8493,6.8493,6.8493,6.8493,6.874,6.9265,6.9823,7.0506,7.1321,7.1321,7.1475,7.1783,7.1783,7.1783,7.1783,7.1783,7.1783,7.1783,7.1783,7.1437,7.0898,7.0898,7.0898,7.0898,7.0898,7.0898,7.0898,7.0898,7.0898,7.0898,0.0,0.0,0.0,0.0,0.0,0.0,0.0,0.0,4.0679,4.0748,0.0,0.0,0.0,0.0,0.0,4.4321,4.4393,4.4393,4.4393,4.6004,4.6928,4.6928,4.7697,4.8159,4.8197,4.8197,4.9048,5.0784,5.0784,5.163,5.3274,5.4087,5.4511,5.4549,5.5362,5.5285,5.4626,5.5401,5.5537,5.5288,5.499,5.4867,5.4867,5.489,5.5078,5.5365,5.5352,5.5514,5.5642,5.5057,5.5596,5.6298,5.516,5.4837,5.5026,5.5799,5.6633,5.7418,0.0,0.0,0.0,5.8629,5.8443,5.8404,5.8393,5.8305,5.8481,5.9379,5.9586,6.0092,6.1632,6.1964,6.2259,6.3035,6.3183,6.3314,6.3557,6.359,6.359,6.359,6.4296,6.5151,6.6005,6.6822,6.7639,6.8456,6.8493,6.8493,6.8493,6.8518,6.8923,6.9692,7.0501,7.1321,7.2175,7.2213,7.2668,7.3507,7.3507,7.3507,7.3507,7.3507,7.3507,7.3507,7.3507,7.2545,7.0975,7.0975,7.0975,7.0975,7.0975,7.0975,7.0975,7.0975,7.0975,7.0975,0.0,0.0,0.0,0.0,0.0,4.0671,4.0647,4.1654,4.221,0.0,0.0,0.0,4.3991,4.453,4.5257,4.6124,4.6197,4.6428,4.7009,4.7505,4.7774,4.7774,4.8586,4.9356,4.9976,5.0543,5.139,5.251,5.251,5.3087,5.4164,5.4395,5.4818,5.5401,5.5593,5.5939,5.6285,5.5862,5.5671,5.5642,5.6149,5.6393,5.6446,5.6763,5.6833,5.6724,5.6431,5.6352,5.6361,5.6029,5.599,5.6079,5.5784,5.611,5.6656,5.6892,5.7521,5.8154,5.8017,0.0,0.0,0.0,0.0,0.0,5.8415,5.8371,5.8434,5.8688,5.918,5.9734,6.0166,6.1225,6.2098,6.2424,6.2954,6.3382,6.3568,6.359,6.359,6.359,6.4296,6.5113,6.5968,6.6785,6.7639,6.8456,6.8493,6.8493,6.8493,6.9063,6.9596,7.0107,7.1236,7.1944,7.2213,7.2822,7.3238,7.3507,7.3507,7.3507,7.3507,7.3507,7.3507,7.3507,7.3507,7.3238,7.2776,7.2776,7.2776,7.2776,7.2776,7.2776,7.2776,7.2776,7.2776,7.2776,0.0,0.0,0.0,4.2184,4.2555,4.2783,4.2722,4.3535,4.3977,0.0,0.0,0.0,4.5393,4.6124,4.6855,4.7351,4.7735,4.8317,4.9125,4.9505,4.9851,5.0197,5.0702,5.1202,5.1741,5.1851,5.2505,5.3741,5.3395,5.3818,5.5011,5.5011,5.5247,5.5708,5.6093,5.6516,5.6973,5.6668,5.6641,5.6802,5.7014,5.7287,5.7555,5.7547,5.762,5.7676,5.7445,5.737,5.7347,5.7197,5.7051,5.7003,5.7367,5.7565,5.7794,5.8106,5.8557,5.8899,5.8954,5.9311,5.9542,5.914,0.0,0.0,5.8784,5.8712,5.8677,5.8566,5.8904,5.9312,5.9645,6.0485,6.1285,6.1708,6.2461,6.314,6.3542,6.359,6.359,6.359,6.3999,6.4631,6.5411,6.6302,6.7119,6.7936,6.8474,6.8832,6.8997,6.9596,7.0199,7.0801,7.1749,7.2559,7.3245,7.3745,7.4161,7.4546,7.4546,7.4546,7.4546,7.4546,7.4546,7.4546,7.4546,7.4546,7.4546,7.4546,7.4123,7.3507,7.3507,7.3507,7.3507,7.3507,7.3507,7.3507,0.0,0.0,4.3753,4.4441,4.5184,4.5684,4.568,4.5727,4.5757,0.0,4.6035,4.6513,4.7505,4.8235,4.8659,4.8659,4.9356,5.0168,5.0938,5.1659,5.239,5.3159,5.3197,5.3236,5.3351,5.2582,5.3005,5.4626,5.3857,5.4241,5.5708,5.5785,5.5824,5.5862,5.6747,5.717,5.7313,5.7717,5.8113,5.8452,5.7739,5.7815,5.8298,5.7726,5.7866,5.8416,5.8347,5.8353,5.8389,5.8371,5.8427,5.8625,5.9308,5.9088,5.8704,5.9435,5.9627,5.9722,6.0185,6.0293,6.0223,5.9898,5.9714,0.0,5.9334,5.9206,5.9112,5.8855,5.8801,5.8983,5.969,5.9871,6.0136,6.0916,6.1733,6.255,6.3368,6.3553,6.359,6.359,6.359,6.3925,6.4705,6.5485,6.6363,6.7314,6.8492,6.9327,6.974,7.0099,7.0673,7.1508,7.207,7.3053,7.4546,7.4738,7.5245,7.6015,7.6015,7.6015,7.6015,7.6015,7.6015,7.6015,7.6015,7.6015,7.6015,7.6015,7.513,7.3776,7.3776,7.3776,7.3776,7.3776,7.3776,7.3776,0.0,4.5113,4.5267,4.5419,4.5607,4.5676,4.5646,4.6206,4.6663,4.6672,4.8442,5.0284,5.1813,5.212,5.2197,5.2197,5.2351,5.2549,5.2702,5.2851,5.3005,5.3197,5.3197,5.3549,5.4241,5.4087,5.4472,5.5478,5.5285,5.5401,5.5708,5.6401,5.6747,5.6786,5.7665,5.8396,5.9011,5.9107,5.939,5.9654,5.8676,5.8509,5.8848,5.885,5.8916,5.9003,5.8728,5.8782,5.9017,5.8904,5.9343,5.9842,5.9601,5.9858,6.0319,6.0517,6.055,6.0497,6.0338,6.0293,6.0223,5.9898,5.9763,0.0,5.9681,5.9656,5.9669,5.9609,5.9316,5.9168,5.9318,5.9631,5.995,6.0136,6.0879,6.1707,6.2513,6.3182,6.359,6.359,6.359,6.3925,6.4705,6.4965,6.5806,6.7663,6.8895,6.9758,7.015,7.0271,7.0516,7.1031,7.2479,7.3392,7.3738,7.5053,7.5822,7.6015,7.6015,7.6015,7.6015,7.6015,7.6015,7.6015,7.6015,7.6015,7.6015,7.6015,7.5822,7.5515,7.5515,7.5515,7.5515,7.5515,7.5515,7.5515,4.6227,4.6604,4.7156,4.8041,4.8537,4.8913,4.9322,4.9779,5.0043,5.0043,5.1164,5.2279,5.3121,5.3197,5.3197,5.3197,5.3197,5.339,5.3818,5.3857,5.4049,5.4434,5.4434,5.4664,5.5093,5.5093,5.5285,5.5708,5.6132,5.6362,5.6362,5.7214,5.7582,5.762,5.8431,5.9022,5.9406,5.9728,6.0034,6.029,5.9641,5.9421,5.9533,6.0045,6.0386,6.063,6.0841,6.0809,6.0654,6.057,6.0553,6.0495,6.0246,6.0435,6.0787,6.0787,6.0787,6.0757,6.0585,6.0553,6.0514,6.0335,6.0293,0.0,0.0,6.0061,6.0015,5.985,5.9631,5.9502,5.9502,5.9682,5.9778,5.9565,6.0282,6.0991,6.1392,6.2358,6.2996,6.2996,6.3368,6.3776,6.4148,6.4556,6.5765,6.8037,6.8942,6.973,7.0578,7.06,7.0897,7.1514,7.2822,7.3699,7.4084,7.5361,7.6015,7.6015,7.6015,7.6015,7.6015,7.6015,7.6015,7.6015,7.6015,7.6015,7.6015,7.6015,7.6015,7.6015,7.6015,7.6015,7.6015,7.6015,7.6015,7.6015,4.7982,4.8648,4.9548,5.0938,5.1741,5.239,5.3082,5.3197,5.3274,5.3433,5.3433,5.351,5.3664,5.3654,5.3687,5.3659,5.3654,5.3962,5.4664,5.4741,5.5011,5.567,5.5862,5.5939,5.5939,5.6115,5.6187,5.6187,5.6874,5.7214,5.7214,5.8052,5.8407,5.8434,5.9235,5.9549,5.9562,6.0054,6.0394,6.0568,6.0415,6.0342,6.0335,6.1164,6.1727,6.211,6.2874,6.274,6.222,6.2308,6.1864,6.1243,6.1095,6.1056,6.1018,6.0864,6.0787,6.0787,6.0787,6.0787,6.0787,6.0787,6.0787,6.0728,0.0,0.0,0.0,6.0061,5.9953,5.9914,5.9914,5.9858,5.9643,5.9144,5.9805,6.0294,6.0134,6.1272,6.222,6.247,6.3092,6.3494,6.3602,6.4465,6.5945,6.812,6.8874,6.9712,7.0846,7.0898,7.1206,7.1944,7.2976,7.3815,7.4469,7.5476,7.6015,7.6015,7.6015,7.6015,7.6015,7.6015,7.6015,7.6015,7.6015,7.6015,7.6015,7.6015,7.6015,7.6015,7.6015,7.6015,7.6015,7.6015,7.6015,7.6015,5.2477,5.2549,5.2659,5.2895,5.3005,5.3082,5.3197,5.3197,5.3472,5.4241,5.4357,5.4626,5.5324,5.5352,5.5341,5.5395,5.5347,5.538,5.5549,5.5555,5.5593,5.5708,5.6439,5.6863,5.6863,5.7538,5.7926,5.7926,5.7949,5.7963,5.8002,5.8856,5.9228,5.9204,6.0117,6.0488,6.0463,6.052,6.0547,6.0521,6.0849,6.1056,6.1225,6.1852,6.2142,6.2235,6.2665,6.2789,6.2762,6.3047,6.3083,6.2891,6.2172,6.1941,6.1787,6.1018,6.0787,6.0787,6.0787,6.0787,6.0787,6.0787,6.0787,6.0775,6.0746,0.0,6.0734,6.0703,0.0,6.0244,6.0244,0.0,0.0,5.8713,5.9319,5.9592,5.8857,6.0139,6.1578,6.2713,6.2925,6.3119,6.355,6.4973,6.6294,6.7341,6.8801,7.0018,7.086,7.0898,7.0937,7.1052,7.2622,7.3546,7.3623,7.5207,7.6015,7.6015,7.6015,7.6015,7.6015,7.6015,7.6015,7.6015,7.6015,7.6015,7.6015,7.6015,7.6015,7.6015,7.6015,7.6015,7.6015,7.6015,7.6015,7.6015,5.339,5.3197,5.3351,5.3857,5.3933,5.4126,5.4587,5.4664,5.478,5.5164,5.5208,5.5324,5.567,5.6071,5.6159,5.5693,5.6053,5.6299,5.6322,5.6328,5.6558,5.7057,5.7447,5.7639,5.7639,5.7955,5.8129,5.8129,5.8597,5.8815,5.8815,5.9652,6.0016,6.0022,6.0366,6.05,6.0504,6.1036,6.1213,6.1245,6.2521,6.3,6.294,6.2714,6.3094,6.3782,6.4013,6.3947,6.3744,6.3937,6.3642,6.3194,6.2885,6.2781,6.2704,6.2358,6.1935,6.1556,6.1556,6.1172,6.0787,6.0787,6.0787,6.0787,6.0787,6.0787,6.0787,6.0787,0.0,0.0,0.0,0.0,0.0,0.0,5.9832,5.9946,5.9596,6.0167,6.0873,6.1707,6.2228,6.2758,6.3481,6.4783,6.5972,6.6826,6.8162,6.9321,7.0167,7.0667,7.0898,7.0898,7.2584,7.3507,7.3507,7.5168,7.6015,7.6015,7.6015,7.6015,7.6015,7.6015,7.6015,7.6015,7.6015,7.6015,7.6015,7.6015,7.6015,7.6015,7.6015,7.6015,7.6015,7.6015,7.6015,7.6015,5.4126,5.3895,5.4087,5.4703,5.4818,5.5011,5.5593,5.5708,5.5775,5.5989,5.6028,5.6104,5.6374,5.6871,5.6951,5.6378,5.6807,5.7148,5.716,5.7166,5.7434,5.8054,5.8322,5.8431,5.8431,5.8649,5.8757,5.8757,5.9307,5.96,5.96,6.0225,6.0473,6.0491,6.0686,6.0735,6.079,6.1557,6.1963,6.2262,6.3703,6.4526,6.4807,6.4185,6.4699,6.5757,6.5846,6.5535,6.5078,6.5126,6.457,6.3815,6.3668,6.3617,6.3591,6.3328,6.2885,6.2441,6.2441,6.1973,6.1435,6.121,6.1172,6.1095,6.0864,6.0787,6.0787,6.0787,6.0787,0.0,0.0,0.0,6.0645,6.0143,0.0,6.034,6.011,6.0302,6.0606,6.1071,6.1768,6.2542,6.3431,6.4372,6.5406,6.6529,6.7735,6.8776,6.9667,7.0475,7.0898,7.0898,7.236,7.3238,7.3507,7.4938,7.5745,7.6015,7.6015,7.6015,7.6015,7.6015,7.6015,7.6015,7.6015,7.6015,7.6015,7.6015,7.6015,7.6015,7.6015,7.6015,7.6015,7.6015,7.6015,7.6015,5.5631,5.5631,5.5631,5.567,5.567,5.567,5.5708,5.5708,5.5989,5.6767,5.6877,5.7184,5.8035,5.8042,5.801,5.81,5.8035,5.7985,5.8048,5.8054,5.8054,5.8092,5.8847,5.9268,5.9268,6.0015,6.041,6.041,6.038,6.0346,6.0384,6.0453,6.0484,6.0422,6.1281,6.1618,6.1609,6.2081,6.2736,6.3498,6.3926,6.5058,6.6533,6.6652,6.7187,6.7929,6.8049,6.7549,6.6835,6.6835,6.626,6.5371,6.4618,6.4396,6.4289,6.3457,6.3232,6.3275,6.3275,6.3237,6.3045,6.2249,6.2062,6.1826,6.0979,6.0787,6.0787,6.0787,6.0787,6.0787,6.0787,6.0787,6.0512,0.0,6.0231,0.0,0.0,6.0231,6.0974,6.144,6.1907,6.2542,6.3431,6.3831,6.4749,6.6453,6.7735,6.8776,6.9667,7.0475,7.0898,7.0898,7.1783,7.2629,7.3507,7.4315,7.5168,7.6015,7.6015,7.6015,7.6015,7.6015,7.6015,7.6015,7.6015,7.6015,7.6015,7.6015,7.6015,7.6015,7.6015,7.6015,7.6015,7.6015,7.6015,7.6015,5.7434,5.7434,5.7049,5.5901,5.617,5.6736,5.7263,5.7334,5.7426,5.7668,5.7737,5.805,5.8846,5.9377,5.9682,5.9728,6.0115,6.038,6.0401,5.991,5.9872,6.0401,6.0171,6.0025,6.0025,6.0311,6.0412,6.0412,6.0429,6.0415,6.0415,6.0405,6.0704,6.1211,6.1499,6.1958,6.2502,6.3238,6.403,6.4853,6.6109,6.7291,6.8186,6.7097,6.7009,6.7525,6.7597,6.7602,6.7569,6.7614,6.7438,6.7062,6.6277,6.6082,6.5911,6.5029,6.4435,6.4039,6.4078,6.3674,6.3187,6.2962,6.2897,6.282,6.2512,6.205,6.1672,6.1672,6.121,6.0787,6.0787,6.0787,6.0704,0.0,6.0594,6.071,0.0,6.0594,6.0867,6.1038,6.167,6.2452,6.3295,6.4004,6.487,6.6067,6.6999,6.7936,6.8776,6.9629,7.036,7.0898,7.1752,7.2629,7.3507,7.4315,7.513,7.6015,7.6015,7.6015,7.6015,7.6015,7.6015,7.6015,7.6015,7.6015,7.6015,7.6015,7.6015,7.6015,7.6015,7.6015,7.6015,7.6015,7.6015,7.6015,5.8313,5.8296,5.7901,5.6786,5.7038,5.7559,5.8112,5.8165,5.8359,5.886,5.9006,5.9434,6.0507,6.1047,6.1357,6.1385,6.1781,6.2044,6.2044,6.1593,6.1516,6.2051,6.1554,6.1134,6.0835,6.0835,6.0683,6.0415,6.0415,6.0415,6.0415,6.0683,6.1096,6.1631,6.2242,6.2853,6.3419,6.4413,6.5237,6.6025,6.7668,6.8852,6.9491,6.8393,6.8129,6.8403,6.8403,6.8405,6.8371,6.8411,6.8235,6.7868,6.7423,6.7268,6.7175,6.6631,6.6116,6.5691,6.5433,6.4947,6.4391,6.3879,6.3738,6.3668,6.3385,6.2897,6.2512,6.2512,6.1864,6.1248,6.1248,6.1018,6.0787,0.0,0.0,6.0787,0.0,6.0787,6.0787,6.0787,6.1287,6.1979,6.2781,6.3622,6.4512,6.5359,6.6481,6.7475,6.8353,6.9237,7.0052,7.086,7.1437,7.2283,7.3507,7.4007,7.4853,7.6015,7.6015,7.6015,7.6015,7.6015,7.6015,7.6015,7.6015,7.6015,7.6015,7.6015,7.6015,7.6015,7.6015,7.6015,7.6015,7.6015,7.6015,7.6015,5.8429,5.8377,5.8336,5.8375,5.8244,5.8181,5.8357,5.8315,5.8821,6.039,6.0651,6.1308,6.2929,6.3088,6.315,6.3229,6.3165,6.3152,6.3152,6.3075,6.2999,6.2999,6.2923,6.2502,6.1669,6.1669,6.1287,6.053,6.053,6.053,6.053,6.1325,6.1707,6.1784,6.3472,6.4236,6.4405,6.5564,6.6337,6.698,6.8585,6.9731,7.0411,7.0449,7.0449,7.0449,7.0411,6.9914,6.9273,6.9273,6.8699,6.802,6.7981,6.8028,6.8044,6.8005,6.8096,6.8009,6.7173,6.6943,6.6573,6.5069,6.4628,6.4417,6.368,6.3423,6.3352,6.3352,6.2704,6.2172,6.2172,6.1479,6.0902,0.0,0.0,6.0787,6.0787,6.0787,6.0787,6.0787,6.0787,6.1133,6.2018,6.282,6.366,6.4551,6.6134,6.7436,6.8353,6.9199,7.0014,7.086,7.0898,7.1745,7.3469,7.3507,7.4353,7.6015,7.6015,7.6015,7.6015,7.6015,7.6015,7.6015,7.6015,7.6015,7.6015,7.6015,7.6015,7.6015,7.6015,7.6015,7.6015,7.6015,7.6015,7.6015,6.016,6.0077,6.0188,6.0764,5.9786,5.9357,6.0596,6.0781,6.1124,6.2156,6.2887,6.3705,6.4687,6.5345,6.5956,6.659,6.6613,6.6606,6.6606,6.5452,6.4764,6.4764,6.3572,6.2808,6.2579,6.2579,6.2464,6.228,6.228,6.228,6.228,6.2464,6.293,6.3549,6.4007,6.4886,6.6094,6.6389,6.7321,6.8661,6.9693,7.022,7.0487,7.1107,7.1374,7.1259,7.064,7.0258,7.0105,7.0105,6.9952,6.9655,6.9043,6.8868,6.8769,6.8119,6.7944,6.7936,6.776,6.7737,6.7637,6.7333,6.6814,6.6286,6.6107,6.5122,6.4282,6.4282,6.3589,6.2974,6.2974,6.282,6.2474,6.1864,6.121,6.0787,6.0787,6.0787,6.0787,6.0787,6.0787,6.1133,6.2018,6.282,6.366,6.4551,6.559,6.6859,6.8314,6.8622,6.9391,7.086,7.0898,7.1745,7.3469,7.3507,7.4353,7.6015,7.6015,7.6015,7.6015,7.6015,7.6015,7.6015,7.6015,7.6015,7.6015,7.6015,7.6015,7.6015,7.6015,7.6015,7.6015,7.6015,7.6015,7.6015,6.1233,6.1518,6.179,6.2216,6.1486,6.1159,6.2119,6.2557,6.3088,6.3885,6.4801,6.565,6.6415,6.6942,6.74,6.7867,6.7905,6.7905,6.7905,6.7026,6.6483,6.6483,6.5261,6.4374,6.4,6.3656,6.3274,6.2884,6.2884,6.2884,6.2923,6.3274,6.3732,6.4236,6.4962,6.5834,6.6743,6.7477,6.8547,6.9807,7.0648,7.0954,0.0,7.1956,7.2261,7.2185,7.1718,7.1527,7.1489,7.1107,7.0954,7.0839,6.9999,6.9731,6.9616,6.9158,6.9005,6.8937,6.8602,6.8533,6.8487,6.8263,6.7832,6.7463,6.7533,6.6562,6.5621,6.5647,6.4693,6.3815,6.3846,6.3545,6.316,6.2704,6.1903,6.1364,6.1364,6.1056,6.0787,6.0787,6.1133,6.1556,6.2056,6.282,6.366,6.4551,6.5397,6.6628,6.8314,6.8391,6.9161,7.086,7.0898,7.1745,7.3469,7.3507,7.4353,7.6015,7.6015,7.6015,7.6015,7.6015,7.6015,7.6015,7.6015,7.6015,7.6015,7.6015,7.6015,7.6015,7.6015,7.6015,7.6015,7.6015,7.6015,7.6015,6.1953,6.2705,6.3176,6.3205,6.3305,6.3449,6.3635,6.4051,6.4695,6.5605,6.6483,6.7286,6.7981,6.8172,6.8249,6.8249,6.8249,6.8249,6.8249,6.8134,6.8058,6.8058,6.7286,6.6483,6.5757,6.5039,6.4275,6.3381,6.3381,6.3343,6.3228,6.4007,6.4428,6.458,6.6063,6.6827,6.7125,6.8699,6.9846,7.064,7.1421,7.1764,7.1956,7.2826,7.317,7.317,7.3284,7.317,7.2873,7.2147,7.1879,7.1726,7.0992,7.0754,7.0716,7.0602,7.0563,7.0381,6.9578,6.9349,6.9236,6.8616,6.8333,6.8242,6.8381,6.7714,6.7079,6.7135,6.5927,6.4846,6.4904,6.4115,6.3468,6.3468,6.2781,6.2249,6.2249,6.1595,6.1127,6.1127,6.1787,0.0,6.2403,6.3051,6.3775,6.4551,6.5397,6.6628,6.8314,6.8391,6.9161,7.086,7.0898,7.1745,7.3469,7.3507,7.4353,7.6015,7.6015,7.6015,7.6015,7.6015,7.6015,7.6015,7.6015,7.6015,7.6015,7.6015,7.6015,7.6015,7.6015,7.6015,7.6015,7.6015,7.6015,7.6015,6.2727,6.3475,6.424,6.4855,6.5566,6.6254,6.6927,6.6002,6.5719,6.7255,6.8203,6.8814,6.8967,6.9578,6.996,6.996,6.996,6.996,6.996,6.9349,6.8967,6.8967,6.8165,6.7637,6.7485,6.7332,6.6835,6.6017,6.6017,6.5681,6.4955,6.5108,6.5566,6.6254,6.6552,6.7477,6.8814,6.9769,7.0686,7.1497,7.165,7.2147,7.2864,7.3667,7.4002,7.4087,7.4821,7.4172,7.2987,7.2826,7.275,7.2758,7.2597,7.252,7.2406,7.1688,7.1459,7.1268,7.0411,7.0181,7.0151,7.0031,6.9543,6.91,6.9123,6.8516,6.7985,6.7992,6.7236,6.6555,6.6568,6.5353,6.4359,6.4359,6.3666,6.3083,6.3083,6.2968,6.2852,6.2852,6.3006,6.3358,6.4089,6.4282,6.4436,6.4589,6.5397,6.6628,6.8314,6.8391,6.9161,7.086,7.0898,7.1745,7.3469,7.3507,7.4353,7.6015,7.6015,7.6015,7.6015,7.6015,7.6015,7.6015,7.6015,7.6015,7.6015,7.6015,7.6015,7.6015,7.6015,7.6015,7.6015,7.6015,7.6015,7.6015,6.4206,6.5253,6.6262,6.6644,6.7056,6.7744,6.9005,6.8508,6.8279,6.9082,6.996,7.0656,7.1107,7.1527,7.1756,7.1756,7.1756,7.1565,7.1107,7.0724,7.0304,6.9846,6.9005,6.8585,6.8585,6.8134,6.7714,6.7324,6.7324,6.7095,6.6713,6.6713,6.6904,6.7324,6.7782,6.8699,6.9884,7.0724,7.1298,7.1764,7.2635,7.3246,7.3705,7.4545,7.4851,7.4927,7.5356,7.4974,7.4248,7.3781,7.3628,7.3552,7.3132,7.2979,7.2902,7.249,7.2376,7.2299,7.1871,7.1412,7.1077,7.1126,7.0483,6.9879,6.9957,6.9314,6.8725,6.8807,6.816,6.7634,6.7709,6.6718,6.5897,6.5897,6.482,6.3968,6.3968,6.3583,6.3314,6.3314,6.3698,6.4122,6.4551,6.5013,6.5282,6.5282,6.5667,6.6628,6.8314,6.8391,6.9161,7.086,7.1321,7.2206,7.3507,7.3892,7.4745,7.6015,7.6015,7.6015,7.6015,7.6015,7.6015,7.6015,7.6015,7.6015,7.6015,7.6015,7.6015,7.6015,7.6015,7.6015,7.6015,7.6015,7.6015,7.6015,6.5925,6.7141,6.8249,6.8394,6.8593,6.9204,7.0724,7.0946,7.0946,7.0946,7.1565,7.2223,7.2949,7.2979,7.2979,7.2979,7.2979,7.272,7.2032,7.1994,7.1603,7.0724,7.0075,6.9655,6.9464,6.8776,6.8356,6.8172,6.8172,6.7905,6.737,6.7714,6.802,6.8211,6.9082,6.9922,7.0724,7.1412,7.1917,7.2329,7.3667,7.4307,7.4545,7.5242,7.5509,7.5509,7.5509,7.5509,7.5395,7.4698,7.4469,7.4354,7.3743,7.3514,7.3476,7.3323,7.3246,7.3208,7.3055,7.249,7.201,7.2038,7.1347,7.0703,7.0805,7.0123,6.9465,6.959,6.8998,6.8457,6.8403,6.7859,6.7366,6.7366,6.609,6.5128,6.5128,6.4397,6.3852,6.3852,6.4474,6.4897,6.4897,6.5513,6.5981,6.6134,6.6173,6.6821,6.8314,6.8584,6.9353,7.086,7.1752,7.2629,7.3507,7.4315,7.513,7.6015,7.6015,7.6015,7.6015,7.6015,7.6015,7.6015,7.6015,7.6015,7.6015,7.6015,7.6015,7.6015,7.6015,7.6015,7.6015,7.6015,7.6015,7.6015,6.7676,6.8432,6.9311,7.0029,7.0801,7.165,7.2597,7.275,7.275,7.275,7.2826,7.2902,7.2979,7.2979,7.2979,7.2979,7.2979,7.2979,7.2873,7.2873,7.249,7.1612,7.1497,7.1107,7.0296,7.022,6.9807,6.9082,6.9082,6.7897,6.5681,6.7179,6.8325,6.912,6.9922,7.0763,7.1573,7.1688,7.2559,7.3964,7.4125,7.466,7.5395,7.5471,7.5509,7.5509,7.5509,7.5509,7.5471,7.5395,7.5395,7.5356,7.528,7.528,7.5127,7.4316,7.4078,7.3934,7.3208,7.2941,7.2873,7.2881,7.2223,7.1573,7.1582,7.0924,7.0304,7.032,6.9758,6.9102,6.8518,6.8314,6.8276,6.8276,6.7475,6.6865,6.6865,6.6167,6.5667,6.5667,6.575,6.5788,6.5788,6.5865,6.6211,6.6942,6.6981,6.7398,6.8353,6.9161,6.9975,7.086,7.1752,7.2629,7.3507,7.4315,7.513,7.6015,7.6015,7.6015,7.6015,7.6015,7.6015,7.6015,7.6015,7.6015,7.6015,7.6015,7.6015,7.6015,7.6015,7.6015,7.6015,7.6015,7.6015,7.6015,6.9387,7.0533,7.1565,7.1909,7.2253,7.275,7.359,7.3705,7.3896,7.4439,7.4049,7.3934,7.4439,7.4516,7.4516,7.4516,7.4516,7.4278,7.3743,7.3705,7.3361,7.2529,7.249,7.2062,7.1183,7.1183,7.0763,6.9922,6.9922,6.9387,6.8432,6.9082,6.9884,7.0694,7.103,7.1642,7.2529,7.3017,7.359,7.4231,7.4775,7.5204,7.5509,7.5509,7.5509,7.5509,7.5509,7.5509,7.5509,7.5509,7.5509,7.5509,7.5509,7.5509,7.5433,7.508,7.4966,7.4898,7.4592,7.4125,7.3705,7.3705,7.3093,7.249,7.249,7.1794,7.1199,7.121,7.0708,7.0158,6.9955,6.9513,6.9161,6.9161,6.843,6.7898,6.7898,6.759,6.7398,6.7398,6.7398,6.7398,6.7398,6.7398,6.7513,6.7859,6.7398,6.7712,6.9129,6.9513,7.0052,7.086,7.2245,7.3161,7.3507,7.4822,7.5668,7.6015,7.6015,7.6015,7.6015,7.6015,7.6015,7.6015,7.6015,7.6015,7.6015,7.6015,7.6015,7.6015,7.6015,7.6015,7.6015,7.6015,7.6015,7.6015,7.1175,7.2176,7.3055,7.3323,7.3361,7.3628,7.4469,7.4584,7.4813,7.5433,7.4966,7.4813,7.5433,7.5509,7.5509,7.5509,7.5509,7.5242,7.4622,7.4584,7.4201,7.3399,7.3361,7.2941,7.2108,7.207,7.1794,7.1175,7.1175,7.0907,7.0411,7.0411,7.0992,7.207,7.207,7.2567,7.3399,7.3972,7.4354,7.4622,7.5242,7.5509,7.5509,7.5509,7.5509,7.5509,7.5509,7.5509,7.5509,7.5509,7.5509,7.5509,7.5509,7.5509,7.5509,7.5509,7.5509,7.5509,7.5509,7.5051,7.4584,7.4584,7.3972,7.3361,7.3361,7.2682,7.2019,7.1832,7.1429,7.1087,7.0895,7.0423,7.0052,7.0052,6.9353,6.8776,6.8776,6.8545,6.8391,6.8391,6.8391,6.8391,6.8391,6.8391,6.8507,6.8776,6.8205,6.8398,6.9629,6.9937,7.0437,7.1245,7.2699,7.3623,7.3853,7.5284,7.6015,7.6015,7.6015,7.6015,7.6015,7.6015,7.6015,7.6015,7.6015,7.6015,7.6015,7.6015,7.6015,7.6015,7.6015,7.6015,7.6015,7.6015,7.6015,7.6015,7.2979,7.2979,7.3246,7.4049,7.4193,7.4469,7.5356,7.5471,7.5471,7.5509,7.5471,7.5471,7.5509,7.5509,7.5509,7.5509,7.5509,7.5509,7.5471,7.5471,7.5089,7.4231,7.4193,7.3819,7.2979,7.2979,7.2979,7.2979,7.2979,7.21,7.0411,7.0411,7.1328,7.2979,7.2979,7.3437,7.4193,7.4193,7.4698,7.5471,7.5509,7.5509,7.5509,7.5509,7.5509,7.5509,7.5509,7.5509,7.5509,7.5509,7.5509,7.5509,7.5509,7.5509,7.5509,7.5509,7.5509,7.5509,7.5509,7.5471,7.5471,7.5471,7.4813,7.4193,7.4193,7.3552,7.2775,7.1947,7.1842,7.1651,7.0933,7.085,7.0898,7.0898,7.0206,6.9667,6.9667,6.893,6.8391,6.8391,6.8391,6.8391,6.8391,6.8391,6.8776,6.9629,6.9667,6.9667,6.9706,7.0437,7.1283,7.2175,7.3053,7.3892,7.4661,7.5553,7.6015,7.6015,7.6015,7.6015,7.6015,7.6015,7.6015,7.6015,7.6015,7.6015,7.6015,7.6015,7.6015,7.6015,7.6015,7.6015,7.6015,7.6015,7.6015,7.6015,7.3819,7.4316,7.4783,7.5042,7.508,7.5165,7.5471,7.5509,7.5509,7.5509,7.5509,7.5509,7.5509,7.5509,7.5509,7.5509,7.5509,7.5509,7.5509,7.5509,7.5395,7.5089,7.508,7.4698,7.3858,7.3819,7.3552,7.2979,7.2979,7.2711,7.2176,7.2176,7.275,7.3819,7.3819,7.4278,7.508,7.508,7.5242,7.5509,7.5509,7.5509,7.5509,7.5509,7.5509,7.5509,7.5509,7.5509,7.5509,7.5509,7.5509,7.5509,7.5509,7.5509,7.5509,7.5509,7.5509,7.5509,7.5509,7.5509,7.5509,7.5509,7.528,7.508,7.508,7.4431,7.3616,7.2819,7.2706,7.2655,7.2524,7.2069,7.172,7.1776,7.1052,7.0514,7.0514,7.0283,7.009,7.009,7.009,7.009,7.009,7.009,7.0206,7.0514,7.0514,7.0514,7.0514,7.0744,7.1283,7.2175,7.3053,7.3892,7.47,7.5553,7.6015,7.6015,7.6015,7.6015,7.6015,7.6015,7.6015,7.6015,7.6015,7.6015,7.6015,7.6015,7.6015,7.6015,7.6015,7.6015,7.6015,7.6015,7.6015,7.6015,7.4698,7.5127,7.5509,7.5509,7.5509,7.5509,7.5509,7.5509,7.5509,7.5509,7.5509,7.5509,7.5509,7.5509,7.5509,7.5509,7.5509,7.5509,7.5509,7.5509,7.5509,7.5509,7.5509,7.5242,7.4698,7.4698,7.4431,7.3943,7.3943,7.3943,7.3943,7.3943,7.421,7.4698,7.4698,7.5004,7.5509,7.5509,7.5509,7.5509,7.5509,7.5509,7.5509,7.5509,7.5509,7.5509,7.5509,7.5509,7.5509,7.5509,7.5509,7.5509,7.5509,7.5509,7.5509,7.5509,7.5509,7.5509,7.5509,7.5509,7.5509,7.5509,7.5509,7.5518,7.5514,7.5132,7.4499,7.3787,7.3619,7.3544,7.333,7.2892,7.2575,7.2654,7.1975,7.1398,7.1398,7.1091,7.0898,7.0898,7.0898,7.0898,7.0898,7.0898,7.0898,7.0898,7.1206,7.1398,7.1398,7.1398,7.1937,7.3091,7.3668,7.4353,7.5168,7.5745,7.6015,7.6015,7.6015,7.6015,7.6015,7.6015,7.6015,7.6015,7.6015,7.6015,7.6015,7.6015,7.6015,7.6015,7.6015,7.6015,7.6015,7.6015,7.6015,7.6015,7.5509,7.5509,7.5509,7.5509,7.5509,7.5509,7.5509,7.5509,7.5509,7.5509,7.5509,7.5509,7.5509,7.5509,7.5509,7.5509,7.5509,7.5509,7.5509,7.5509,7.5509,7.5509,7.5509,7.5509,7.5509,7.5509,7.5509,7.5509,7.5509,7.5509,7.5509,7.5509,7.5509,7.5509,7.5509,7.5509,7.5509,7.5509,7.5509,7.5509,7.5509,7.5509,7.5509,7.5509,7.5509,7.5509,7.5509,7.5509,7.5509,7.5509,7.5509,7.5509,7.5509,7.5509,7.5509,7.5509,7.5509,7.5509,7.5509,7.5509,7.5509,7.5509,7.5509,7.5535,7.5566,7.5591,7.5425,7.4702,7.4573,7.4374,7.3614,7.3437,7.342,7.357,7.286,7.229,7.229,7.1591,7.1091,7.1091,7.1091,7.1091,7.1091,7.1091,7.1091,7.1091,7.1822,7.2329,7.2367,7.2367,7.3091,7.4661,7.47,7.513,7.5976,7.6015,7.6015,7.6015,7.6015,7.6015,7.6015,7.6015,7.6015,7.6015,7.6015,7.6015,7.6015,7.6015,7.6015,7.6015,7.6015,7.6015,7.6015,7.6015,7.6015,7.6015,7.5509,7.5509,7.5509,7.5509,7.5509,7.5509,7.5509,7.5509,7.5509,7.5509,7.5509,7.5509,7.5509,7.5509,7.5509,7.5509,7.5509,7.5509,7.5509,7.5509,7.5509,7.5509,7.5509,7.5509,7.5509,7.5509,7.5509,7.5509,7.5509,7.5509,7.5509,7.5509,7.5509,7.5509,7.5509,7.5509,7.5509,7.5509,7.5509,7.5509,7.5509,7.5509,7.5509,7.5509,7.5509,7.5509,7.5509,7.5509,7.5509,7.5509,7.5509,7.5509,7.5509,7.5509,7.5509,7.5509,7.5509,7.5509,7.5509,7.5509,7.5509,7.5509,7.5509,7.5518,7.5535,7.5549,7.5561,7.5395,7.5376,7.5371,7.5303,7.4743,7.4312,7.4385,7.3738,7.3199,7.3199,7.3007,7.2892,7.2892,7.2892,7.2892,7.2892,7.2892,7.2892,7.2892,7.3084,7.3476,7.4091,7.413,7.4284,7.47,7.47,7.513,7.5976,7.6015,7.6015,7.6015,7.6015,7.6015,7.6015,7.6015,7.6015,7.6015,7.6015,7.6015,7.6015,7.6015,7.6015,7.6015,7.6015,7.6015,7.6015,7.6015,7.6015,7.6015,7.5509,7.5509,7.5509,7.5509,7.5509,7.5509,7.5509,7.5509,7.5509,7.5509,7.5509,7.5509,7.5509,7.5509,7.5509,7.5509,7.5509,7.5509,7.5509,7.5509,7.5509,7.5509,7.5509,7.5509,7.5509,7.5509,7.5509,7.5509,7.5509,7.5509,7.5509,7.5509,7.5509,7.5509,7.5509,7.5509,7.5509,7.5509,7.5509,7.5509,7.5509,7.5509,7.5509,7.5509,7.5509,7.5509,7.5509,7.5509,7.5509,7.5509,7.5509,7.5509,7.5509,7.5509,7.5509,7.5509,7.5509,7.5509,7.5509,7.5509,7.5509,7.5509,7.5509,7.5535,7.5574,7.5625,7.5682,7.5763,7.5786,7.581,7.5933,7.5534,7.5226,7.5269,7.4584,7.4046,7.4046,7.3738,7.3507,7.3507,7.3507,7.3507,7.3507,7.3507,7.3507,7.3507,7.3853,7.4238,7.4661,7.5084,7.5284,7.5284,7.5284,7.5515,7.6015,7.6015,7.6015,7.6015,7.6015,7.6015,7.6015,7.6015,7.6015,7.6015,7.6015,7.6015,7.6015,7.6015,7.6015,7.6015,7.6015,7.6015,7.6015,7.6015,7.6015,7.6015,7.5509,7.5509,7.5509,7.5509,7.5509,7.5509,7.5509,7.5509,7.5509,7.5509,7.5509,7.5509,7.5509,7.5509,7.5509,7.5509,7.5509,7.5509,7.5509,7.5509,7.5509,7.5509,7.5509,7.5509,7.5509,7.5509,7.5509,7.5509,7.5509,7.5509,7.5509,7.5509,7.5509,7.5509,7.5509,7.5509,7.5509,7.5509,7.5509,7.5509,7.5509,7.5509,7.5509,7.5509,7.5509,7.5509,7.5509,7.5509,7.5509,7.5509,7.5509,7.5509,7.5509,7.5509,7.5509,7.5527,7.5527,7.5527,7.5518,7.5509,7.5509,7.5509,7.5509,7.5514,7.5674,7.5684,7.574,7.5963,7.5948,7.5933,7.6,7.5955,7.5933,7.6007,7.5399,7.4892,7.4892,7.4315,7.3892,7.3892,7.3892,7.3892,7.3892,7.3892,7.3892,7.3892,7.4507,7.4892,7.4892,7.5592,7.6015,7.6015,7.6015,7.6015,7.6015,7.6015,7.6015,7.6015,7.6015,7.6015,7.6015,7.6015,7.6015,7.6015,7.6015,7.6015,7.6015,7.6015,7.6015,7.6015,7.6015,7.6015,7.6015,7.6015,7.6015,7.6015,7.5509,7.5509,7.5509,7.5509,7.5509,7.5509,7.5509,7.5509,7.5509,7.5509,7.5509,7.5509,7.5509,7.5509,7.5509,7.5509,7.5509,7.5509,7.5509,7.5509,7.5509,7.5509,7.5509,7.5509,7.5509,7.5509,7.5509,7.5509,7.5509,7.5509,7.5509,7.5509,7.5509,7.5509,7.5509,7.5509,7.5509,7.5509,7.5509,7.5509,7.5509,7.5509,7.5509,7.5509,7.5509,7.5509,7.5509,7.5509,7.5509,7.5509,7.5509,7.5509,7.5509,7.5509,7.5527,7.5557,7.5574,7.5557,7.5527,7.5509,7.5509,7.5509,7.5509,7.5535,7.5599,7.5644,7.5724,7.5887,7.5955,7.6,7.6015,7.6007,7.6,7.6015,7.5899,7.5784,7.5784,7.5707,7.563,7.563,7.563,7.563,7.563,7.563,7.563,7.563,7.5745,7.5784,7.5784,7.5938,7.6015,7.6015,7.6015,7.6015,7.6015,7.6015,7.6015,7.6015,7.6015,7.6015,7.6015,7.6015,7.6015,7.6015,7.6015,7.6015,7.6015,7.6015,7.6015,7.6015,7.6015,7.6015,7.6015,7.6015,7.6015,7.6015,7.5509,7.5509,7.5509,7.5509,7.5509,7.5509,7.5509,7.5509,7.5509,7.5509,7.5509,7.5509,7.5509,7.5509,7.5509,7.5509,7.5509,7.5509,7.5509,7.5509,7.5509,7.5509,7.5509,7.5509,7.5509,7.5509,7.5509,7.5509,7.5509,7.5509,7.5509,7.5509,7.5509,7.5509,7.5509,7.5509,7.5509,7.5509,7.5509,7.5509,7.5509,7.5509,7.5509,7.5509,7.5509,7.5509,7.5509,7.5509,7.5518,7.5523,7.554,7.5549,7.5599,7.5616,7.5625,7.5619,7.5633,7.5591,7.5549,7.5544,7.5509,7.5509,7.5509,7.5544,7.5641,7.5668,7.5732,7.5933,7.5985,7.6015,7.6015,7.6015,7.6015,7.6015,7.6015,7.6015,7.6015,7.6015,7.6015,7.6015,7.6015,7.6015,7.6015,7.6015,7.6015,7.6015,7.6015,7.6015,7.6015,7.6015,7.6015,7.6015,7.6015,7.6015,7.6015,7.6015,7.6015,7.6015,7.6015,7.6015,7.6015,7.6015,7.6015,7.6015,7.6015,7.6015,7.6015,7.6015,7.6015,7.6015,7.6015,7.6015,7.6015,7.6015,7.6015,7.6015,7.5509,7.5509,7.5509,7.5509,7.5509,7.5509,7.5509,7.5509,7.5509,7.5509,7.5509,7.5509,7.5509,7.5509,7.5509,7.5509,7.5509,7.5509,7.5509,7.5509,7.5509,7.5509,7.5509,7.5509,7.5509,7.5509,7.5509,7.5509,7.5509,7.5509,7.5509,7.5509,7.5509,7.5509,7.5509,7.5509,7.5509,7.5509,7.5509,7.5509,7.5509,7.5509,7.5509,7.5509,7.5527,7.5497,7.5497,7.5514,7.554,7.5608,7.5625,7.5641,7.5676,7.5692,7.57,7.5755,7.5715,7.5649,7.5633,7.5566,7.5544,7.5532,7.5514,7.5549,7.5723,7.5763,7.5802,7.5947,7.6015,7.6015,7.6015,7.6015,7.6015,7.6015,7.6015,7.6015,7.6015,7.6015,7.6015,7.6015,7.6015,7.6015,7.6015,7.6015,7.6015,7.6015,7.6015,7.6015,7.6015,7.6015,7.6015,7.6015,7.6015,7.6015,7.6015,7.6015,7.6015,7.6015,7.6015,7.6015,7.6015,7.6015,7.6015,7.6015,7.6015,7.6015,7.6015,7.6015,7.6015,7.6015,7.6015,7.6015,7.6015,7.6015,7.6015,7.6015,7.5509,7.5509,7.5509,7.5509,7.5509,7.5509,7.5509,7.5509,7.5509,7.5509,7.5509,7.5509,7.5509,7.5509,7.5509,7.5509,7.5509,7.5509,7.5509,7.5509,7.5509,7.5509,7.5509,7.5509,7.5509,7.5509,7.5509,7.5509,7.5509,7.5509,7.5509,7.5509,7.5509,7.5509,7.5509,7.5509,7.5509,7.5509,7.5509,7.5509,7.5509,7.5509,7.5509,7.5509,7.5561,7.5591,7.5591,7.5641,7.5676,7.5684,7.5684,7.5684,7.5692,7.5692,7.5708,7.5864,7.5879,7.5856,7.5747,7.5658,7.5608,7.566,7.5649,7.5633,7.5841,7.5879,7.591,7.6,7.6015,7.6015,7.6015,7.6015,7.6015,7.6015,7.6015,7.6015,7.6015,7.6015,7.6015,7.6015,7.6015,7.6015,7.6015,7.6015,7.6015,7.6015,7.6015,7.6015,7.6015,7.6015,7.6015,7.6015,7.6015,7.6015,7.6015,7.6015,7.6015,7.6015,7.6015,7.6015,7.6015,7.6015,7.6015,7.6015,7.6015,7.6015,7.6015,7.6015,7.6015,7.6015,7.6015,7.6015,7.6015,7.6015,7.6015,7.6015,7.5509,7.5509,7.5509,7.5509,7.5509,7.5509,7.5509,7.5509,7.5509,7.5509,7.5509,7.5509,7.5509,7.5509,7.5509,7.5509,7.5509,7.5509,7.5509,7.5509,7.5509,7.5509,7.5509,7.5509,7.5509,7.5509,7.5509,7.5509,7.5509,7.5509,7.5509,7.5509,7.5509,7.5509,7.5509,7.5509,7.5509,7.5509,7.5509,7.5509,7.5509,7.5506,7.5549,7.5549,7.5608,7.5644,7.5644,7.5668,7.57,7.5794,7.581,7.5818,7.5872,7.5887,7.5894,7.5963,7.597,7.5963,7.5894,7.5786,7.5652,7.5684,7.5668,7.5715,7.5864,7.5887,7.591,7.6,7.6015,7.6015,7.6015,7.6015,7.6015,7.6015,7.6015,7.6015,7.6015,7.6015,7.6015,7.6015,7.6015,7.6015,7.6015,7.6015,7.6015,7.6015,7.6015,7.6015,7.6015,7.6015,7.6015,7.6015,7.6015,7.6015,7.6015,7.6015,7.6015,7.6015,7.6015,7.6015,7.6015,7.6015,7.6015,7.6015,7.6015,7.6015,7.6015,7.6015,7.6015,7.6015,7.6015,7.6015,7.6015,7.6015,7.6015,7.6015,7.5509,7.5509,7.5509,7.5509,7.5509,7.5509,7.5509,7.5509,7.5509,7.5509,7.5509,7.5509,7.5509,7.5509,7.5509,7.5509,7.5509,7.5509,7.5509,7.5509,7.5509,7.5509,7.5509,7.5509,7.5509,7.5509,7.5509,7.5509,7.5509,7.5509,7.5509,7.5509,7.5509,7.5509,7.5509,7.5509,7.5509,7.5535,7.5514,7.5514,7.554,7.5591,7.5641,7.5641,7.5699,7.5771,7.5771,7.5786,7.5818,7.591,7.5933,7.594,7.6,7.6015,7.6015,7.6015,7.6015,7.6015,7.6015,7.5894,7.5772,7.5772,7.5794,7.5794,7.591,7.5933,7.5948,7.6,7.6015,7.6015,7.6015,7.6015,7.6015,7.6015,7.6015,7.6015,7.6015,7.6015,7.6015,7.6015,7.6015,7.6015,7.6015,7.6015,7.6015,7.6015,7.6015,7.6015,7.6015,7.6015,7.6015,7.6015,7.6015,7.6015,7.6015,7.6015,7.6015,7.6015,7.6015,7.613,7.6399,7.6399,7.6553,7.6784,7.6784,7.6784,7.6784,7.6784,7.6784,7.6784,7.6784,7.6784,7.6784,7.6784,7.6784,7.6784,7.5509,7.5509,7.5509,7.5509,7.5509,7.5509,7.5509,7.5509,7.5509,7.5509,7.5509,7.5509,7.5509,7.5509,7.5509,7.5509,7.5509,7.5509,7.5509,7.5509,7.5509,7.5509,7.5509,7.5509,7.5509,7.5509,7.5509,7.5509,7.5509,7.5509,7.5509,7.5509,7.5509,7.5509,7.5509,7.5509,7.5518,7.5557,7.5599,7.5608,7.566,7.5692,7.5692,7.5692,7.5786,7.5887,7.5887,7.594,7.6015,7.6015,7.6015,7.6015,7.6015,7.6015,7.6015,7.6015,7.6015,7.6015,7.6015,7.6015,7.6015,7.6015,7.5955,7.591,7.5993,7.6015,7.6015,7.6015,7.6015,7.6015,7.6015,7.6015,7.6015,7.6015,7.6015,7.6015,7.6015,7.6015,7.6015,7.6015,7.6015,7.6015,7.6015,7.6015,7.6015,7.6015,7.6015,7.6015,7.6015,7.6015,7.6015,7.6015,7.6015,7.6015,7.6015,7.6015,7.6015,7.6015,7.6015,7.6476,7.733,7.733,7.7753,7.8484,7.8484,7.8484,7.8484,7.8484,7.8484,7.8484,7.8484,7.8484,7.8484,7.8484,7.8484,7.8484,7.5509,7.5509,7.5509,7.5509,7.5509,7.5509,7.5509,7.5509,7.5509,7.5509,7.5509,7.5509,7.5509,7.5509,7.5509,7.5509,7.5509,7.5509,7.5509,7.5509,7.5509,7.5509,7.5509,7.5509,7.5509,7.5509,7.5509,7.5509,7.5509,7.5509,7.5509,7.5509,7.5509,7.5509,7.5509,7.5509,7.5518,7.5557,7.5599,7.5608,7.566,7.5771,7.5856,7.5856,7.591,7.5978,7.5978,7.5993,7.6015,7.6015,7.6015,7.6015,7.6015,7.6015,7.6015,7.6015,7.6015,7.6015,7.6015,7.6015,7.6015,7.6015,7.5993,7.5985,7.6007,7.6015,7.6015,7.6015,7.6015,7.6015,7.6015,7.6015,7.6015,7.6015,7.6015,7.6015,7.6015,7.6015,7.6015,7.6015,7.6015,7.6015,7.6015,7.6015,7.6015,7.6015,7.6015,7.6015,7.6015,7.6015,7.6284,7.6899,7.6899,7.7169,7.7753,7.7169,7.6899,7.6907,7.7484,7.7907,7.8138,7.8138,7.8253,7.8484,7.8484,7.8484,7.8484,7.8484,7.8484,7.8484,7.8484,7.8484,7.8484,7.8484,7.8484,7.8484,7.5509,7.5509,7.5509,7.5509,7.5509,7.5509,7.5509,7.5509,7.5509,7.5509,7.5509,7.5509,7.5509,7.5509,7.5509,7.5509,7.5509,7.5509,7.5509,7.5509,7.5509,7.5509,7.5509,7.5509,7.5509,7.5509,7.5509,7.5509,7.5509,7.5509,7.5509,7.5509,7.5509,7.5509,7.5509,7.5509,7.5518,7.5599,7.5649,7.5658,7.5786,7.5864,7.594,7.594,7.597,7.6015,7.6015,7.6015,7.6015,7.6015,7.6015,7.6053,7.6399,7.6515,7.6592,7.6899,7.6976,7.6976,7.6976,7.6976,7.6976,7.6976,7.6476,7.6015,7.6015,7.6015,7.6015,7.6015,7.6015,7.6015,7.6015,7.6015,7.6015,7.6015,7.6015,7.6015,7.6015,7.6015,7.6015,7.6015,7.6015,7.6015,7.6015,7.6015,7.6015,7.6015,7.6015,7.613,7.6515,7.6515,7.6899,7.7753,7.7753,7.8023,7.8484,7.8361,7.813,7.7792,7.8253,7.8677,7.9015,7.9015,7.9208,7.9523,7.9523,7.9523,7.9523,7.9523,7.9523,7.9523,7.9523,7.9523,7.9523,7.9523,7.9523,7.9523,7.5509,7.5509,7.5509,7.5509,7.5509,7.5509,7.5509,7.5509,7.5509,7.5509,7.5509,7.5509,7.5509,7.5509,7.5509,7.5509,7.5509,7.5509,7.5509,7.5509,7.5509,7.5509,7.5509,7.5509,7.5509,7.5509,7.5509,7.5509,7.5509,7.5509,7.5509,7.5509,7.5509,7.5509,7.5518,7.5565,7.565,7.5789,7.5862,7.5955,7.6148,7.6207,7.6207,7.6207,7.6207,7.6207,7.6207,7.6207,7.6207,7.6207,7.6207,7.6361,7.7176,7.7407,7.7561,7.8292,7.8484,7.8484,7.8484,7.8484,7.8484,7.8484,7.7361,7.6207,7.6207,7.6207,7.6207,7.6207,7.6207,7.6207,7.6207,7.6207,7.6207,7.613,7.613,7.6092,7.6015,7.6015,7.6015,7.6015,7.6015,7.6015,7.6015,7.6053,7.613,7.6207,7.6207,7.6553,7.7369,7.7407,7.7792,7.86,7.8638,7.8638,7.8715,7.9515,7.9477,7.8638,7.8715,7.9131,7.9931,7.9931,8.0362,8.1093,8.1093,8.1093,8.1093,8.1093,8.1093,8.1093,8.1093,8.1093,8.1093,8.1093,8.1093,8.1093,7.5509,7.5509,7.5509,7.5509,7.5509,7.5509,7.5509,7.5509,7.5509,7.5509,7.5509,7.5509,7.5509,7.5509,7.5509,7.5509,7.5509,7.5509,7.5509,7.5509,7.5509,7.5509,7.5509,7.5509,7.5509,7.5509,7.5509,7.5509,7.5509,7.5509,7.5509,7.5509,7.5509,7.5509,7.554,7.5957,7.6624,7.676,7.7177,7.7799,7.79,7.7946,7.7946,7.7946,7.7946,7.7946,7.7946,7.7946,7.7946,7.7946,7.7946,7.7984,7.8176,7.8253,7.8253,7.8446,7.8484,7.8484,7.8484,7.8484,7.8484,7.8484,7.8215,7.7946,7.7946,7.7946,7.7946,7.7946,7.7946,7.7946,7.7946,7.7946,7.7753,7.7138,7.7015,7.6784,7.6092,7.6015,7.6015,7.6015,7.6015,7.6015,7.6015,7.663,7.7292,7.7907,7.7946,7.8061,7.8215,7.8253,7.8638,7.9477,7.9515,7.9862,8.0516,8.0708,8.04,7.9515,8.0208,8.0631,8.0823,8.0823,8.0939,8.1093,8.1093,8.1093,8.1093,8.1093,8.1093,8.1093,8.1093,8.1093,8.1093,8.1093,8.1093,8.1093,7.5509,7.5509,7.5509,7.5509,7.5509,7.5509,7.5509,7.5509,7.5509,7.5509,7.5509,7.5509,7.5509,7.5509,7.5509,7.5509,7.5509,7.5509,7.5509,7.5509,7.5509,7.5509,7.5509,7.5509,7.5509,7.5509,7.5509,7.5509,7.5509,7.5509,7.5509,7.5509,7.5727,7.6152,7.6195,7.6735,7.756,7.7691,7.7969,7.8407,7.8492,7.8484,7.8484,7.8484,7.8484,7.8484,7.8484,7.8484,7.8484,7.8484,7.8484,7.8561,7.8977,7.9131,7.9208,7.9631,7.9746,7.9746,7.9746,7.9746,7.9746,7.9746,7.9746,7.9515,7.8677,7.8484,7.8484,7.8484,7.8484,7.8484,7.8484,7.8484,7.8369,7.7946,7.7869,7.7715,7.7253,7.7169,7.7169,7.7169,7.7169,7.7169,7.7169,7.7599,7.8061,7.8484,7.8484,7.8677,7.9092,7.9131,7.9515,8.04,8.0439,8.0631,8.1093,8.1093,8.0862,8.0439,8.09,8.1093,8.1093,8.1093,8.1093,8.1093,8.1093,8.1093,8.1093,8.1093,8.1093,8.1093,8.1093,8.1093,8.1093,8.1093,8.1093,8.1093,7.5509,7.5509,7.5509,7.5509,7.5509,7.5509,7.5509,7.5509,7.5509,7.5509,7.5509,7.5509,7.5509,7.5509,7.5509,7.5509,7.5509,7.5509,7.5509,7.5527,7.5535,7.5535,7.5535,7.5535,7.5535,7.5518,7.5509,7.5509,7.5509,7.5594,7.5727,7.5727,7.6237,7.7126,7.7143,7.7683,7.8525,7.8614,7.8722,7.8884,7.8915,7.8946,7.8946,7.8946,7.8946,7.8946,7.8946,7.8946,7.8946,7.8946,7.8946,7.9061,7.9785,8.0015,8.0162,8.09,8.1093,8.1093,8.1093,8.1093,8.1093,8.1093,8.1093,8.0708,7.9254,7.8946,7.8946,7.8946,7.8946,7.8946,7.8946,7.8946,7.8907,7.8754,7.8715,7.8677,7.8523,7.8484,7.8484,7.8484,7.8484,7.8561,7.8715,7.8715,7.8792,7.8946,7.8946,7.9246,7.9969,8.0015,8.0362,8.1093,8.1093,8.1093,8.1093,8.1093,8.1093,8.1093,8.1093,8.1093,8.1093,8.1093,8.1093,8.1093,8.1093,8.1093,8.1093,8.1093,8.1093,8.1093,8.1093,8.1093,8.1093,8.1093,8.1131,8.1138,7.5509,7.5509,7.5509,7.5509,7.5509,7.5509,7.5509,7.5509,7.5509,7.5509,7.5509,7.5509,7.5509,7.5509,7.5509,7.5509,7.5509,7.5509,7.5509,7.554,7.5583,7.5583,7.5583,7.5583,7.5583,7.5544,7.5509,7.5509,7.5509,7.5935,7.6701,7.6701,7.7211,7.81,7.8174,7.8683,7.9505,7.9577,8.0038,8.0731,8.0739,8.0746,8.0746,8.0746,8.0746,8.0746,8.0746,8.0746,8.0746,8.0746,8.0746,8.0785,8.09,8.0939,8.0939,8.1054,8.1093,8.1093,8.1093,8.1093,8.1093,8.1093,8.1093,8.1054,8.0785,8.0746,8.0746,8.0746,8.0746,8.0746,8.0746,8.0746,8.0516,7.9746,7.9631,7.9361,7.86,7.8484,7.8484,7.8484,7.8484,7.8792,7.9554,7.9631,7.9939,8.0669,8.0746,8.0785,8.0939,8.0939,8.0977,8.1093,8.1093,8.1093,8.1093,8.1093,8.1093,8.1093,8.1093,8.1093,8.1093,8.1093,8.1093,8.1093,8.1093,8.1093,8.1093,8.1093,8.1093,8.1093,8.1093,8.1093,8.1093,8.1093,8.1196,8.1375,7.5518,7.5509,7.5509,7.5509,7.5514,7.5523,7.5518,7.5514,7.5523,7.5518,7.5514,7.554,7.554,7.554,7.5566,7.5616,7.5574,7.5566,7.5616,7.5658,7.5674,7.5674,7.5674,7.5674,7.5674,7.6101,7.6352,7.6352,7.6301,7.6484,7.6909,7.7458,7.8185,7.9073,7.9113,7.9614,8.0469,8.05,8.0746,8.1093,8.1093,8.1093,8.1093,8.1093,8.1093,8.1093,8.1093,8.1093,8.1093,8.1093,8.1093,8.1093,8.1093,8.1093,8.1093,8.1093,8.1093,8.1093,8.1093,8.1093,8.1093,8.1093,8.1093,8.1093,8.1093,8.1093,8.1093,8.1093,8.1093,8.1093,8.1093,8.1093,8.0977,8.0592,8.0516,8.04,8.0015,7.9939,7.9939,7.9939,7.9939,8.0092,8.0477,8.0516,8.0708,8.1054,8.1093,8.1093,8.1093,8.1093,8.1093,8.1093,8.1093,8.1093,8.1093,8.1093,8.1093,8.1093,8.1093,8.1093,8.1093,8.1093,8.1093,8.1093,8.1093,8.1093,8.1093,8.1093,8.1093,8.1093,8.1093,8.1093,8.1116,8.1217,8.1323,8.1412]}]]